Wetterdaten: aktuell Dienstag, 18.06.2019 20:46
Datum Zeit Temp. A. Feuchte A. Luftdruck Regen Wind Richtung Richtung Taupunkt Windchill
18.06.2019 20:46 25,4 C 57 % 1012,8 hPa 0,0 l/m 11,3 km/h (2 Bft) O 101 16,2 C 24,4 C
18.06.2019 20:45 25,4 C 56 % 1012,7 hPa 0,0 l/m 3,1 km/h (1 Bft) O 82 16,0 C 25,4 C
18.06.2019 20:44 25,4 C 56 % 1012,7 hPa 0,0 l/m 9,6 km/h (2 Bft) O 94 16,0 C 24,7 C
18.06.2019 20:43 25,4 C 56 % 1012,7 hPa 0,0 l/m 14,4 km/h (3 Bft) O 88 16,0 C 23,9 C
18.06.2019 20:42 25,5 C 56 % 1012,6 hPa 0,0 l/m 6,5 km/h (2 Bft) O-SO 104 16,1 C 25,5 C
18.06.2019 20:41 25,5 C 56 % 1012,7 hPa 0,0 l/m 8,0 km/h (2 Bft) O 93 16,1 C 25,1 C
18.06.2019 20:40 25,5 C 56 % 1012,7 hPa 0,0 l/m 8,0 km/h (2 Bft) O 79 16,1 C 25,1 C
18.06.2019 20:39 25,5 C 56 % 1012,7 hPa 0,0 l/m 13,0 km/h (3 Bft) O 101 16,1 C 24,2 C
18.06.2019 20:38 25,6 C 56 % 1012,7 hPa 0,0 l/m 11,3 km/h (2 Bft) O-SO 115 16,2 C 24,6 C
18.06.2019 20:37 25,6 C 56 % 1012,7 hPa 0,0 l/m 14,4 km/h (3 Bft) O-SO 107 16,2 C 24,1 C
18.06.2019 20:36 25,6 C 56 % 1012,6 hPa 0,0 l/m 9,6 km/h (2 Bft) O 92 16,2 C 24,9 C
18.06.2019 20:35 25,6 C 55 % 1012,7 hPa 0,0 l/m 6,5 km/h (2 Bft) SO 139 15,9 C 25,6 C
18.06.2019 20:34 25,6 C 55 % 1012,7 hPa 0,0 l/m 11,3 km/h (2 Bft) O-SO 107 15,9 C 24,6 C
18.06.2019 20:33 25,7 C 55 % 1012,7 hPa 0,0 l/m 6,5 km/h (2 Bft) SO 130 16,0 C 25,7 C
18.06.2019 20:32 25,7 C 55 % 1012,6 hPa 0,0 l/m 8,0 km/h (2 Bft) O-SO 117 16,0 C 25,3 C
18.06.2019 20:31 25,8 C 55 % 1012,6 hPa 0,0 l/m 8,0 km/h (2 Bft) SO 125 16,1 C 25,4 C
18.06.2019 20:30 25,8 C 55 % 1012,7 hPa 0,0 l/m 8,0 km/h (2 Bft) O 92 16,1 C 25,4 C
18.06.2019 20:29 25,8 C 55 % 1012,6 hPa 0,0 l/m 14,4 km/h (3 Bft) O-SO 117 16,1 C 24,4 C
18.06.2019 20:28 25,8 C 55 % 1012,6 hPa 0,0 l/m 6,5 km/h (2 Bft) O-SO 111 16,1 C 25,8 C
18.06.2019 20:27 25,9 C 54 % 1012,7 hPa 0,0 l/m 11,3 km/h (2 Bft) O 98 15,9 C 24,9 C
18.06.2019 20:26 25,9 C 55 % 1012,6 hPa 0,0 l/m 11,3 km/h (2 Bft) O 94 16,2 C 24,9 C
18.06.2019 20:25 25,9 C 54 % 1012,6 hPa 0,0 l/m 8,0 km/h (2 Bft) O 86 15,9 C 25,5 C
18.06.2019 20:24 25,9 C 55 % 1012,6 hPa 0,0 l/m 11,3 km/h (2 Bft) O 82 16,2 C 24,9 C
18.06.2019 20:23 25,9 C 54 % 1012,6 hPa 0,0 l/m 6,5 km/h (2 Bft) SO 136 15,9 C 25,9 C
18.06.2019 20:22 26,0 C 54 % 1012,6 hPa 0,0 l/m 6,5 km/h (2 Bft) SO 125 16,0 C 26,0 C
18.06.2019 20:21 26,0 C 54 % 1012,6 hPa 0,0 l/m 8,0 km/h (2 Bft) O-NO 78 16,0 C 25,7 C
18.06.2019 20:20 26,0 C 54 % 1012,6 hPa 0,0 l/m 8,0 km/h (2 Bft) SO 124 16,0 C 25,7 C
18.06.2019 20:18 26,1 C 54 % 1012,6 hPa 0,0 l/m 11,3 km/h (2 Bft) O 86 16,0 C 25,2 C
18.06.2019 20:17 26,1 C 54 % 1012,6 hPa 0,0 l/m 8,0 km/h (2 Bft) O-SO 104 16,0 C 25,8 C
18.06.2019 20:16 26,1 C 54 % 1012,7 hPa 0,0 l/m 8,0 km/h (2 Bft) O-SO 117 16,0 C 25,8 C
18.06.2019 20:15 26,1 C 54 % 1012,7 hPa 0,0 l/m 8,0 km/h (2 Bft) SO 143 16,0 C 25,8 C
18.06.2019 20:14 26,2 C 53 % 1012,6 hPa 0,0 l/m 6,5 km/h (2 Bft) O-NO 67 15,8 C 26,2 C
18.06.2019 20:13 26,2 C 54 % 1012,7 hPa 0,0 l/m 11,3 km/h (2 Bft) O 98 16,1 C 25,3 C
18.06.2019 20:12 26,2 C 53 % 1012,6 hPa 0,0 l/m 9,6 km/h (2 Bft) SO 141 15,8 C 25,6 C
18.06.2019 20:11 26,2 C 54 % 1012,6 hPa 0,0 l/m 14,4 km/h (3 Bft) O-SO 105 16,1 C 24,8 C
18.06.2019 20:10 26,2 C 53 % 1012,7 hPa 0,0 l/m 6,5 km/h (2 Bft) O-SO 122 15,8 C 26,2 C
18.06.2019 20:09 26,3 C 53 % 1012,7 hPa 0,0 l/m 13,0 km/h (3 Bft) O 98 15,9 C 25,1 C
18.06.2019 20:08 26,3 C 53 % 1012,6 hPa 0,0 l/m 16,1 km/h (3 Bft) O 99 15,9 C 24,8 C
18.06.2019 20:07 26,3 C 53 % 1012,7 hPa 0,0 l/m 11,3 km/h (2 Bft) O 87 15,9 C 25,4 C
18.06.2019 20:06 26,3 C 53 % 1012,6 hPa 0,0 l/m 13,0 km/h (3 Bft) O 96 15,9 C 25,1 C
18.06.2019 20:05 26,3 C 53 % 1012,6 hPa 0,0 l/m 6,5 km/h (2 Bft) NO 50 15,9 C 26,3 C
18.06.2019 20:04 26,4 C 53 % 1012,6 hPa 0,0 l/m 17,8 km/h (3 Bft) O-SO 114 16,0 C 24,7 C
18.06.2019 20:03 26,4 C 53 % 1012,7 hPa 0,0 l/m 8,0 km/h (2 Bft) O-SO 122 16,0 C 26,1 C
18.06.2019 20:02 26,4 C 53 % 1012,6 hPa 0,0 l/m 9,6 km/h (2 Bft) SO 130 16,0 C 25,8 C
18.06.2019 20:01 26,4 C 53 % 1012,7 hPa 0,0 l/m 22,6 km/h (4 Bft) O-SO 108 16,0 C 24,2 C
18.06.2019 20:00 26,4 C 53 % 1012,6 hPa 0,0 l/m 13,0 km/h (3 Bft) O-SO 107 16,0 C 25,3 C
18.06.2019 19:59 26,5 C 53 % 1012,6 hPa 0,0 l/m 19,3 km/h (3 Bft) O-SO 110 16,1 C 24,7 C
18.06.2019 19:58 26,5 C 53 % 1012,6 hPa 0,0 l/m 6,5 km/h (2 Bft) SO 139 16,1 C 26,5 C
18.06.2019 19:57 26,5 C 53 % 1012,6 hPa 0,0 l/m 13,0 km/h (3 Bft) O 80 16,1 C 25,4 C
18.06.2019 19:56 26,6 C 52 % 1012,7 hPa 0,0 l/m 16,1 km/h (3 Bft) O-SO 120 15,9 C 25,1 C
18.06.2019 19:55 26,6 C 53 % 1012,6 hPa 0,0 l/m 13,0 km/h (3 Bft) O-SO 102 16,2 C 25,5 C
18.06.2019 19:54 26,6 C 53 % 1012,7 hPa 0,0 l/m 11,3 km/h (2 Bft) O-SO 107 16,2 C 25,7 C
18.06.2019 19:53 26,6 C 53 % 1012,7 hPa 0,0 l/m 9,6 km/h (2 Bft) O 101 16,2 C 26,0 C
18.06.2019 19:52 26,6 C 52 % 1012,7 hPa 0,0 l/m 9,6 km/h (2 Bft) SO 128 15,9 C 26,0 C
18.06.2019 19:51 26,6 C 52 % 1012,7 hPa 0,0 l/m 9,6 km/h (2 Bft) O 96 15,9 C 26,0 C
18.06.2019 19:50 26,6 C 52 % 1012,7 hPa 0,0 l/m 11,3 km/h (2 Bft) O-SO 107 15,9 C 25,7 C
18.06.2019 19:49 26,6 C 52 % 1012,7 hPa 0,0 l/m 11,3 km/h (2 Bft) NO 49 15,9 C 25,7 C
18.06.2019 19:48 26,6 C 52 % 1012,7 hPa 0,0 l/m 13,0 km/h (3 Bft) O-SO 111 15,9 C 25,5 C
18.06.2019 19:47 26,6 C 52 % 1012,8 hPa 0,0 l/m 9,6 km/h (2 Bft) SW 228 15,9 C 26,0 C
18.06.2019 19:46 26,6 C 51 % 1012,7 hPa 0,0 l/m 17,8 km/h (3 Bft) O-SO 107 15,6 C 24,9 C
18.06.2019 19:45 26,6 C 51 % 1012,7 hPa 0,0 l/m 16,1 km/h (3 Bft) O 83 15,6 C 25,1 C
18.06.2019 19:44 26,6 C 51 % 1012,8 hPa 0,0 l/m 14,4 km/h (3 Bft) S-SO 157 15,6 C 25,3 C
18.06.2019 19:43 26,6 C 51 % 1012,8 hPa 0,0 l/m 20,9 km/h (4 Bft) SO 136 15,6 C 24,7 C
18.06.2019 19:42 26,7 C 51 % 1012,7 hPa 0,0 l/m 14,4 km/h (3 Bft) O-SO 108 15,7 C 25,4 C
18.06.2019 19:41 26,7 C 51 % 1012,7 hPa 0,0 l/m 16,1 km/h (3 Bft) O-NO 78 15,7 C 25,2 C
18.06.2019 19:40 26,7 C 51 % 1012,8 hPa 0,0 l/m 19,3 km/h (3 Bft) O-SO 115 15,7 C 24,9 C
18.06.2019 19:39 26,8 C 51 % 1012,8 hPa 0,0 l/m 16,1 km/h (3 Bft) O-SO 123 15,8 C 25,4 C
18.06.2019 19:38 26,8 C 51 % 1012,7 hPa 0,0 l/m 19,3 km/h (3 Bft) O-SO 117 15,8 C 25,1 C
18.06.2019 19:37 26,8 C 51 % 1012,8 hPa 0,0 l/m 19,3 km/h (3 Bft) O-SO 119 15,8 C 25,1 C
18.06.2019 19:36 26,9 C 51 % 1012,8 hPa 0,0 l/m 14,4 km/h (3 Bft) O-NO 63 15,9 C 25,7 C
18.06.2019 19:35 26,9 C 51 % 1012,8 hPa 0,0 l/m 16,1 km/h (3 Bft) O 93 15,9 C 25,5 C
18.06.2019 19:34 26,9 C 51 % 1012,7 hPa 0,0 l/m 13,0 km/h (3 Bft) O-SO 115 15,9 C 25,8 C
18.06.2019 19:33 26,9 C 51 % 1012,7 hPa 0,0 l/m 17,8 km/h (3 Bft) O-SO 107 15,9 C 25,3 C
18.06.2019 19:32 27,0 C 51 % 1012,8 hPa 0,0 l/m 19,3 km/h (3 Bft) O-SO 119 16,0 C 25,3 C
18.06.2019 19:31 27,0 C 51 % 1012,7 hPa 0,0 l/m 20,9 km/h (4 Bft) SO 138 16,0 C 25,2 C
18.06.2019 19:30 27,0 C 51 % 1012,8 hPa 0,0 l/m 22,6 km/h (4 Bft) O-SO 110 16,0 C 25,0 C
18.06.2019 19:29 27,0 C 51 % 1012,7 hPa 0,0 l/m 6,5 km/h (2 Bft) SO 144 16,0 C 27,0 C
18.06.2019 19:28 27,0 C 51 % 1012,7 hPa 0,0 l/m 11,3 km/h (2 Bft) S-SO 165 16,0 C 26,2 C
18.06.2019 19:27 27,0 C 52 % 1012,7 hPa 0,0 l/m 17,8 km/h (3 Bft) O 101 16,3 C 25,4 C
18.06.2019 19:26 27,0 C 52 % 1012,7 hPa 0,0 l/m 8,0 km/h (2 Bft) O-SO 121 16,3 C 26,7 C
18.06.2019 19:25 27,0 C 53 % 1012,7 hPa 0,0 l/m 13,0 km/h (3 Bft) S-SO 152 16,6 C 26,0 C
18.06.2019 19:24 27,0 C 52 % 1012,6 hPa 0,0 l/m 13,0 km/h (3 Bft) SO 133 16,3 C 26,0 C
18.06.2019 19:23 27,0 C 53 % 1012,6 hPa 0,0 l/m 8,0 km/h (2 Bft) S-SW 211 16,6 C 26,7 C
18.06.2019 19:22 27,0 C 52 % 1012,7 hPa 0,0 l/m 19,3 km/h (3 Bft) SO 135 16,3 C 25,3 C
18.06.2019 19:21 27,0 C 52 % 1012,6 hPa 0,0 l/m 19,3 km/h (3 Bft) S-SO 148 16,3 C 25,3 C
18.06.2019 19:20 27,1 C 52 % 1012,6 hPa 0,0 l/m 19,3 km/h (3 Bft) S-SO 165 16,4 C 25,4 C
18.06.2019 19:19 27,1 C 53 % 1012,6 hPa 0,0 l/m 19,3 km/h (3 Bft) SO 135 16,7 C 25,4 C
18.06.2019 19:18 27,1 C 53 % 1012,6 hPa 0,0 l/m 16,1 km/h (3 Bft) SO 146 16,7 C 25,7 C
18.06.2019 19:17 27,1 C 53 % 1012,6 hPa 0,0 l/m 20,9 km/h (4 Bft) O-SO 120 16,7 C 25,3 C
18.06.2019 19:16 27,1 C 53 % 1012,6 hPa 0,0 l/m 8,0 km/h (2 Bft) SO 124 16,7 C 26,8 C
18.06.2019 19:15 27,1 C 52 % 1012,6 hPa 0,0 l/m 14,4 km/h (3 Bft) SO 130 16,4 C 25,9 C
18.06.2019 19:14 27,2 C 52 % 1012,6 hPa 0,0 l/m 22,6 km/h (4 Bft) SO 142 16,5 C 25,3 C
18.06.2019 19:13 27,2 C 53 % 1012,5 hPa 0,0 l/m 19,3 km/h (3 Bft) SO 146 16,8 C 25,6 C
18.06.2019 19:12 27,3 C 52 % 1012,4 hPa 0,0 l/m 20,9 km/h (4 Bft) SO 144 16,6 C 25,6 C
18.06.2019 19:11 27,3 C 53 % 1012,5 hPa 0,0 l/m 16,1 km/h (3 Bft) SO 142 16,9 C 26,0 C
18.06.2019 19:10 27,3 C 52 % 1012,5 hPa 0,0 l/m 17,8 km/h (3 Bft) S-SO 163 16,6 C 25,8 C
18.06.2019 19:09 27,4 C 52 % 1012,4 hPa 0,0 l/m 22,6 km/h (4 Bft) S-SO 166 16,7 C 25,6 C
18.06.2019 19:08 27,4 C 52 % 1012,5 hPa 0,0 l/m 17,8 km/h (3 Bft) S 171 16,7 C 25,9 C
18.06.2019 19:07 27,4 C 52 % 1012,4 hPa 0,0 l/m 24,1 km/h (4 Bft) SO 141 16,7 C 25,5 C
18.06.2019 19:06 27,5 C 53 % 1012,5 hPa 0,0 l/m 19,3 km/h (3 Bft) SO 140 17,0 C 26,0 C
18.06.2019 19:05 27,5 C 53 % 1012,4 hPa 0,0 l/m 16,1 km/h (3 Bft) S-SO 158 17,0 C 26,2 C
18.06.2019 19:04 27,5 C 53 % 1012,5 hPa 0,0 l/m 9,6 km/h (2 Bft) SW 215 17,0 C 27,0 C
18.06.2019 19:03 27,5 C 52 % 1012,5 hPa 0,0 l/m 19,3 km/h (3 Bft) SO 136 16,7 C 26,0 C
18.06.2019 19:02 27,6 C 52 % 1012,5 hPa 0,0 l/m 13,0 km/h (3 Bft) SO 142 16,8 C 26,7 C
18.06.2019 19:01 27,6 C 52 % 1012,5 hPa 0,0 l/m 24,1 km/h (4 Bft) S-SO 150 16,8 C 25,7 C
18.06.2019 19:00 27,7 C 52 % 1012,5 hPa 0,0 l/m 16,1 km/h (3 Bft) S-SW 200 16,9 C 26,5 C
18.06.2019 18:59 27,7 C 53 % 1012,5 hPa 0,0 l/m 19,3 km/h (3 Bft) SO 138 17,2 C 26,2 C
18.06.2019 18:58 27,7 C 53 % 1012,5 hPa 0,0 l/m 17,8 km/h (3 Bft) SO 142 17,2 C 26,3 C
18.06.2019 18:57 27,7 C 53 % 1012,5 hPa 0,0 l/m 27,4 km/h (4 Bft) S-SO 148 17,2 C 25,7 C
18.06.2019 18:56 27,7 C 52 % 1012,5 hPa 0,0 l/m 19,3 km/h (3 Bft) SO 126 16,9 C 26,2 C
18.06.2019 18:55 27,8 C 52 % 1012,5 hPa 0,0 l/m 20,9 km/h (4 Bft) SO 126 17,0 C 26,2 C
18.06.2019 18:54 27,8 C 52 % 1012,5 hPa 0,0 l/m 14,4 km/h (3 Bft) SO 138 17,0 C 26,8 C
18.06.2019 18:53 27,9 C 52 % 1012,5 hPa 0,0 l/m 24,1 km/h (4 Bft) SO 141 17,1 C 26,1 C
18.06.2019 18:52 27,9 C 52 % 1012,5 hPa 0,0 l/m 19,3 km/h (3 Bft) S-SO 161 17,1 C 26,5 C
18.06.2019 18:51 27,9 C 52 % 1012,5 hPa 0,0 l/m 19,3 km/h (3 Bft) S 187 17,1 C 26,5 C
18.06.2019 18:50 27,9 C 52 % 1012,5 hPa 0,0 l/m 20,9 km/h (4 Bft) S-SO 149 17,1 C 26,3 C
18.06.2019 18:49 27,9 C 52 % 1012,5 hPa 0,0 l/m 19,3 km/h (3 Bft) S 169 17,1 C 26,5 C
18.06.2019 18:48 27,9 C 51 % 1012,5 hPa 0,0 l/m 19,3 km/h (3 Bft) S 172 16,8 C 26,5 C
18.06.2019 18:47 27,9 C 51 % 1012,4 hPa 0,0 l/m 25,7 km/h (4 Bft) S-SO 150 16,8 C 26,0 C
18.06.2019 18:46 28,0 C 51 % 1012,5 hPa 0,0 l/m 17,8 km/h (3 Bft) S-SO 159 16,9 C 26,7 C
18.06.2019 18:45 28,0 C 51 % 1012,5 hPa 0,0 l/m 17,8 km/h (3 Bft) S 188 16,9 C 26,7 C
18.06.2019 18:44 28,0 C 51 % 1012,5 hPa 0,0 l/m 22,6 km/h (4 Bft) S-SO 148 16,9 C 26,4 C
18.06.2019 18:43 28,0 C 51 % 1012,4 hPa 0,0 l/m 13,0 km/h (3 Bft) O-SO 113 16,9 C 27,1 C
18.06.2019 18:42 28,1 C 51 % 1012,4 hPa 0,0 l/m 25,7 km/h (4 Bft) SO 135 17,0 C 26,3 C
18.06.2019 18:41 28,1 C 51 % 1012,5 hPa 0,0 l/m 19,3 km/h (3 Bft) SO 142 17,0 C 26,7 C
18.06.2019 18:40 28,1 C 52 % 1012,5 hPa 0,0 l/m 14,4 km/h (3 Bft) S-SW 207 17,3 C 27,1 C
18.06.2019 18:39 28,1 C 51 % 1012,5 hPa 0,0 l/m 17,8 km/h (3 Bft) SO 140 17,0 C 26,8 C
18.06.2019 18:38 28,1 C 51 % 1012,5 hPa 0,0 l/m 17,8 km/h (3 Bft) SW 233 17,0 C 26,8 C
18.06.2019 18:37 28,2 C 50 % 1012,4 hPa 0,0 l/m 14,4 km/h (3 Bft) S-SO 157 16,8 C 27,2 C
18.06.2019 18:36 28,3 C 51 % 1012,4 hPa 0,0 l/m 22,6 km/h (4 Bft) SO 145 17,2 C 26,8 C
18.06.2019 18:35 28,3 C 50 % 1012,5 hPa 0,0 l/m 20,9 km/h (4 Bft) SW 216 16,9 C 26,9 C
18.06.2019 18:34 28,3 C 50 % 1012,5 hPa 0,0 l/m 17,8 km/h (3 Bft) SO 134 16,9 C 27,1 C
18.06.2019 18:33 28,4 C 51 % 1012,5 hPa 0,0 l/m 24,1 km/h (4 Bft) S-SW 192 17,3 C 26,8 C
18.06.2019 18:32 28,3 C 51 % 1012,4 hPa 0,0 l/m 16,1 km/h (3 Bft) S-SO 150 17,2 C 27,2 C
18.06.2019 18:31 28,3 C 51 % 1012,4 hPa 0,0 l/m 17,8 km/h (3 Bft) O-SO 109 17,2 C 27,1 C
18.06.2019 18:30 28,2 C 51 % 1012,4 hPa 0,0 l/m 14,4 km/h (3 Bft) SO 136 17,1 C 27,2 C
18.06.2019 18:29 28,1 C 50 % 1012,4 hPa 0,0 l/m 19,3 km/h (3 Bft) SO 140 16,7 C 26,7 C
18.06.2019 18:28 28,1 C 50 % 1012,4 hPa 0,0 l/m 24,1 km/h (4 Bft) SO 143 16,7 C 26,4 C
18.06.2019 18:27 28,1 C 50 % 1012,4 hPa 0,0 l/m 22,6 km/h (4 Bft) SO 138 16,7 C 26,5 C
18.06.2019 18:26 28,3 C 49 % 1012,4 hPa 0,0 l/m 20,9 km/h (4 Bft) O-SO 119 16,5 C 26,9 C
18.06.2019 18:25 28,3 C 50 % 1012,4 hPa 0,0 l/m 25,7 km/h (4 Bft) O 92 16,9 C 26,6 C
18.06.2019 18:24 28,4 C 50 % 1012,5 hPa 0,0 l/m 22,6 km/h (4 Bft) O-SO 113 17,0 C 26,9 C
18.06.2019 18:23 28,4 C 49 % 1012,4 hPa 0,0 l/m 17,8 km/h (3 Bft) S-SO 151 16,6 C 27,2 C
18.06.2019 18:22 28,4 C 50 % 1012,4 hPa 0,0 l/m 14,4 km/h (3 Bft) S-SO 166 17,0 C 27,5 C
18.06.2019 18:21 28,4 C 49 % 1012,4 hPa 0,0 l/m 19,3 km/h (3 Bft) O-SO 115 16,6 C 27,1 C
18.06.2019 18:20 28,4 C 49 % 1012,5 hPa 0,0 l/m 16,1 km/h (3 Bft) S-SO 161 16,6 C 27,3 C
18.06.2019 18:19 28,4 C 49 % 1012,5 hPa 0,0 l/m 22,6 km/h (4 Bft) O-SO 121 16,6 C 26,9 C
18.06.2019 18:18 28,4 C 48 % 1012,5 hPa 0,0 l/m 20,9 km/h (4 Bft) O-SO 109 16,3 C 27,0 C
18.06.2019 18:17 28,5 C 48 % 1012,5 hPa 0,0 l/m 20,9 km/h (4 Bft) SO 124 16,4 C 27,1 C
18.06.2019 18:16 28,5 C 48 % 1012,5 hPa 0,0 l/m 19,3 km/h (3 Bft) SO 141 16,4 C 27,2 C
18.06.2019 18:15 28,5 C 49 % 1012,5 hPa 0,0 l/m 17,8 km/h (3 Bft) S-SO 151 16,7 C 27,3 C
18.06.2019 18:14 28,5 C 49 % 1012,6 hPa 0,0 l/m 11,3 km/h (2 Bft) S-SO 147 16,7 C 27,9 C
18.06.2019 18:13 28,5 C 48 % 1012,5 hPa 0,0 l/m 16,1 km/h (3 Bft) SO 140 16,4 C 27,5 C
18.06.2019 18:12 28,5 C 48 % 1012,5 hPa 0,0 l/m 19,3 km/h (3 Bft) O-SO 102 16,4 C 27,2 C
18.06.2019 18:11 28,5 C 47 % 1012,6 hPa 0,0 l/m 22,6 km/h (4 Bft) O-SO 114 16,1 C 27,0 C
18.06.2019 18:10 28,6 C 47 % 1012,5 hPa 0,0 l/m 17,8 km/h (3 Bft) SO 136 16,2 C 27,5 C
18.06.2019 18:09 28,6 C 47 % 1012,5 hPa 0,0 l/m 14,4 km/h (3 Bft) SO 128 16,2 C 27,7 C
18.06.2019 18:08 28,7 C 46 % 1012,5 hPa 0,0 l/m 11,3 km/h (2 Bft) S-SO 159 15,9 C 28,1 C
18.06.2019 18:07 28,7 C 46 % 1012,5 hPa 0,0 l/m 17,8 km/h (3 Bft) SO 145 15,9 C 27,6 C
18.06.2019 18:06 28,7 C 46 % 1012,5 hPa 0,0 l/m 9,6 km/h (2 Bft) SO 145 15,9 C 28,3 C
18.06.2019 18:05 28,7 C 46 % 1012,5 hPa 0,0 l/m 13,0 km/h (3 Bft) SO 142 15,9 C 28,0 C
18.06.2019 18:04 28,7 C 46 % 1012,5 hPa 0,0 l/m 17,8 km/h (3 Bft) SO 130 15,9 C 27,6 C
18.06.2019 18:03 28,7 C 46 % 1012,5 hPa 0,0 l/m 19,3 km/h (3 Bft) O-SO 105 15,9 C 27,5 C
18.06.2019 18:02 28,7 C 46 % 1012,5 hPa 0,0 l/m 14,4 km/h (3 Bft) S-SO 159 15,9 C 27,8 C
18.06.2019 18:01 28,7 C 47 % 1012,5 hPa 0,0 l/m 17,8 km/h (3 Bft) SO 146 16,3 C 27,6 C
18.06.2019 18:00 28,6 C 47 % 1012,5 hPa 0,0 l/m 14,4 km/h (3 Bft) S-SO 155 16,2 C 27,7 C
18.06.2019 17:59 28,6 C 47 % 1012,6 hPa 0,0 l/m 14,4 km/h (3 Bft) O-SO 122 16,2 C 27,7 C
18.06.2019 17:58 28,6 C 47 % 1012,5 hPa 0,0 l/m 17,8 km/h (3 Bft) SO 132 16,2 C 27,5 C
18.06.2019 17:57 28,7 C 46 % 1012,5 hPa 0,0 l/m 19,3 km/h (3 Bft) S-SO 148 15,9 C 27,5 C
18.06.2019 17:56 28,8 C 46 % 1012,5 hPa 0,0 l/m 22,6 km/h (4 Bft) SO 134 16,0 C 27,4 C
18.06.2019 17:55 28,8 C 46 % 1012,5 hPa 0,0 l/m 9,6 km/h (2 Bft) SO 137 16,0 C 28,4 C
18.06.2019 17:54 28,8 C 46 % 1012,5 hPa 0,0 l/m 17,8 km/h (3 Bft) O-SO 108 16,0 C 27,7 C
18.06.2019 17:53 28,8 C 47 % 1012,5 hPa 0,0 l/m 16,1 km/h (3 Bft) SO 131 16,3 C 27,8 C
18.06.2019 17:52 28,8 C 47 % 1012,4 hPa 0,0 l/m 14,4 km/h (3 Bft) S 186 16,3 C 28,0 C
18.06.2019 17:51 28,8 C 46 % 1012,5 hPa 0,0 l/m 8,0 km/h (2 Bft) S-SO 163 16,0 C 28,6 C
18.06.2019 17:50 28,7 C 47 % 1012,5 hPa 0,0 l/m 8,0 km/h (2 Bft) O-SO 106 16,3 C 28,5 C
18.06.2019 17:49 28,7 C 46 % 1012,5 hPa 0,0 l/m 8,0 km/h (2 Bft) O 100 15,9 C 28,5 C
18.06.2019 17:48 28,7 C 46 % 1012,6 hPa 0,0 l/m 9,6 km/h (2 Bft) S-SO 163 15,9 C 28,3 C
18.06.2019 17:47 28,8 C 46 % 1012,5 hPa 0,0 l/m 24,1 km/h (4 Bft) SO 142 16,0 C 27,4 C
18.06.2019 17:46 28,8 C 47 % 1012,5 hPa 0,0 l/m 16,1 km/h (3 Bft) S-SO 161 16,3 C 27,8 C
18.06.2019 17:45 28,8 C 47 % 1012,5 hPa 0,0 l/m 14,4 km/h (3 Bft) SO 136 16,3 C 28,0 C
18.06.2019 17:44 28,8 C 47 % 1012,4 hPa 0,0 l/m 19,3 km/h (3 Bft) SO 134 16,3 C 27,6 C
18.06.2019 17:43 28,8 C 47 % 1012,5 hPa 0,0 l/m 14,4 km/h (3 Bft) S-SO 149 16,3 C 28,0 C
18.06.2019 17:42 28,8 C 47 % 1012,5 hPa 0,0 l/m 13,0 km/h (3 Bft) SO 133 16,3 C 28,1 C
18.06.2019 17:41 28,8 C 47 % 1012,5 hPa 0,0 l/m 20,9 km/h (4 Bft) S-SW 212 16,3 C 27,5 C
18.06.2019 17:40 28,8 C 47 % 1012,5 hPa 0,0 l/m 20,9 km/h (4 Bft) SO 128 16,3 C 27,5 C
18.06.2019 17:39 28,8 C 47 % 1012,5 hPa 0,0 l/m 13,0 km/h (3 Bft) SO 140 16,3 C 28,1 C
18.06.2019 17:38 28,9 C 47 % 1012,5 hPa 0,0 l/m 19,3 km/h (3 Bft) SO 132 16,4 C 27,7 C
18.06.2019 17:37 29,0 C 47 % 1012,5 hPa 0,0 l/m 16,1 km/h (3 Bft) O-SO 113 16,5 C 28,1 C
18.06.2019 17:36 29,0 C 47 % 1012,5 hPa 0,0 l/m 17,8 km/h (3 Bft) SO 144 16,5 C 28,0 C
18.06.2019 17:35 29,0 C 47 % 1012,5 hPa 0,0 l/m 14,4 km/h (3 Bft) O-SO 104 16,5 C 28,2 C
18.06.2019 17:34 29,1 C 46 % 1012,5 hPa 0,0 l/m 20,9 km/h (4 Bft) O-SO 119 16,3 C 27,9 C
18.06.2019 17:33 29,1 C 47 % 1012,5 hPa 0,0 l/m 20,9 km/h (4 Bft) S-SO 148 16,6 C 27,9 C
18.06.2019 17:32 29,1 C 47 % 1012,5 hPa 0,0 l/m 19,3 km/h (3 Bft) O-SO 123 16,6 C 28,0 C
18.06.2019 17:31 29,1 C 47 % 1012,5 hPa 0,0 l/m 13,0 km/h (3 Bft) SO 146 16,6 C 28,4 C
18.06.2019 17:30 29,1 C 47 % 1012,5 hPa 0,0 l/m 14,4 km/h (3 Bft) S-SO 164 16,6 C 28,3 C
18.06.2019 17:29 29,1 C 47 % 1012,5 hPa 0,0 l/m 16,1 km/h (3 Bft) S-SO 153 16,6 C 28,2 C
18.06.2019 17:28 29,0 C 47 % 1012,5 hPa 0,0 l/m 13,0 km/h (3 Bft) SO 125 16,5 C 28,3 C
18.06.2019 17:27 29,0 C 47 % 1012,5 hPa 0,0 l/m 8,0 km/h (2 Bft) SO 144 16,5 C 28,8 C
18.06.2019 17:26 29,0 C 46 % 1012,5 hPa 0,0 l/m 14,4 km/h (3 Bft) S-SO 157 16,2 C 28,2 C
18.06.2019 17:25 29,1 C 46 % 1012,5 hPa 0,0 l/m 14,4 km/h (3 Bft) S 178 16,3 C 28,3 C
18.06.2019 17:24 29,1 C 46 % 1012,6 hPa 0,0 l/m 17,8 km/h (3 Bft) SO 132 16,3 C 28,1 C
18.06.2019 17:23 29,2 C 46 % 1012,5 hPa 0,0 l/m 30,6 km/h (5 Bft) SO 146 16,4 C 27,6 C
18.06.2019 17:22 29,2 C 46 % 1012,5 hPa 0,0 l/m 13,0 km/h (3 Bft) S-SW 194 16,4 C 28,5 C
18.06.2019 17:21 29,2 C 46 % 1012,6 hPa 0,0 l/m 19,3 km/h (3 Bft) S-SO 157 16,4 C 28,1 C
18.06.2019 17:20 29,1 C 46 % 1012,6 hPa 0,0 l/m 16,1 km/h (3 Bft) S-SO 148 16,3 C 28,2 C
18.06.2019 17:19 29,0 C 46 % 1012,5 hPa 0,0 l/m 13,0 km/h (3 Bft) S-SO 155 16,2 C 28,3 C
18.06.2019 17:18 29,0 C 46 % 1012,6 hPa 0,0 l/m 16,1 km/h (3 Bft) S-SO 151 16,2 C 28,1 C
18.06.2019 17:17 29,0 C 45 % 1012,6 hPa 0,0 l/m 9,6 km/h (2 Bft) S-SO 150 15,8 C 28,6 C
18.06.2019 17:16 29,0 C 45 % 1012,6 hPa 0,0 l/m 16,1 km/h (3 Bft) SO 134 15,8 C 28,1 C
18.06.2019 17:15 29,0 C 43 % 1012,6 hPa 0,0 l/m 11,3 km/h (2 Bft) O-NO 74 15,1 C 28,5 C
18.06.2019 17:14 29,0 C 44 % 1012,6 hPa 0,0 l/m 17,8 km/h (3 Bft) O-SO 117 15,5 C 28,0 C
18.06.2019 17:13 29,0 C 44 % 1012,6 hPa 0,0 l/m 9,6 km/h (2 Bft) S 169 15,5 C 28,6 C
18.06.2019 17:12 29,0 C 45 % 1012,6 hPa 0,0 l/m 16,1 km/h (3 Bft) O 92 15,8 C 28,1 C
18.06.2019 17:11 28,9 C 44 % 1012,7 hPa 0,0 l/m 9,6 km/h (2 Bft) O 92 15,4 C 28,5 C
18.06.2019 17:10 28,9 C 43 % 1012,7 hPa 0,0 l/m 11,3 km/h (2 Bft) O 89 15,0 C 28,3 C
18.06.2019 17:09 29,0 C 43 % 1012,7 hPa 0,0 l/m 8,0 km/h (2 Bft) S-SO 150 15,1 C 28,8 C
18.06.2019 17:08 29,0 C 44 % 1012,8 hPa 0,0 l/m 6,5 km/h (2 Bft) S 182 15,5 C 29,0 C
18.06.2019 17:07 29,0 C 44 % 1012,7 hPa 0,0 l/m 16,1 km/h (3 Bft) O-SO 121 15,5 C 28,1 C
18.06.2019 17:06 29,0 C 44 % 1012,8 hPa 0,0 l/m 9,6 km/h (2 Bft) S 169 15,5 C 28,6 C
18.06.2019 17:05 29,0 C 44 % 1012,8 hPa 0,0 l/m 11,3 km/h (2 Bft) SO 142 15,5 C 28,5 C
18.06.2019 17:04 29,0 C 44 % 1012,8 hPa 0,0 l/m 16,1 km/h (3 Bft) SO 125 15,5 C 28,1 C
18.06.2019 17:03 29,0 C 43 % 1012,8 hPa 0,0 l/m 14,4 km/h (3 Bft) O-SO 107 15,1 C 28,2 C
18.06.2019 17:02 29,1 C 43 % 1012,8 hPa 0,0 l/m 9,6 km/h (2 Bft) S-SO 148 15,2 C 28,7 C
18.06.2019 17:01 29,2 C 44 % 1012,8 hPa 0,0 l/m 16,1 km/h (3 Bft) SO 126 15,7 C 28,3 C
18.06.2019 17:00 29,1 C 44 % 1012,8 hPa 0,0 l/m 11,3 km/h (2 Bft) S-SO 150 15,6 C 28,6 C
18.06.2019 16:59 29,1 C 43 % 1012,8 hPa 0,0 l/m 4,8 km/h (1 Bft) SO 140 15,2 C 29,1 C
18.06.2019 16:58 29,1 C 43 % 1012,9 hPa 0,0 l/m 11,3 km/h (2 Bft) SO 132 15,2 C 28,6 C
18.06.2019 16:57 29,2 C 43 % 1012,9 hPa 0,0 l/m 11,3 km/h (2 Bft) O-SO 102 15,3 C 28,7 C
18.06.2019 16:56 29,2 C 43 % 1012,8 hPa 0,0 l/m 9,6 km/h (2 Bft) O 100 15,3 C 28,8 C
18.06.2019 16:55 29,3 C 43 % 1012,9 hPa 0,0 l/m 16,1 km/h (3 Bft) SO 127 15,4 C 28,4 C
18.06.2019 16:54 29,3 C 43 % 1012,9 hPa 0,0 l/m 9,6 km/h (2 Bft) O 92 15,4 C 29,0 C
18.06.2019 16:53 29,3 C 43 % 1012,9 hPa 0,0 l/m 13,0 km/h (3 Bft) SO 140 15,4 C 28,7 C
18.06.2019 16:52 29,3 C 44 % 1012,9 hPa 0,0 l/m 14,4 km/h (3 Bft) SO 129 15,8 C 28,6 C
18.06.2019 16:51 29,3 C 44 % 1013,0 hPa 0,0 l/m 11,3 km/h (2 Bft) S-SO 166 15,8 C 28,8 C
18.06.2019 16:50 29,3 C 44 % 1013,0 hPa 0,0 l/m 9,6 km/h (2 Bft) SO 143 15,8 C 29,0 C
18.06.2019 16:49 29,4 C 43 % 1013,0 hPa 0,0 l/m 8,0 km/h (2 Bft) S-SW 205 15,5 C 29,2 C
18.06.2019 16:48 29,4 C 43 % 1013,0 hPa 0,0 l/m 13,0 km/h (3 Bft) S 174 15,5 C 28,8 C
18.06.2019 16:47 29,4 C 44 % 1013,0 hPa 0,0 l/m 19,3 km/h (3 Bft) SO 134 15,8 C 28,4 C
18.06.2019 16:46 29,4 C 44 % 1013,0 hPa 0,0 l/m 11,3 km/h (2 Bft) S-SO 153 15,8 C 28,9 C
18.06.2019 16:45 29,4 C 44 % 1013,0 hPa 0,0 l/m 8,0 km/h (2 Bft) O-SO 108 15,8 C 29,2 C
18.06.2019 16:44 29,3 C 44 % 1013,0 hPa 0,0 l/m 4,8 km/h (1 Bft) S-SO 155 15,8 C 29,3 C
18.06.2019 16:43 29,1 C 44 % 1013,0 hPa 0,0 l/m 3,1 km/h (1 Bft) S-SO 157 15,6 C 29,1 C
18.06.2019 16:42 29,1 C 44 % 1013,0 hPa 0,0 l/m 1,7 km/h (1 Bft) SO 136 15,6 C 29,1 C
18.06.2019 16:41 29,2 C 43 % 1013,2 hPa 0,0 l/m 16,1 km/h (3 Bft) SO 128 15,3 C 28,3 C
18.06.2019 16:40 29,3 C 44 % 1013,1 hPa 0,0 l/m 11,3 km/h (2 Bft) O-SO 113 15,8 C 28,8 C
18.06.2019 16:39 29,2 C 44 % 1013,1 hPa 0,0 l/m 9,6 km/h (2 Bft) SO 126 15,7 C 28,8 C
18.06.2019 16:38 29,2 C 43 % 1013,1 hPa 0,0 l/m 14,4 km/h (3 Bft) SO 138 15,3 C 28,4 C
18.06.2019 16:37 29,3 C 43 % 1013,1 hPa 0,0 l/m 4,8 km/h (1 Bft) SO 131 15,4 C 29,3 C
18.06.2019 16:36 29,2 C 42 % 1013,1 hPa 0,0 l/m 8,0 km/h (2 Bft) SO 145 14,9 C 29,0 C
18.06.2019 16:35 29,2 C 42 % 1013,1 hPa 0,0 l/m 11,3 km/h (2 Bft) S-SW 193 14,9 C 28,7 C
18.06.2019 16:34 29,2 C 42 % 1013,1 hPa 0,0 l/m 11,3 km/h (2 Bft) S 191 14,9 C 28,7 C
18.06.2019 16:33 29,1 C 42 % 1013,1 hPa 0,0 l/m 11,3 km/h (2 Bft) S-SO 159 14,9 C 28,6 C
18.06.2019 16:32 29,1 C 42 % 1013,2 hPa 0,0 l/m 14,4 km/h (3 Bft) SO 144 14,9 C 28,3 C
18.06.2019 16:31 29,1 C 42 % 1013,1 hPa 0,0 l/m 17,8 km/h (3 Bft) SO 133 14,9 C 28,1 C
18.06.2019 16:30 29,0 C 42 % 1013,1 hPa 0,0 l/m 8,0 km/h (2 Bft) SO 137 14,8 C 28,8 C
18.06.2019 16:29 29,0 C 41 % 1013,1 hPa 0,0 l/m 4,8 km/h (1 Bft) O 84 14,4 C 29,0 C
18.06.2019 16:28 29,1 C 41 % 1013,1 hPa 0,0 l/m 11,3 km/h (2 Bft) O 86 14,5 C 28,6 C
18.06.2019 16:27 29,1 C 41 % 1013,1 hPa 0,0 l/m 11,3 km/h (2 Bft) O-NO 66 14,5 C 28,6 C
18.06.2019 16:26 29,1 C 41 % 1013,1 hPa 0,0 l/m 11,3 km/h (2 Bft) O 89 14,5 C 28,6 C
18.06.2019 16:25 29,1 C 41 % 1013,1 hPa 0,0 l/m 11,3 km/h (2 Bft) O-SO 103 14,5 C 28,6 C
18.06.2019 16:24 29,2 C 41 % 1013,1 hPa 0,0 l/m 13,0 km/h (3 Bft) O-SO 103 14,6 C 28,5 C
18.06.2019 16:23 29,3 C 41 % 1013,1 hPa 0,0 l/m 14,4 km/h (3 Bft) O-SO 121 14,7 C 28,6 C
18.06.2019 16:22 29,2 C 40 % 1013,1 hPa 0,0 l/m 14,4 km/h (3 Bft) O-SO 111 14,2 C 28,4 C
18.06.2019 16:21 29,3 C 40 % 1013,1 hPa 0,0 l/m 11,3 km/h (2 Bft) O-NO 57 14,3 C 28,8 C
18.06.2019 16:20 29,4 C 39 % 1013,1 hPa 0,0 l/m 4,8 km/h (1 Bft) O 86 14,0 C 29,4 C
18.06.2019 16:19 29,5 C 39 % 1013,1 hPa 0,0 l/m 13,0 km/h (3 Bft) O-NO 59 14,1 C 28,9 C
18.06.2019 16:18 29,6 C 39 % 1013,1 hPa 0,0 l/m 13,0 km/h (3 Bft) O 88 14,2 C 29,0 C
18.06.2019 16:17 29,7 C 39 % 1013,1 hPa 0,0 l/m 11,3 km/h (2 Bft) O-NO 65 14,2 C 29,3 C
18.06.2019 16:16 29,8 C 39 % 1013,2 hPa 0,0 l/m 8,0 km/h (2 Bft) O-NO 78 14,3 C 29,6 C
18.06.2019 16:15 29,9 C 39 % 1013,2 hPa 0,0 l/m 6,5 km/h (2 Bft) S-SW 207 14,4 C 29,9 C
18.06.2019 16:14 29,9 C 39 % 1013,1 hPa 0,0 l/m 13,0 km/h (3 Bft) S-SO 163 14,4 C 29,4 C
18.06.2019 16:13 29,9 C 40 % 1013,2 hPa 0,0 l/m 16,1 km/h (3 Bft) SO 143 14,8 C 29,2 C
18.06.2019 16:12 29,9 C 40 % 1013,2 hPa 0,0 l/m 6,5 km/h (2 Bft) S 171 14,8 C 29,9 C
18.06.2019 16:11 29,9 C 41 % 1013,2 hPa 0,0 l/m 13,0 km/h (3 Bft) SO 136 15,2 C 29,4 C
18.06.2019 16:10 29,8 C 41 % 1013,3 hPa 0,0 l/m 8,0 km/h (2 Bft) SW 220 15,1 C 29,6 C
18.06.2019 16:09 29,7 C 40 % 1013,2 hPa 0,0 l/m 6,5 km/h (2 Bft) S-SO 149 14,6 C 29,7 C
18.06.2019 16:08 29,5 C 40 % 1013,3 hPa 0,0 l/m 6,5 km/h (2 Bft) S-SO 166 14,5 C 29,5 C
18.06.2019 16:07 29,5 C 40 % 1013,3 hPa 0,0 l/m 3,1 km/h (1 Bft) NO 39 14,5 C 29,5 C
18.06.2019 16:06 29,4 C 40 % 1013,4 hPa 0,0 l/m 0,0 km/h (0 Bft) SO 136 14,4 C 29,4 C
18.06.2019 16:05 29,4 C 40 % 1013,3 hPa 0,0 l/m 3,1 km/h (1 Bft) NO 36 14,4 C 29,4 C
18.06.2019 16:04 29,5 C 40 % 1013,4 hPa 0,0 l/m 6,5 km/h (2 Bft) O-NO 65 14,5 C 29,5 C
18.06.2019 16:03 29,5 C 40 % 1013,4 hPa 0,0 l/m 8,0 km/h (2 Bft) SO 125 14,5 C 29,3 C
18.06.2019 16:02 29,6 C 40 % 1013,4 hPa 0,0 l/m 4,8 km/h (1 Bft) O-NO 77 14,5 C 29,6 C
18.06.2019 16:01 29,6 C 40 % 1013,3 hPa 0,0 l/m 8,0 km/h (2 Bft) O-NO 69 14,5 C 29,4 C
18.06.2019 16:00 29,7 C 40 % 1013,3 hPa 0,0 l/m 13,0 km/h (3 Bft) O-NO 75 14,6 C 29,1 C
18.06.2019 15:59 29,5 C 41 % 1013,4 hPa 0,0 l/m 0,0 km/h (0 Bft) N-NO 29 14,8 C 29,5 C
18.06.2019 15:58 29,4 C 41 % 1013,4 hPa 0,0 l/m 1,7 km/h (1 Bft) N-NW 336 14,7 C 29,4 C
18.06.2019 15:57 29,3 C 41 % 1013,4 hPa 0,0 l/m 0,0 km/h (0 Bft) O 92 14,7 C 29,3 C
18.06.2019 15:56 29,3 C 41 % 1013,4 hPa 0,0 l/m 4,8 km/h (1 Bft) O 90 14,7 C 29,3 C
18.06.2019 15:55 29,4 C 41 % 1013,4 hPa 0,0 l/m 6,5 km/h (2 Bft) O-SO 109 14,7 C 29,4 C
18.06.2019 15:54 29,5 C 40 % 1013,5 hPa 0,0 l/m 6,5 km/h (2 Bft) SO 132 14,5 C 29,5 C
18.06.2019 15:53 29,6 C 40 % 1013,4 hPa 0,0 l/m 8,0 km/h (2 Bft) O-SO 107 14,5 C 29,4 C
18.06.2019 15:52 29,6 C 40 % 1013,5 hPa 0,0 l/m 9,6 km/h (2 Bft) SO 140 14,5 C 29,3 C
18.06.2019 15:51 29,6 C 40 % 1013,4 hPa 0,0 l/m 16,1 km/h (3 Bft) O-SO 105 14,5 C 28,8 C
18.06.2019 15:50 29,5 C 40 % 1013,3 hPa 0,0 l/m 19,3 km/h (3 Bft) O-SO 123 14,5 C 28,5 C
18.06.2019 15:49 29,4 C 40 % 1013,4 hPa 0,0 l/m 8,0 km/h (2 Bft) S-SO 152 14,4 C 29,2 C
18.06.2019 15:48 29,3 C 40 % 1013,4 hPa 0,0 l/m 4,8 km/h (1 Bft) O-SO 122 14,3 C 29,3 C
18.06.2019 15:47 29,2 C 40 % 1013,3 hPa 0,0 l/m 1,7 km/h (1 Bft) SW 226 14,2 C 29,2 C
18.06.2019 15:46 29,3 C 40 % 1013,4 hPa 0,0 l/m 3,1 km/h (1 Bft) SW 215 14,3 C 29,3 C
18.06.2019 15:45 29,3 C 40 % 1013,4 hPa 0,0 l/m 6,5 km/h (2 Bft) S 169 14,3 C 29,3 C
18.06.2019 15:44 29,3 C 40 % 1013,4 hPa 0,0 l/m 8,0 km/h (2 Bft) SO 146 14,3 C 29,1 C
18.06.2019 15:43 29,3 C 40 % 1013,4 hPa 0,0 l/m 9,6 km/h (2 Bft) S 183 14,3 C 29,0 C
18.06.2019 15:42 29,2 C 41 % 1013,4 hPa 0,0 l/m 9,6 km/h (2 Bft) S 178 14,6 C 28,8 C
18.06.2019 15:41 29,1 C 41 % 1013,4 hPa 0,0 l/m 6,5 km/h (2 Bft) S-SW 204 14,5 C 29,1 C
18.06.2019 15:40 29,0 C 41 % 1013,4 hPa 0,0 l/m 14,4 km/h (3 Bft) S 173 14,4 C 28,2 C
18.06.2019 15:39 29,0 C 42 % 1013,3 hPa 0,0 l/m 14,4 km/h (3 Bft) SO 138 14,8 C 28,2 C
18.06.2019 15:38 28,9 C 42 % 1013,3 hPa 0,0 l/m 9,6 km/h (2 Bft) SO 127 14,7 C 28,5 C
18.06.2019 15:37 28,9 C 41 % 1013,3 hPa 0,0 l/m 1,7 km/h (1 Bft) NO 46 14,3 C 28,9 C
18.06.2019 15:36 28,9 C 41 % 1013,3 hPa 0,0 l/m 3,1 km/h (1 Bft) O-NO 67 14,3 C 28,9 C
18.06.2019 15:35 28,8 C 41 % 1013,3 hPa 0,0 l/m 4,8 km/h (1 Bft) N-NO 18 14,2 C 28,8 C
18.06.2019 15:34 28,9 C 41 % 1013,4 hPa 0,0 l/m 6,5 km/h (2 Bft) NO 53 14,3 C 28,9 C
18.06.2019 15:33 28,9 C 41 % 1013,4 hPa 0,0 l/m 17,8 km/h (3 Bft) NO 56 14,3 C 27,8 C
18.06.2019 15:32 29,0 C 41 % 1013,4 hPa 0,0 l/m 9,6 km/h (2 Bft) O 93 14,4 C 28,6 C
18.06.2019 15:31 29,1 C 41 % 1013,5 hPa 0,0 l/m 13,0 km/h (3 Bft) O-SO 103 14,5 C 28,4 C
18.06.2019 15:30 29,1 C 40 % 1013,4 hPa 0,0 l/m 16,1 km/h (3 Bft) O-NO 64 14,1 C 28,2 C
18.06.2019 15:29 29,2 C 40 % 1013,3 hPa 0,0 l/m 9,6 km/h (2 Bft) NO 50 14,2 C 28,8 C
18.06.2019 15:28 29,2 C 41 % 1013,4 hPa 0,0 l/m 11,3 km/h (2 Bft) O 94 14,6 C 28,7 C
18.06.2019 15:27 29,1 C 41 % 1013,4 hPa 0,0 l/m 3,1 km/h (1 Bft) SO 126 14,5 C 29,1 C
18.06.2019 15:26 29,0 C 41 % 1013,3 hPa 0,0 l/m 0,0 km/h (0 Bft) S-SW 213 14,4 C 29,0 C
18.06.2019 15:25 28,9 C 42 % 1013,4 hPa 0,0 l/m 6,5 km/h (2 Bft) S 191 14,7 C 28,9 C
18.06.2019 15:24 28,7 C 42 % 1013,4 hPa 0,0 l/m 8,0 km/h (2 Bft) S 170 14,5 C 28,5 C
18.06.2019 15:23 28,6 C 42 % 1013,4 hPa 0,0 l/m 4,8 km/h (1 Bft) SO 138 14,4 C 28,6 C
18.06.2019 15:22 28,4 C 42 % 1013,4 hPa 0,0 l/m 0,0 km/h (0 Bft) N-NO 16 14,2 C 28,4 C
18.06.2019 15:21 28,4 C 42 % 1013,4 hPa 0,0 l/m 3,1 km/h (1 Bft) N-NW 333 14,2 C 28,4 C
18.06.2019 15:20 28,4 C 42 % 1013,4 hPa 0,0 l/m 8,0 km/h (2 Bft) O-NO 59 14,2 C 28,2 C
18.06.2019 15:19 28,4 C 42 % 1013,4 hPa 0,0 l/m 3,1 km/h (1 Bft) S-SO 153 14,2 C 28,4 C
18.06.2019 15:18 28,4 C 41 % 1013,4 hPa 0,0 l/m 0,0 km/h (0 Bft) SO 126 13,9 C 28,4 C
18.06.2019 15:17 28,4 C 41 % 1013,4 hPa 0,0 l/m 4,8 km/h (1 Bft) NO 42 13,9 C 28,4 C
18.06.2019 15:16 28,4 C 41 % 1013,4 hPa 0,0 l/m 3,1 km/h (1 Bft) O-NO 74 13,9 C 28,4 C
18.06.2019 15:15 28,5 C 41 % 1013,4 hPa 0,0 l/m 16,1 km/h (3 Bft) O-SO 111 13,9 C 27,5 C
18.06.2019 15:14 28,5 C 41 % 1013,5 hPa 0,0 l/m 11,3 km/h (2 Bft) O-SO 106 13,9 C 27,9 C
18.06.2019 15:13 28,5 C 41 % 1013,4 hPa 0,0 l/m 4,8 km/h (1 Bft) N-NO 26 13,9 C 28,5 C
18.06.2019 15:12 28,6 C 41 % 1013,5 hPa 0,0 l/m 6,5 km/h (2 Bft) O-SO 120 14,0 C 28,6 C
18.06.2019 15:11 28,6 C 41 % 1013,5 hPa 0,0 l/m 3,1 km/h (1 Bft) O-SO 122 14,0 C 28,6 C
18.06.2019 15:10 28,8 C 40 % 1013,5 hPa 0,0 l/m 13,0 km/h (3 Bft) SO 134 13,8 C 28,1 C
18.06.2019 15:09 28,8 C 41 % 1013,5 hPa 0,0 l/m 9,6 km/h (2 Bft) O 101 14,2 C 28,4 C
18.06.2019 15:08 28,8 C 42 % 1013,5 hPa 0,0 l/m 14,4 km/h (3 Bft) O-NO 78 14,6 C 28,0 C
18.06.2019 15:07 28,8 C 41 % 1013,5 hPa 0,0 l/m 9,6 km/h (2 Bft) O 101 14,2 C 28,4 C
18.06.2019 15:06 28,8 C 41 % 1013,5 hPa 0,0 l/m 6,5 km/h (2 Bft) SO 132 14,2 C 28,8 C
18.06.2019 15:05 28,8 C 41 % 1013,6 hPa 0,0 l/m 16,1 km/h (3 Bft) O-NO 70 14,2 C 27,8 C
18.06.2019 15:04 28,9 C 41 % 1013,6 hPa 0,0 l/m 11,3 km/h (2 Bft) NO 53 14,3 C 28,3 C
18.06.2019 15:03 28,9 C 41 % 1013,6 hPa 0,0 l/m 13,0 km/h (3 Bft) O 86 14,3 C 28,2 C
18.06.2019 15:02 28,8 C 43 % 1013,6 hPa 0,0 l/m 3,1 km/h (1 Bft) O-SO 111 15,0 C 28,8 C
18.06.2019 15:01 28,6 C 43 % 1013,6 hPa 0,0 l/m 6,5 km/h (2 Bft) S-SO 148 14,8 C 28,6 C
18.06.2019 15:00 28,4 C 42 % 1013,7 hPa 0,0 l/m 4,8 km/h (1 Bft) O-SO 107 14,2 C 28,4 C
18.06.2019 14:59 28,4 C 42 % 1013,8 hPa 0,0 l/m 3,1 km/h (1 Bft) SO 137 14,2 C 28,4 C
18.06.2019 14:58 28,3 C 42 % 1013,7 hPa 0,0 l/m 4,8 km/h (1 Bft) O 91 14,1 C 28,3 C
18.06.2019 14:57 28,3 C 41 % 1013,7 hPa 0,0 l/m 3,1 km/h (1 Bft) O-SO 109 13,8 C 28,3 C
18.06.2019 14:56 28,3 C 41 % 1013,7 hPa 0,0 l/m 13,0 km/h (3 Bft) O-SO 121 13,8 C 27,5 C
18.06.2019 14:55 28,3 C 41 % 1013,7 hPa 0,0 l/m 3,1 km/h (1 Bft) S 182 13,8 C 28,3 C
18.06.2019 14:54 28,4 C 40 % 1013,9 hPa 0,0 l/m 6,5 km/h (2 Bft) NO 44 13,5 C 28,4 C
18.06.2019 14:53 28,5 C 42 % 1013,9 hPa 0,0 l/m 8,0 km/h (2 Bft) O-NO 70 14,3 C 28,3 C
18.06.2019 14:52 28,5 C 42 % 1013,9 hPa 0,0 l/m 6,5 km/h (2 Bft) O-NO 70 14,3 C 28,5 C
18.06.2019 14:51 28,4 C 43 % 1013,9 hPa 0,0 l/m 4,8 km/h (1 Bft) O-SO 108 14,6 C 28,4 C
18.06.2019 14:50 28,5 C 43 % 1014,0 hPa 0,0 l/m 13,0 km/h (3 Bft) O 100 14,7 C 27,7 C
18.06.2019 14:49 28,5 C 43 % 1013,9 hPa 0,0 l/m 14,4 km/h (3 Bft) O-SO 115 14,7 C 27,6 C
18.06.2019 14:48 28,5 C 43 % 1014,0 hPa 0,0 l/m 9,6 km/h (2 Bft) S-SO 161 14,7 C 28,1 C
18.06.2019 14:47 28,4 C 42 % 1014,0 hPa 0,0 l/m 9,6 km/h (2 Bft) SO 144 14,2 C 28,0 C
18.06.2019 14:46 28,4 C 42 % 1014,0 hPa 0,0 l/m 3,1 km/h (1 Bft) S 187 14,2 C 28,4 C
18.06.2019 14:45 28,4 C 42 % 1014,0 hPa 0,0 l/m 1,7 km/h (1 Bft) S-SO 150 14,2 C 28,4 C
18.06.2019 14:44 28,4 C 42 % 1014,0 hPa 0,0 l/m 8,0 km/h (2 Bft) SO 136 14,2 C 28,2 C
18.06.2019 14:43 28,4 C 42 % 1014,0 hPa 0,0 l/m 13,0 km/h (3 Bft) SO 132 14,2 C 27,6 C
18.06.2019 14:42 28,4 C 42 % 1014,0 hPa 0,0 l/m 8,0 km/h (2 Bft) S 178 14,2 C 28,2 C
18.06.2019 14:41 28,5 C 42 % 1014,0 hPa 0,0 l/m 8,0 km/h (2 Bft) O-NO 78 14,3 C 28,3 C
18.06.2019 14:40 28,6 C 43 % 1014,0 hPa 0,0 l/m 8,0 km/h (2 Bft) O-SO 104 14,8 C 28,4 C
18.06.2019 14:39 28,5 C 42 % 1014,0 hPa 0,0 l/m 8,0 km/h (2 Bft) SO 143 14,3 C 28,3 C
18.06.2019 14:38 28,5 C 42 % 1014,0 hPa 0,0 l/m 13,0 km/h (3 Bft) SO 142 14,3 C 27,7 C
18.06.2019 14:37 28,5 C 42 % 1014,1 hPa 0,0 l/m 4,8 km/h (1 Bft) O 95 14,3 C 28,5 C
18.06.2019 14:36 28,4 C 42 % 1014,0 hPa 0,0 l/m 9,6 km/h (2 Bft) SO 130 14,2 C 28,0 C
18.06.2019 14:35 28,4 C 44 % 1014,0 hPa 0,0 l/m 14,4 km/h (3 Bft) O 97 14,9 C 27,5 C
18.06.2019 14:34 28,3 C 44 % 1014,0 hPa 0,0 l/m 19,3 km/h (3 Bft) SO 139 14,9 C 27,0 C
18.06.2019 14:33 28,2 C 43 % 1014,0 hPa 0,0 l/m 6,5 km/h (2 Bft) SO 131 14,4 C 28,2 C
18.06.2019 14:32 28,2 C 44 % 1014,0 hPa 0,0 l/m 11,3 km/h (2 Bft) O-SO 115 14,8 C 27,5 C
18.06.2019 14:31 28,3 C 44 % 1014,1 hPa 0,0 l/m 11,3 km/h (2 Bft) O-SO 113 14,9 C 27,7 C
18.06.2019 14:30 28,3 C 44 % 1014,0 hPa 0,0 l/m 9,6 km/h (2 Bft) NO 44 14,9 C 27,9 C
18.06.2019 14:29 28,3 C 45 % 1014,1 hPa 0,0 l/m 14,4 km/h (3 Bft) O 90 15,2 C 27,4 C
18.06.2019 14:28 28,4 C 44 % 1014,0 hPa 0,0 l/m 14,4 km/h (3 Bft) O-SO 121 14,9 C 27,5 C
18.06.2019 14:27 28,5 C 44 % 1014,1 hPa 0,0 l/m 4,8 km/h (1 Bft) O 89 15,0 C 28,5 C
18.06.2019 14:26 28,6 C 44 % 1014,1 hPa 0,0 l/m 11,3 km/h (2 Bft) O 97 15,1 C 28,0 C
18.06.2019 14:25 28,8 C 44 % 1014,1 hPa 0,0 l/m 19,3 km/h (3 Bft) O-SO 121 15,3 C 27,6 C
18.06.2019 14:24 28,7 C 45 % 1014,1 hPa 0,0 l/m 9,6 km/h (2 Bft) SO 130 15,6 C 28,3 C
18.06.2019 14:23 28,6 C 45 % 1014,1 hPa 0,0 l/m 1,7 km/h (1 Bft) SO 140 15,5 C 28,6 C
18.06.2019 14:22 28,5 C 46 % 1014,1 hPa 0,0 l/m 3,1 km/h (1 Bft) SO 131 15,7 C 28,5 C
18.06.2019 14:21 28,4 C 46 % 1014,1 hPa 0,0 l/m 8,0 km/h (2 Bft) S 170 15,6 C 28,2 C
18.06.2019 14:20 28,3 C 45 % 1014,1 hPa 0,0 l/m 1,7 km/h (1 Bft) W-NW 288 15,2 C 28,3 C
18.06.2019 14:19 28,2 C 45 % 1014,2 hPa 0,0 l/m 3,1 km/h (1 Bft) O 82 15,1 C 28,2 C
18.06.2019 14:18 28,3 C 45 % 1014,2 hPa 0,0 l/m 9,6 km/h (2 Bft) SO 133 15,2 C 27,9 C
18.06.2019 14:17 28,2 C 45 % 1014,2 hPa 0,0 l/m 11,3 km/h (2 Bft) S 169 15,1 C 27,5 C
18.06.2019 14:16 28,2 C 44 % 1014,1 hPa 0,0 l/m 13,0 km/h (3 Bft) SW 217 14,8 C 27,4 C
18.06.2019 14:15 28,2 C 44 % 1014,2 hPa 0,0 l/m 11,3 km/h (2 Bft) O-SO 113 14,8 C 27,5 C
18.06.2019 14:14 28,3 C 44 % 1014,2 hPa 0,0 l/m 1,7 km/h (1 Bft) O-SO 119 14,9 C 28,3 C
18.06.2019 14:13 28,3 C 44 % 1014,2 hPa 0,0 l/m 13,0 km/h (3 Bft) O-SO 119 14,9 C 27,5 C
18.06.2019 14:12 28,4 C 45 % 1014,2 hPa 0,0 l/m 13,0 km/h (3 Bft) O-SO 116 15,3 C 27,6 C
18.06.2019 14:11 28,4 C 45 % 1014,2 hPa 0,0 l/m 8,0 km/h (2 Bft) O-SO 108 15,3 C 28,2 C
18.06.2019 14:10 28,3 C 46 % 1014,3 hPa 0,0 l/m 9,6 km/h (2 Bft) NO 53 15,6 C 27,9 C
18.06.2019 14:09 28,2 C 46 % 1014,1 hPa 0,0 l/m 9,6 km/h (2 Bft) SW 230 15,5 C 27,7 C
18.06.2019 14:08 28,2 C 45 % 1014,3 hPa 0,0 l/m 6,5 km/h (2 Bft) S-SO 151 15,1 C 28,2 C
18.06.2019 14:07 28,1 C 45 % 1014,3 hPa 0,0 l/m 4,8 km/h (1 Bft) S-SO 153 15,0 C 28,1 C
18.06.2019 14:06 28,1 C 45 % 1014,3 hPa 0,0 l/m 6,5 km/h (2 Bft) SO 130 15,0 C 28,1 C
18.06.2019 14:05 28,0 C 46 % 1014,3 hPa 0,0 l/m 6,5 km/h (2 Bft) O-SO 109 15,3 C 28,0 C
18.06.2019 14:04 27,9 C 45 % 1014,2 hPa 0,0 l/m 14,4 km/h (3 Bft) SO 138 14,8 C 26,9 C
18.06.2019 14:03 27,8 C 46 % 1014,4 hPa 0,0 l/m 4,8 km/h (1 Bft) S-SW 192 15,1 C 27,8 C
18.06.2019 14:02 27,6 C 47 % 1014,3 hPa 0,0 l/m 8,0 km/h (2 Bft) S-SW 213 15,3 C 27,3 C
18.06.2019 14:01 27,4 C 47 % 1014,3 hPa 0,0 l/m 4,8 km/h (1 Bft) SW 215 15,1 C 27,4 C
18.06.2019 14:00 27,3 C 47 % 1014,3 hPa 0,0 l/m 4,8 km/h (1 Bft) O-SO 111 15,0 C 27,3 C
18.06.2019 13:59 27,4 C 46 % 1014,3 hPa 0,0 l/m 8,0 km/h (2 Bft) SO 128 14,7 C 27,1 C
18.06.2019 13:58 27,4 C 46 % 1014,3 hPa 0,0 l/m 8,0 km/h (2 Bft) O-NO 66 14,7 C 27,1 C
18.06.2019 13:57 27,5 C 46 % 1014,4 hPa 0,0 l/m 14,4 km/h (3 Bft) O-NO 72 14,8 C 26,4 C
18.06.2019 13:56 27,4 C 46 % 1014,4 hPa 0,0 l/m 13,0 km/h (3 Bft) O-NO 65 14,7 C 26,4 C
18.06.2019 13:55 27,3 C 46 % 1014,3 hPa 0,0 l/m 4,8 km/h (1 Bft) N-NO 30 14,6 C 27,3 C
18.06.2019 13:54 27,2 C 46 % 1014,4 hPa 0,0 l/m 3,1 km/h (1 Bft) N 355 14,6 C 27,2 C
18.06.2019 13:53 27,1 C 46 % 1014,4 hPa 0,0 l/m 4,8 km/h (1 Bft) NO 51 14,5 C 27,1 C
18.06.2019 13:52 27,1 C 46 % 1014,5 hPa 0,0 l/m 3,1 km/h (1 Bft) O-NO 67 14,5 C 27,1 C
18.06.2019 13:51 27,0 C 46 % 1014,5 hPa 0,0 l/m 1,7 km/h (1 Bft) O 88 14,4 C 27,0 C
18.06.2019 13:50 27,0 C 47 % 1014,5 hPa 0,0 l/m 14,4 km/h (3 Bft) O-NO 63 14,7 C 25,8 C
18.06.2019 13:49 27,0 C 47 % 1014,5 hPa 0,0 l/m 4,8 km/h (1 Bft) N-NO 28 14,7 C 27,0 C
18.06.2019 13:48 27,0 C 47 % 1014,5 hPa 0,0 l/m 8,0 km/h (2 Bft) O-NO 68 14,7 C 26,7 C
18.06.2019 13:47 27,0 C 48 % 1014,6 hPa 0,0 l/m 0,0 km/h (0 Bft) NO 56 15,0 C 27,0 C
18.06.2019 13:46 27,0 C 47 % 1014,6 hPa 0,0 l/m 9,6 km/h (2 Bft) O 81 14,7 C 26,4 C
18.06.2019 13:45 27,1 C 47 % 1014,6 hPa 0,0 l/m 11,3 km/h (2 Bft) O-SO 112 14,8 C 26,3 C
18.06.2019 13:44 27,1 C 47 % 1014,6 hPa 0,0 l/m 13,0 km/h (3 Bft) O-NO 73 14,8 C 26,1 C
18.06.2019 13:43 27,1 C 48 % 1014,6 hPa 0,0 l/m 14,4 km/h (3 Bft) NO 41 15,1 C 25,9 C
18.06.2019 13:42 27,1 C 47 % 1014,5 hPa 0,0 l/m 14,4 km/h (3 Bft) NO 49 14,8 C 25,9 C
18.06.2019 13:41 27,2 C 47 % 1014,5 hPa 0,0 l/m 17,8 km/h (3 Bft) O 90 14,9 C 25,7 C
18.06.2019 13:40 27,1 C 47 % 1014,5 hPa 0,0 l/m 13,0 km/h (3 Bft) O-NO 78 14,8 C 26,1 C
18.06.2019 13:39 27,1 C 46 % 1014,6 hPa 0,0 l/m 13,0 km/h (3 Bft) NO 38 14,5 C 26,1 C
18.06.2019 13:38 27,1 C 47 % 1014,6 hPa 0,0 l/m 20,9 km/h (4 Bft) O 80 14,8 C 25,3 C
18.06.2019 13:37 27,0 C 48 % 1014,6 hPa 0,0 l/m 4,8 km/h (1 Bft) O 83 15,0 C 27,0 C
18.06.2019 13:36 26,9 C 47 % 1014,6 hPa 0,0 l/m 1,7 km/h (1 Bft) N 355 14,6 C 26,9 C
18.06.2019 13:35 26,9 C 47 % 1014,6 hPa 0,0 l/m 4,8 km/h (1 Bft) N 355 14,6 C 26,9 C
18.06.2019 13:34 27,0 C 47 % 1014,6 hPa 0,0 l/m 4,8 km/h (1 Bft) N-NW 346 14,7 C 27,0 C
18.06.2019 13:33 27,1 C 47 % 1014,6 hPa 0,0 l/m 13,0 km/h (3 Bft) O-NO 60 14,8 C 26,1 C
18.06.2019 13:32 27,2 C 47 % 1014,6 hPa 0,0 l/m 13,0 km/h (3 Bft) O 96 14,9 C 26,2 C
18.06.2019 13:31 27,2 C 47 % 1014,7 hPa 0,0 l/m 17,8 km/h (3 Bft) O 90 14,9 C 25,7 C
18.06.2019 13:30 27,2 C 47 % 1014,6 hPa 0,0 l/m 11,3 km/h (2 Bft) N-NO 28 14,9 C 26,4 C
18.06.2019 13:29 27,1 C 47 % 1014,7 hPa 0,0 l/m 11,3 km/h (2 Bft) N-NW 338 14,8 C 26,3 C
18.06.2019 13:28 27,1 C 47 % 1014,6 hPa 0,0 l/m 13,0 km/h (3 Bft) NO 50 14,8 C 26,1 C
18.06.2019 13:27 27,1 C 47 % 1014,6 hPa 0,0 l/m 11,3 km/h (2 Bft) O 87 14,8 C 26,3 C
18.06.2019 13:26 27,2 C 46 % 1014,6 hPa 0,0 l/m 9,6 km/h (2 Bft) O 94 14,6 C 26,7 C
18.06.2019 13:25 27,4 C 47 % 1014,6 hPa 0,0 l/m 22,6 km/h (4 Bft) O-NO 57 15,1 C 25,6 C
18.06.2019 13:24 27,4 C 47 % 1014,6 hPa 0,0 l/m 13,0 km/h (3 Bft) O-NO 63 15,1 C 26,4 C
18.06.2019 13:23 27,4 C 47 % 1014,6 hPa 0,0 l/m 13,0 km/h (3 Bft) O 89 15,1 C 26,4 C
18.06.2019 13:22 27,4 C 47 % 1014,6 hPa 0,0 l/m 20,9 km/h (4 Bft) O-NO 69 15,1 C 25,7 C
18.06.2019 13:21 27,4 C 47 % 1014,6 hPa 0,0 l/m 4,8 km/h (1 Bft) SO 140 15,1 C 27,4 C
18.06.2019 13:20 27,4 C 47 % 1014,7 hPa 0,0 l/m 13,0 km/h (3 Bft) S-SO 163 15,1 C 26,4 C
18.06.2019 13:19 27,3 C 47 % 1014,7 hPa 0,0 l/m 1,7 km/h (1 Bft) NW 312 15,0 C 27,3 C
18.06.2019 13:18 27,4 C 47 % 1014,7 hPa 0,0 l/m 20,9 km/h (4 Bft) SO 132 15,1 C 25,7 C
18.06.2019 13:17 27,3 C 48 % 1014,7 hPa 0,0 l/m 17,8 km/h (3 Bft) O-SO 107 15,3 C 25,8 C
18.06.2019 13:16 27,2 C 48 % 1014,7 hPa 0,0 l/m 6,5 km/h (2 Bft) S-SO 159 15,2 C 27,2 C
18.06.2019 13:15 27,1 C 49 % 1014,7 hPa 0,0 l/m 9,6 km/h (2 Bft) S-SW 199 15,4 C 26,5 C
18.06.2019 13:14 27,0 C 49 % 1014,7 hPa 0,0 l/m 9,6 km/h (2 Bft) O 98 15,4 C 26,4 C
18.06.2019 13:13 26,9 C 49 % 1014,7 hPa 0,0 l/m 6,5 km/h (2 Bft) S-SO 166 15,3 C 26,9 C
18.06.2019 13:12 27,0 C 49 % 1014,8 hPa 0,0 l/m 1,7 km/h (1 Bft) O 87 15,4 C 27,0 C
18.06.2019 13:11 27,1 C 48 % 1014,9 hPa 0,0 l/m 11,3 km/h (2 Bft) O-SO 105 15,1 C 26,3 C
18.06.2019 13:10 27,3 C 48 % 1014,9 hPa 0,0 l/m 20,9 km/h (4 Bft) O 86 15,3 C 25,6 C
18.06.2019 13:09 27,3 C 49 % 1014,9 hPa 0,0 l/m 11,3 km/h (2 Bft) O 88 15,6 C 26,5 C
18.06.2019 13:08 27,3 C 49 % 1014,9 hPa 0,0 l/m 6,5 km/h (2 Bft) S 182 15,6 C 27,3 C
18.06.2019 13:07 27,3 C 49 % 1014,9 hPa 0,0 l/m 6,5 km/h (2 Bft) S-SO 150 15,6 C 27,3 C
18.06.2019 13:06 27,3 C 49 % 1014,9 hPa 0,0 l/m 9,6 km/h (2 Bft) S 183 15,6 C 26,8 C
18.06.2019 13:05 27,1 C 49 % 1014,9 hPa 0,0 l/m 6,5 km/h (2 Bft) SO 145 15,4 C 27,1 C
18.06.2019 13:04 27,0 C 49 % 1015,0 hPa 0,0 l/m 8,0 km/h (2 Bft) O-SO 115 15,4 C 26,7 C
18.06.2019 13:03 26,9 C 49 % 1015,0 hPa 0,0 l/m 0,0 km/h (0 Bft) N-NW 333 15,3 C 26,9 C
18.06.2019 13:02 26,7 C 50 % 1015,0 hPa 0,0 l/m 1,7 km/h (1 Bft) N-NW 333 15,4 C 26,7 C
18.06.2019 13:01 26,6 C 49 % 1015,0 hPa 0,0 l/m 14,4 km/h (3 Bft) O-NO 61 15,0 C 25,3 C
18.06.2019 13:00 26,6 C 49 % 1015,1 hPa 0,0 l/m 13,0 km/h (3 Bft) O 80 15,0 C 25,5 C
18.06.2019 12:59 26,5 C 49 % 1015,0 hPa 0,0 l/m 6,5 km/h (2 Bft) O-NO 76 14,9 C 26,5 C
18.06.2019 12:58 26,5 C 48 % 1015,0 hPa 0,0 l/m 8,0 km/h (2 Bft) O 85 14,6 C 26,2 C
18.06.2019 12:57 26,5 C 49 % 1015,0 hPa 0,0 l/m 4,8 km/h (1 Bft) O 99 14,9 C 26,5 C
18.06.2019 12:56 26,3 C 50 % 1015,1 hPa 0,0 l/m 6,5 km/h (2 Bft) NO 54 15,0 C 26,3 C
18.06.2019 12:55 26,3 C 50 % 1015,1 hPa 0,0 l/m 4,8 km/h (1 Bft) O-SO 105 15,0 C 26,3 C
18.06.2019 12:54 26,3 C 50 % 1015,1 hPa 0,0 l/m 13,0 km/h (3 Bft) NO 47 15,0 C 25,1 C
18.06.2019 12:53 26,2 C 51 % 1015,1 hPa 0,0 l/m 13,0 km/h (3 Bft) O-NO 71 15,2 C 25,0 C
18.06.2019 12:52 26,1 C 51 % 1015,1 hPa 0,0 l/m 11,3 km/h (2 Bft) O-NO 57 15,2 C 25,2 C
18.06.2019 12:51 26,2 C 50 % 1015,2 hPa 0,0 l/m 17,8 km/h (3 Bft) NO 55 14,9 C 24,4 C
18.06.2019 12:50 26,3 C 50 % 1015,1 hPa 0,0 l/m 8,0 km/h (2 Bft) O 94 15,0 C 26,0 C
18.06.2019 12:49 26,3 C 51 % 1015,1 hPa 0,0 l/m 17,8 km/h (3 Bft) O-NO 70 15,3 C 24,6 C
18.06.2019 12:48 26,2 C 51 % 1015,1 hPa 0,0 l/m 11,3 km/h (2 Bft) O-NO 63 15,2 C 25,3 C
18.06.2019 12:47 26,1 C 50 % 1015,1 hPa 0,0 l/m 9,6 km/h (2 Bft) O 81 14,8 C 25,4 C
18.06.2019 12:46 26,2 C 50 % 1015,2 hPa 0,0 l/m 13,0 km/h (3 Bft) O-NO 64 14,9 C 25,0 C
18.06.2019 12:45 26,2 C 50 % 1015,2 hPa 0,0 l/m 9,6 km/h (2 Bft) O 80 14,9 C 25,6 C
18.06.2019 12:44 26,2 C 50 % 1015,2 hPa 0,0 l/m 11,3 km/h (2 Bft) NO 39 14,9 C 25,3 C
18.06.2019 12:43 26,1 C 50 % 1015,2 hPa 0,0 l/m 4,8 km/h (1 Bft) NO 39 14,8 C 26,1 C
18.06.2019 12:42 26,1 C 50 % 1015,1 hPa 0,0 l/m 11,3 km/h (2 Bft) O 96 14,8 C 25,2 C
18.06.2019 12:41 26,0 C 49 % 1015,2 hPa 0,0 l/m 11,3 km/h (2 Bft) O-SO 107 14,4 C 25,0 C
18.06.2019 12:40 26,1 C 50 % 1015,2 hPa 0,0 l/m 22,6 km/h (4 Bft) O 96 14,8 C 23,8 C
18.06.2019 12:39 26,1 C 50 % 1015,2 hPa 0,0 l/m 14,4 km/h (3 Bft) O-NO 71 14,8 C 24,7 C
18.06.2019 12:38 26,2 C 51 % 1015,2 hPa 0,0 l/m 8,0 km/h (2 Bft) O-NO 72 15,2 C 25,9 C
18.06.2019 12:37 26,2 C 51 % 1015,2 hPa 0,0 l/m 6,5 km/h (2 Bft) O-NO 57 15,2 C 26,2 C
18.06.2019 12:36 26,1 C 51 % 1015,2 hPa 0,0 l/m 8,0 km/h (2 Bft) SO 135 15,2 C 25,8 C
18.06.2019 12:35 26,1 C 50 % 1015,2 hPa 0,0 l/m 17,8 km/h (3 Bft) O-SO 109 14,8 C 24,3 C
18.06.2019 12:34 26,2 C 50 % 1015,2 hPa 0,0 l/m 6,5 km/h (2 Bft) S-SO 151 14,9 C 26,2 C
18.06.2019 12:33 26,2 C 51 % 1015,3 hPa 0,0 l/m 17,8 km/h (3 Bft) SO 132 15,2 C 24,4 C
18.06.2019 12:32 26,2 C 51 % 1015,2 hPa 0,0 l/m 11,3 km/h (2 Bft) SO 141 15,2 C 25,3 C
18.06.2019 12:31 26,1 C 52 % 1015,2 hPa 0,0 l/m 11,3 km/h (2 Bft) O 84 15,5 C 25,2 C
18.06.2019 12:30 26,0 C 52 % 1015,2 hPa 0,0 l/m 16,1 km/h (3 Bft) O 86 15,4 C 24,4 C
18.06.2019 12:29 25,9 C 52 % 1015,2 hPa 0,0 l/m 6,5 km/h (2 Bft) O-SO 115 15,3 C 25,9 C
18.06.2019 12:28 25,9 C 51 % 1015,3 hPa 0,0 l/m 14,4 km/h (3 Bft) O 95 15,0 C 24,5 C
18.06.2019 12:27 25,9 C 51 % 1015,2 hPa 0,0 l/m 4,8 km/h (1 Bft) SO 133 15,0 C 25,9 C
18.06.2019 12:26 25,9 C 51 % 1015,3 hPa 0,0 l/m 4,8 km/h (1 Bft) SO 136 15,0 C 25,9 C
18.06.2019 12:25 25,9 C 52 % 1015,4 hPa 0,0 l/m 13,0 km/h (3 Bft) SO 127 15,3 C 24,7 C
18.06.2019 12:24 25,8 C 52 % 1015,3 hPa 0,0 l/m 9,6 km/h (2 Bft) S 178 15,2 C 25,1 C
18.06.2019 12:23 25,8 C 51 % 1015,4 hPa 0,0 l/m 9,6 km/h (2 Bft) SO 141 14,9 C 25,1 C
18.06.2019 12:22 25,8 C 51 % 1015,4 hPa 0,0 l/m 8,0 km/h (2 Bft) S-SO 157 14,9 C 25,4 C
18.06.2019 12:21 25,8 C 51 % 1015,4 hPa 0,0 l/m 3,1 km/h (1 Bft) O 97 14,9 C 25,8 C
18.06.2019 12:20 25,8 C 51 % 1015,5 hPa 0,0 l/m 9,6 km/h (2 Bft) O 84 14,9 C 25,1 C
18.06.2019 12:19 25,7 C 52 % 1015,5 hPa 0,0 l/m 13,0 km/h (3 Bft) O 85 15,1 C 24,4 C
18.06.2019 12:18 25,6 C 53 % 1015,4 hPa 0,0 l/m 17,8 km/h (3 Bft) O 99 15,3 C 23,7 C
18.06.2019 12:17 25,6 C 53 % 1015,5 hPa 0,0 l/m 19,3 km/h (3 Bft) O-NO 77 15,3 C 23,5 C
18.06.2019 12:16 25,6 C 52 % 1015,5 hPa 0,0 l/m 6,5 km/h (2 Bft) O-NO 62 15,0 C 25,6 C
18.06.2019 12:15 25,6 C 52 % 1015,5 hPa 0,0 l/m 11,3 km/h (2 Bft) NO 53 15,0 C 24,6 C
18.06.2019 12:14 25,6 C 52 % 1015,5 hPa 0,0 l/m 13,0 km/h (3 Bft) O 89 15,0 C 24,3 C
18.06.2019 12:13 25,6 C 52 % 1015,5 hPa 0,0 l/m 16,1 km/h (3 Bft) O 84 15,0 C 23,9 C
18.06.2019 12:12 25,6 C 54 % 1015,6 hPa 0,0 l/m 13,0 km/h (3 Bft) O 98 15,6 C 24,3 C
18.06.2019 12:11 25,5 C 54 % 1015,6 hPa 0,0 l/m 11,3 km/h (2 Bft) SO 140 15,5 C 24,5 C
18.06.2019 12:10 25,4 C 54 % 1015,6 hPa 0,0 l/m 14,4 km/h (3 Bft) O-SO 112 15,4 C 23,9 C
18.06.2019 12:09 25,4 C 53 % 1015,5 hPa 0,0 l/m 6,5 km/h (2 Bft) SO 130 15,1 C 25,4 C
18.06.2019 12:08 25,4 C 53 % 1015,5 hPa 0,0 l/m 17,8 km/h (3 Bft) O-SO 121 15,1 C 23,4 C
18.06.2019 12:07 25,4 C 53 % 1015,5 hPa 0,0 l/m 11,3 km/h (2 Bft) S 174 15,1 C 24,4 C
18.06.2019 12:06 25,3 C 54 % 1015,5 hPa 0,0 l/m 16,1 km/h (3 Bft) S 169 15,3 C 23,5 C
18.06.2019 12:05 25,3 C 54 % 1015,5 hPa 0,0 l/m 14,4 km/h (3 Bft) SO 126 15,3 C 23,8 C
18.06.2019 12:04 25,3 C 54 % 1015,5 hPa 0,0 l/m 11,3 km/h (2 Bft) O 79 15,3 C 24,3 C
18.06.2019 12:03 25,3 C 53 % 1015,6 hPa 0,0 l/m 16,1 km/h (3 Bft) O-SO 121 15,0 C 23,5 C
18.06.2019 12:02 25,3 C 54 % 1015,6 hPa 0,0 l/m 4,8 km/h (1 Bft) O-SO 117 15,3 C 25,3 C
18.06.2019 12:01 25,2 C 53 % 1015,6 hPa 0,0 l/m 8,0 km/h (2 Bft) S-SO 167 14,9 C 24,8 C
18.06.2019 12:00 25,1 C 54 % 1015,6 hPa 0,0 l/m 13,0 km/h (3 Bft) O-NO 74 15,1 C 23,7 C
18.06.2019 11:59 25,1 C 54 % 1015,6 hPa 0,0 l/m 16,1 km/h (3 Bft) O 82 15,1 C 23,3 C
18.06.2019 11:58 25,0 C 54 % 1015,6 hPa 0,0 l/m 13,0 km/h (3 Bft) NO 48 15,0 C 23,6 C
18.06.2019 11:57 25,0 C 54 % 1015,7 hPa 0,0 l/m 20,9 km/h (4 Bft) O 88 15,0 C 22,6 C
18.06.2019 11:56 25,0 C 54 % 1015,6 hPa 0,0 l/m 17,8 km/h (3 Bft) O 84 15,0 C 22,9 C
18.06.2019 11:55 24,9 C 54 % 1015,6 hPa 0,0 l/m 19,3 km/h (3 Bft) O-SO 104 14,9 C 22,6 C
18.06.2019 11:54 24,9 C 54 % 1015,6 hPa 0,0 l/m 22,6 km/h (4 Bft) O-NO 63 14,9 C 22,3 C
18.06.2019 11:53 24,9 C 54 % 1015,6 hPa 0,0 l/m 16,1 km/h (3 Bft) O 80 14,9 C 23,0 C
18.06.2019 11:52 24,9 C 53 % 1015,7 hPa 0,0 l/m 14,4 km/h (3 Bft) O-SO 123 14,6 C 23,3 C
18.06.2019 11:51 25,0 C 54 % 1015,7 hPa 0,0 l/m 27,4 km/h (4 Bft) O 83 15,0 C 22,0 C
18.06.2019 11:50 25,0 C 54 % 1015,7 hPa 0,0 l/m 19,3 km/h (3 Bft) O-NO 78 15,0 C 22,7 C
18.06.2019 11:49 25,1 C 54 % 1015,7 hPa 0,0 l/m 16,1 km/h (3 Bft) O-NO 59 15,1 C 23,3 C
18.06.2019 11:48 25,1 C 54 % 1015,7 hPa 0,0 l/m 17,8 km/h (3 Bft) O 96 15,1 C 23,1 C
18.06.2019 11:47 25,0 C 55 % 1015,7 hPa 0,0 l/m 8,0 km/h (2 Bft) SO 130 15,3 C 24,6 C
18.06.2019 11:46 25,0 C 55 % 1015,7 hPa 0,0 l/m 13,0 km/h (3 Bft) S-SO 162 15,3 C 23,6 C
18.06.2019 11:45 24,9 C 55 % 1015,7 hPa 0,0 l/m 11,3 km/h (2 Bft) S-SO 157 15,2 C 23,8 C
18.06.2019 11:44 24,9 C 55 % 1015,7 hPa 0,0 l/m 14,4 km/h (3 Bft) O-NO 64 15,2 C 23,3 C
18.06.2019 11:43 24,9 C 56 % 1015,7 hPa 0,0 l/m 20,9 km/h (4 Bft) SO 140 15,5 C 22,4 C
18.06.2019 11:42 24,8 C 56 % 1015,7 hPa 0,0 l/m 11,3 km/h (2 Bft) O-SO 104 15,4 C 23,7 C
18.06.2019 11:41 24,8 C 56 % 1015,7 hPa 0,0 l/m 4,8 km/h (1 Bft) O-SO 119 15,4 C 24,8 C
18.06.2019 11:40 24,7 C 55 % 1015,7 hPa 0,0 l/m 13,0 km/h (3 Bft) NO 47 15,0 C 23,3 C
18.06.2019 11:39 24,6 C 56 % 1015,8 hPa 0,0 l/m 9,6 km/h (2 Bft) O 80 15,2 C 23,8 C
18.06.2019 11:38 24,5 C 56 % 1015,7 hPa 0,0 l/m 13,0 km/h (3 Bft) O 98 15,1 C 23,0 C
18.06.2019 11:37 24,5 C 55 % 1015,8 hPa 0,0 l/m 8,0 km/h (2 Bft) NO 41 14,9 C 24,1 C
18.06.2019 11:36 24,6 C 55 % 1015,8 hPa 0,0 l/m 14,4 km/h (3 Bft) O 80 14,9 C 22,9 C
18.06.2019 11:35 24,6 C 55 % 1015,8 hPa 0,0 l/m 13,0 km/h (3 Bft) O 84 14,9 C 23,1 C
18.06.2019 11:34 24,7 C 54 % 1015,9 hPa 0,0 l/m 16,1 km/h (3 Bft) O-NO 69 14,8 C 22,8 C
18.06.2019 11:33 24,7 C 54 % 1015,9 hPa 0,0 l/m 20,9 km/h (4 Bft) O-NO 69 14,8 C 22,2 C
18.06.2019 11:32 24,8 C 54 % 1015,9 hPa 0,0 l/m 27,4 km/h (4 Bft) O 101 14,8 C 21,7 C
18.06.2019 11:31 24,7 C 55 % 1015,8 hPa 0,0 l/m 13,0 km/h (3 Bft) O 87 15,0 C 23,3 C
18.06.2019 11:29 24,6 C 56 % 1015,8 hPa 0,0 l/m 16,1 km/h (3 Bft) O-SO 119 15,2 C 22,7 C
18.06.2019 11:28 24,5 C 55 % 1015,8 hPa 0,0 l/m 20,9 km/h (4 Bft) O-NO 69 14,9 C 21,9 C
18.06.2019 11:27 24,5 C 55 % 1015,9 hPa 0,0 l/m 14,4 km/h (3 Bft) O 95 14,9 C 22,8 C
18.06.2019 11:25 24,5 C 56 % 1016,0 hPa 0,0 l/m 16,1 km/h (3 Bft) O 81 15,1 C 22,5 C
18.06.2019 11:24 24,5 C 55 % 1015,9 hPa 0,0 l/m 19,3 km/h (3 Bft) O-SO 116 14,9 C 22,1 C
18.06.2019 11:23 24,5 C 56 % 1016,1 hPa 0,0 l/m 17,8 km/h (3 Bft) O-SO 106 15,1 C 22,3 C
18.06.2019 11:22 24,5 C 56 % 1016,0 hPa 0,0 l/m 20,9 km/h (4 Bft) SO 124 15,1 C 21,9 C
18.06.2019 11:21 24,5 C 55 % 1015,9 hPa 0,0 l/m 16,1 km/h (3 Bft) O 100 14,9 C 22,5 C
18.06.2019 11:20 24,5 C 55 % 1016,1 hPa 0,0 l/m 16,1 km/h (3 Bft) SO 136 14,9 C 22,5 C
18.06.2019 11:19 24,6 C 56 % 1016,0 hPa 0,0 l/m 27,4 km/h (4 Bft) O-SO 122 15,2 C 21,4 C
18.06.2019 11:18 24,5 C 56 % 1016,1 hPa 0,0 l/m 14,4 km/h (3 Bft) O-NO 68 15,1 C 22,8 C
18.06.2019 11:17 24,5 C 56 % 1016,1 hPa 0,0 l/m 13,0 km/h (3 Bft) SO 131 15,1 C 23,0 C
18.06.2019 11:16 24,4 C 56 % 1016,0 hPa 0,0 l/m 17,8 km/h (3 Bft) S-SO 153 15,0 C 22,2 C
18.06.2019 11:15 24,4 C 56 % 1016,1 hPa 0,0 l/m 17,8 km/h (3 Bft) S 189 15,0 C 22,2 C
18.06.2019 11:14 24,3 C 56 % 1016,1 hPa 0,0 l/m 11,3 km/h (2 Bft) S-SW 204 14,9 C 23,1 C
18.06.2019 11:13 24,3 C 56 % 1016,1 hPa 0,0 l/m 13,0 km/h (3 Bft) SO 131 14,9 C 22,8 C
18.06.2019 11:12 24,2 C 56 % 1016,1 hPa 0,0 l/m 16,1 km/h (3 Bft) SO 142 14,9 C 22,2 C
18.06.2019 11:11 24,2 C 56 % 1016,1 hPa 0,0 l/m 13,0 km/h (3 Bft) S-SO 148 14,9 C 22,7 C
18.06.2019 11:10 24,3 C 56 % 1016,1 hPa 0,0 l/m 24,1 km/h (4 Bft) O-SO 117 14,9 C 21,3 C
18.06.2019 11:09 24,2 C 56 % 1016,1 hPa 0,0 l/m 9,6 km/h (2 Bft) N-NO 29 14,9 C 23,4 C
18.06.2019 11:08 24,1 C 56 % 1016,0 hPa 0,0 l/m 17,8 km/h (3 Bft) SO 138 14,8 C 21,8 C
18.06.2019 11:07 24,1 C 56 % 1016,1 hPa 0,0 l/m 8,0 km/h (2 Bft) O-NO 78 14,8 C 23,7 C
18.06.2019 11:06 24,1 C 56 % 1016,1 hPa 0,0 l/m 19,3 km/h (3 Bft) SO 124 14,8 C 21,6 C
18.06.2019 11:05 24,0 C 57 % 1016,1 hPa 0,0 l/m 27,4 km/h (4 Bft) O-SO 112 14,9 C 20,6 C
18.06.2019 11:04 24,0 C 56 % 1016,1 hPa 0,0 l/m 20,9 km/h (4 Bft) O 86 14,7 C 21,3 C
18.06.2019 11:03 24,0 C 56 % 1016,0 hPa 0,0 l/m 24,1 km/h (4 Bft) O 94 14,7 C 20,9 C
18.06.2019 11:02 24,0 C 56 % 1016,0 hPa 0,0 l/m 16,1 km/h (3 Bft) O 81 14,7 C 21,9 C
18.06.2019 11:01 24,0 C 56 % 1016,1 hPa 0,0 l/m 16,1 km/h (3 Bft) O-NO 76 14,7 C 21,9 C
18.06.2019 11:00 24,0 C 56 % 1016,0 hPa 0,0 l/m 20,9 km/h (4 Bft) O 94 14,7 C 21,3 C
18.06.2019 10:59 24,0 C 56 % 1016,1 hPa 0,0 l/m 22,6 km/h (4 Bft) O 95 14,7 C 21,1 C
18.06.2019 10:58 24,0 C 57 % 1016,1 hPa 0,0 l/m 27,4 km/h (4 Bft) O 96 14,9 C 20,6 C
18.06.2019 10:57 24,0 C 56 % 1016,0 hPa 0,0 l/m 17,8 km/h (3 Bft) O 98 14,7 C 21,7 C
18.06.2019 10:56 23,9 C 56 % 1016,0 hPa 0,0 l/m 9,6 km/h (2 Bft) O 92 14,6 C 23,0 C
18.06.2019 10:55 24,0 C 56 % 1016,0 hPa 0,0 l/m 11,3 km/h (2 Bft) O 86 14,7 C 22,8 C
18.06.2019 10:54 24,0 C 56 % 1016,1 hPa 0,0 l/m 22,6 km/h (4 Bft) O-SO 111 14,7 C 21,1 C
18.06.2019 10:53 24,1 C 56 % 1016,1 hPa 0,0 l/m 28,9 km/h (5 Bft) O-SO 107 14,8 C 20,6 C
18.06.2019 10:52 24,1 C 56 % 1016,1 hPa 0,0 l/m 25,7 km/h (4 Bft) SO 128 14,8 C 20,9 C
18.06.2019 10:51 24,2 C 56 % 1016,1 hPa 0,0 l/m 27,4 km/h (4 Bft) O-SO 112 14,9 C 20,8 C
18.06.2019 10:50 24,1 C 57 % 1016,1 hPa 0,0 l/m 24,1 km/h (4 Bft) SO 138 15,0 C 21,0 C
18.06.2019 10:49 24,1 C 56 % 1016,0 hPa 0,0 l/m 14,4 km/h (3 Bft) O-SO 113 14,8 C 22,3 C
18.06.2019 10:48 24,1 C 56 % 1016,1 hPa 0,0 l/m 13,0 km/h (3 Bft) O-SO 118 14,8 C 22,6 C
18.06.2019 10:47 24,1 C 55 % 1016,1 hPa 0,0 l/m 24,1 km/h (4 Bft) O-SO 119 14,5 C 21,0 C
18.06.2019 10:46 24,1 C 57 % 1016,1 hPa 0,0 l/m 24,1 km/h (4 Bft) SO 124 15,0 C 21,0 C
18.06.2019 10:45 24,1 C 57 % 1016,1 hPa 0,0 l/m 17,8 km/h (3 Bft) SO 140 15,0 C 21,8 C
18.06.2019 10:44 24,0 C 57 % 1016,1 hPa 0,0 l/m 13,0 km/h (3 Bft) O 91 14,9 C 22,4 C
18.06.2019 10:43 23,9 C 57 % 1016,1 hPa 0,0 l/m 13,0 km/h (3 Bft) O-SO 103 14,9 C 22,3 C
18.06.2019 10:42 23,9 C 56 % 1016,1 hPa 0,0 l/m 22,6 km/h (4 Bft) O 94 14,6 C 20,9 C
18.06.2019 10:41 24,0 C 57 % 1016,1 hPa 0,0 l/m 20,9 km/h (4 Bft) O 80 14,9 C 21,3 C
18.06.2019 10:40 24,0 C 57 % 1016,2 hPa 0,0 l/m 20,9 km/h (4 Bft) O-NO 75 14,9 C 21,3 C
18.06.2019 10:39 24,0 C 57 % 1016,1 hPa 0,0 l/m 19,3 km/h (3 Bft) O-SO 102 14,9 C 21,5 C
18.06.2019 10:38 24,0 C 56 % 1016,1 hPa 0,0 l/m 24,1 km/h (4 Bft) O 88 14,7 C 20,9 C
18.06.2019 10:37 23,9 C 57 % 1016,2 hPa 0,0 l/m 28,9 km/h (5 Bft) O 92 14,9 C 20,3 C
18.06.2019 10:36 23,9 C 57 % 1016,2 hPa 0,0 l/m 16,1 km/h (3 Bft) O-NO 69 14,9 C 21,8 C
18.06.2019 10:35 23,8 C 57 % 1016,1 hPa 0,0 l/m 14,4 km/h (3 Bft) SO 146 14,8 C 22,0 C
18.06.2019 10:34 23,7 C 58 % 1016,1 hPa 0,0 l/m 16,1 km/h (3 Bft) O-SO 117 14,9 C 21,6 C
18.06.2019 10:33 23,6 C 58 % 1016,2 hPa 0,0 l/m 9,6 km/h (2 Bft) O 81 14,8 C 22,7 C
18.06.2019 10:32 23,5 C 58 % 1016,3 hPa 0,0 l/m 17,8 km/h (3 Bft) O-SO 111 14,7 C 21,0 C
18.06.2019 10:31 23,4 C 58 % 1016,2 hPa 0,0 l/m 14,4 km/h (3 Bft) O-SO 121 14,7 C 21,5 C
18.06.2019 10:30 23,3 C 58 % 1016,2 hPa 0,0 l/m 14,4 km/h (3 Bft) O-NO 76 14,6 C 21,4 C
18.06.2019 10:29 23,3 C 58 % 1016,2 hPa 0,0 l/m 30,6 km/h (5 Bft) O 86 14,6 C 19,3 C
18.06.2019 10:28 23,2 C 58 % 1016,3 hPa 0,0 l/m 11,3 km/h (2 Bft) SO 139 14,5 C 21,9 C
18.06.2019 10:27 23,1 C 58 % 1016,3 hPa 0,0 l/m 16,1 km/h (3 Bft) NO 56 14,4 C 20,8 C
18.06.2019 10:26 23,1 C 57 % 1016,2 hPa 0,0 l/m 30,6 km/h (5 Bft) O 82 14,1 C 19,0 C
18.06.2019 10:25 23,2 C 57 % 1016,3 hPa 0,0 l/m 22,6 km/h (4 Bft) O 94 14,2 C 20,0 C
18.06.2019 10:24 23,2 C 57 % 1016,2 hPa 0,0 l/m 20,9 km/h (4 Bft) O-NO 65 14,2 C 20,2 C
18.06.2019 10:23 23,3 C 57 % 1016,4 hPa 0,0 l/m 28,9 km/h (5 Bft) O 86 14,3 C 19,5 C
18.06.2019 10:22 23,4 C 57 % 1016,3 hPa 0,0 l/m 17,8 km/h (3 Bft) O 90 14,4 C 20,9 C
18.06.2019 10:21 23,3 C 58 % 1016,4 hPa 0,0 l/m 13,0 km/h (3 Bft) O 94 14,6 C 21,6 C
18.06.2019 10:20 23,1 C 58 % 1016,3 hPa 0,0 l/m 9,6 km/h (2 Bft) O 90 14,4 C 22,2 C
18.06.2019 10:19 23,1 C 58 % 1016,4 hPa 0,0 l/m 16,1 km/h (3 Bft) O 88 14,4 C 20,8 C
18.06.2019 10:18 23,1 C 58 % 1016,4 hPa 0,0 l/m 22,6 km/h (4 Bft) O-NO 71 14,4 C 19,9 C
18.06.2019 10:17 23,1 C 58 % 1016,4 hPa 0,0 l/m 14,4 km/h (3 Bft) O-SO 108 14,4 C 21,1 C
18.06.2019 10:16 23,2 C 57 % 1016,4 hPa 0,0 l/m 20,9 km/h (4 Bft) O-NO 77 14,2 C 20,2 C
18.06.2019 10:15 23,2 C 58 % 1016,4 hPa 0,0 l/m 22,6 km/h (4 Bft) O 83 14,5 C 20,0 C
18.06.2019 10:14 23,1 C 58 % 1016,4 hPa 0,0 l/m 9,6 km/h (2 Bft) O 96 14,4 C 22,2 C
18.06.2019 10:13 23,2 C 58 % 1016,4 hPa 0,0 l/m 16,1 km/h (3 Bft) S-SO 148 14,5 C 20,9 C
18.06.2019 10:12 23,1 C 58 % 1016,4 hPa 0,0 l/m 16,1 km/h (3 Bft) O-SO 119 14,4 C 20,8 C
18.06.2019 10:11 23,2 C 58 % 1016,4 hPa 0,0 l/m 17,8 km/h (3 Bft) O-SO 110 14,5 C 20,7 C
18.06.2019 10:10 23,2 C 58 % 1016,5 hPa 0,0 l/m 28,9 km/h (5 Bft) O-SO 112 14,5 C 19,3 C
18.06.2019 10:09 23,1 C 58 % 1016,4 hPa 0,0 l/m 17,8 km/h (3 Bft) O 91 14,4 C 20,5 C
18.06.2019 10:08 23,1 C 59 % 1016,4 hPa 0,0 l/m 6,5 km/h (2 Bft) O-SO 123 14,6 C 23,1 C
18.06.2019 10:07 23,0 C 59 % 1016,5 hPa 0,0 l/m 14,4 km/h (3 Bft) O-NO 67 14,5 C 21,0 C
18.06.2019 10:06 23,0 C 60 % 1016,4 hPa 0,0 l/m 16,1 km/h (3 Bft) SO 127 14,8 C 20,7 C
18.06.2019 10:05 22,9 C 60 % 1016,4 hPa 0,0 l/m 8,0 km/h (2 Bft) SO 126 14,7 C 22,4 C
18.06.2019 10:04 22,9 C 59 % 1016,4 hPa 0,0 l/m 22,6 km/h (4 Bft) O 90 14,5 C 19,6 C
18.06.2019 10:03 22,8 C 59 % 1016,5 hPa 0,0 l/m 13,0 km/h (3 Bft) O-NO 75 14,4 C 21,0 C
18.06.2019 10:01 22,8 C 59 % 1016,4 hPa 0,0 l/m 11,3 km/h (2 Bft) NO 49 14,4 C 21,4 C
18.06.2019 10:00 22,9 C 60 % 1016,4 hPa 0,0 l/m 20,9 km/h (4 Bft) O 84 14,7 C 19,8 C
18.06.2019 09:59 22,9 C 61 % 1016,4 hPa 0,0 l/m 13,0 km/h (3 Bft) O 81 15,0 C 21,2 C
18.06.2019 09:58 22,7 C 61 % 1016,4 hPa 0,0 l/m 11,3 km/h (2 Bft) O-NO 70 14,8 C 21,3 C
18.06.2019 09:57 22,5 C 62 % 1016,4 hPa 0,0 l/m 6,5 km/h (2 Bft) O-SO 116 14,8 C 22,5 C
18.06.2019 09:56 22,4 C 61 % 1016,4 hPa 0,0 l/m 8,0 km/h (2 Bft) SO 140 14,5 C 21,9 C
18.06.2019 09:55 22,3 C 61 % 1016,4 hPa 0,0 l/m 8,0 km/h (2 Bft) O 84 14,4 C 21,8 C
18.06.2019 09:54 22,3 C 61 % 1016,4 hPa 0,0 l/m 14,4 km/h (3 Bft) O 88 14,4 C 20,2 C
18.06.2019 09:53 22,4 C 60 % 1016,5 hPa 0,0 l/m 17,8 km/h (3 Bft) O 96 14,2 C 19,7 C
18.06.2019 09:52 22,4 C 61 % 1016,5 hPa 0,0 l/m 19,3 km/h (3 Bft) O-NO 71 14,5 C 19,4 C
18.06.2019 09:51 22,3 C 62 % 1016,5 hPa 0,0 l/m 13,0 km/h (3 Bft) O 86 14,7 C 20,5 C
18.06.2019 09:50 22,1 C 62 % 1016,5 hPa 0,0 l/m 11,3 km/h (2 Bft) SW 228 14,5 C 20,6 C
18.06.2019 09:49 22,1 C 62 % 1016,5 hPa 0,0 l/m 11,3 km/h (2 Bft) O-NO 76 14,5 C 20,6 C
18.06.2019 09:48 22,1 C 61 % 1016,4 hPa 0,0 l/m 14,4 km/h (3 Bft) O 86 14,2 C 19,9 C
18.06.2019 09:47 22,1 C 62 % 1016,4 hPa 0,0 l/m 14,4 km/h (3 Bft) O 86 14,5 C 19,9 C
18.06.2019 09:46 22,0 C 62 % 1016,4 hPa 0,0 l/m 6,5 km/h (2 Bft) O-NO 67 14,4 C 22,0 C
18.06.2019 09:45 22,0 C 62 % 1016,5 hPa 0,0 l/m 11,3 km/h (2 Bft) O-SO 118 14,4 C 20,5 C
18.06.2019 09:44 21,9 C 62 % 1016,4 hPa 0,0 l/m 11,3 km/h (2 Bft) O-NO 74 14,3 C 20,4 C
18.06.2019 09:43 21,9 C 62 % 1016,4 hPa 0,0 l/m 13,0 km/h (3 Bft) O 84 14,3 C 20,0 C
18.06.2019 09:42 21,9 C 62 % 1016,4 hPa 0,0 l/m 14,4 km/h (3 Bft) O 94 14,3 C 19,7 C
18.06.2019 09:41 21,9 C 62 % 1016,5 hPa 0,0 l/m 4,8 km/h (1 Bft) S-SO 153 14,3 C 21,9 C
18.06.2019 09:40 21,9 C 62 % 1016,4 hPa 0,0 l/m 11,3 km/h (2 Bft) O-NO 69 14,3 C 20,4 C
18.06.2019 09:39 21,9 C 62 % 1016,4 hPa 0,0 l/m 20,9 km/h (4 Bft) O-SO 111 14,3 C 18,5 C
18.06.2019 09:38 21,9 C 62 % 1016,4 hPa 0,0 l/m 14,4 km/h (3 Bft) NO 55 14,3 C 19,7 C
18.06.2019 09:37 21,9 C 62 % 1016,4 hPa 0,0 l/m 19,3 km/h (3 Bft) O-SO 117 14,3 C 18,8 C
18.06.2019 09:36 21,9 C 62 % 1016,4 hPa 0,0 l/m 11,3 km/h (2 Bft) SO 142 14,3 C 20,4 C
18.06.2019 09:35 21,8 C 62 % 1016,4 hPa 0,0 l/m 11,3 km/h (2 Bft) O-SO 102 14,2 C 20,3 C
18.06.2019 09:34 21,8 C 62 % 1016,4 hPa 0,0 l/m 6,5 km/h (2 Bft) S-SO 150 14,2 C 21,8 C
18.06.2019 09:33 21,8 C 62 % 1016,4 hPa 0,0 l/m 16,1 km/h (3 Bft) SO 138 14,2 C 19,2 C
18.06.2019 09:32 21,7 C 62 % 1016,5 hPa 0,0 l/m 14,4 km/h (3 Bft) O 84 14,1 C 19,4 C
18.06.2019 09:31 21,7 C 62 % 1016,4 hPa 0,0 l/m 14,4 km/h (3 Bft) S-SO 155 14,1 C 19,4 C
18.06.2019 09:30 21,7 C 62 % 1016,4 hPa 0,0 l/m 17,8 km/h (3 Bft) O-SO 117 14,1 C 18,8 C
18.06.2019 09:29 21,7 C 63 % 1016,4 hPa 0,0 l/m 9,6 km/h (2 Bft) SO 138 14,3 C 20,6 C
18.06.2019 09:28 21,6 C 62 % 1016,4 hPa 0,0 l/m 16,1 km/h (3 Bft) O 87 14,0 C 19,0 C
18.06.2019 09:27 21,7 C 62 % 1016,4 hPa 0,0 l/m 11,3 km/h (2 Bft) O 84 14,1 C 20,2 C
18.06.2019 09:26 21,7 C 62 % 1016,4 hPa 0,0 l/m 22,6 km/h (4 Bft) O 84 14,1 C 18,0 C
18.06.2019 09:25 21,7 C 62 % 1016,4 hPa 0,0 l/m 17,8 km/h (3 Bft) O-SO 103 14,1 C 18,8 C
18.06.2019 09:24 21,8 C 62 % 1016,4 hPa 0,0 l/m 19,3 km/h (3 Bft) O-SO 117 14,2 C 18,6 C
18.06.2019 09:23 21,7 C 62 % 1016,5 hPa 0,0 l/m 22,6 km/h (4 Bft) O 95 14,1 C 18,0 C
18.06.2019 09:22 21,8 C 62 % 1016,5 hPa 0,0 l/m 16,1 km/h (3 Bft) O-SO 116 14,2 C 19,2 C
18.06.2019 09:21 21,8 C 62 % 1016,5 hPa 0,0 l/m 24,1 km/h (4 Bft) O 79 14,2 C 17,9 C
18.06.2019 09:20 21,8 C 62 % 1016,5 hPa 0,0 l/m 13,0 km/h (3 Bft) O 86 14,2 C 19,9 C
18.06.2019 09:19 21,8 C 62 % 1016,4 hPa 0,0 l/m 11,3 km/h (2 Bft) O 90 14,2 C 20,3 C
18.06.2019 09:18 21,8 C 62 % 1016,5 hPa 0,0 l/m 13,0 km/h (3 Bft) O-NO 67 14,2 C 19,9 C
18.06.2019 09:17 21,6 C 62 % 1016,4 hPa 0,0 l/m 9,6 km/h (2 Bft) N-NO 33 14,0 C 20,5 C
18.06.2019 09:16 21,6 C 64 % 1016,5 hPa 0,0 l/m 13,0 km/h (3 Bft) O 88 14,5 C 19,6 C
18.06.2019 09:15 21,5 C 64 % 1016,5 hPa 0,0 l/m 8,0 km/h (2 Bft) O-SO 123 14,4 C 20,9 C
18.06.2019 09:14 21,4 C 64 % 1016,4 hPa 0,0 l/m 17,8 km/h (3 Bft) O-SO 109 14,3 C 18,4 C
18.06.2019 09:13 21,3 C 64 % 1016,5 hPa 0,0 l/m 16,1 km/h (3 Bft) O-SO 110 14,2 C 18,6 C
18.06.2019 09:12 21,3 C 64 % 1016,5 hPa 0,0 l/m 9,6 km/h (2 Bft) SO 133 14,2 C 20,2 C
18.06.2019 09:11 21,2 C 64 % 1016,5 hPa 0,0 l/m 22,6 km/h (4 Bft) O-SO 113 14,1 C 17,3 C
18.06.2019 09:10 21,0 C 65 % 1016,5 hPa 0,0 l/m 4,8 km/h (1 Bft) O-NO 58 14,2 C 21,0 C
18.06.2019 09:09 20,9 C 65 % 1016,5 hPa 0,0 l/m 4,8 km/h (1 Bft) O-SO 121 14,1 C 20,9 C
18.06.2019 09:08 20,9 C 65 % 1016,5 hPa 0,0 l/m 16,1 km/h (3 Bft) O 87 14,1 C 18,1 C
18.06.2019 09:07 20,9 C 64 % 1016,5 hPa 0,0 l/m 17,8 km/h (3 Bft) O 92 13,8 C 17,8 C
18.06.2019 09:06 20,9 C 65 % 1016,5 hPa 0,0 l/m 13,0 km/h (3 Bft) O 96 14,1 C 18,8 C
18.06.2019 09:05 20,9 C 65 % 1016,5 hPa 0,0 l/m 13,0 km/h (3 Bft) O-NO 75 14,1 C 18,8 C
18.06.2019 09:04 20,9 C 65 % 1016,6 hPa 0,0 l/m 13,0 km/h (3 Bft) O 91 14,1 C 18,8 C
18.06.2019 09:03 20,9 C 65 % 1016,5 hPa 0,0 l/m 13,0 km/h (3 Bft) O-NO 63 14,1 C 18,8 C
18.06.2019 09:02 20,9 C 65 % 1016,5 hPa 0,0 l/m 16,1 km/h (3 Bft) O-SO 113 14,1 C 18,1 C
18.06.2019 09:01 20,9 C 65 % 1016,5 hPa 0,0 l/m 17,8 km/h (3 Bft) O-SO 119 14,1 C 17,8 C
18.06.2019 09:00 20,9 C 64 % 1016,6 hPa 0,0 l/m 8,0 km/h (2 Bft) O 94 13,8 C 20,3 C
18.06.2019 08:59 20,9 C 65 % 1016,5 hPa 0,0 l/m 14,4 km/h (3 Bft) O-NO 78 14,1 C 18,5 C
18.06.2019 08:58 20,9 C 65 % 1016,6 hPa 0,0 l/m 11,3 km/h (2 Bft) O-SO 119 14,1 C 19,3 C
18.06.2019 08:57 21,0 C 65 % 1016,6 hPa 0,0 l/m 8,0 km/h (2 Bft) O 80 14,2 C 20,4 C
18.06.2019 08:56 21,0 C 65 % 1016,6 hPa 0,0 l/m 11,3 km/h (2 Bft) O-SO 114 14,2 C 19,4 C
18.06.2019 08:55 21,0 C 65 % 1016,6 hPa 0,0 l/m 8,0 km/h (2 Bft) O 80 14,2 C 20,4 C
18.06.2019 08:54 21,0 C 65 % 1016,6 hPa 0,0 l/m 14,4 km/h (3 Bft) O-SO 109 14,2 C 18,6 C
18.06.2019 08:53 21,0 C 65 % 1016,6 hPa 0,0 l/m 8,0 km/h (2 Bft) O 79 14,2 C 20,4 C
18.06.2019 08:52 21,0 C 65 % 1016,6 hPa 0,0 l/m 6,5 km/h (2 Bft) S-SO 156 14,2 C 21,0 C
18.06.2019 08:51 21,0 C 65 % 1016,6 hPa 0,0 l/m 11,3 km/h (2 Bft) O-SO 119 14,2 C 19,4 C
18.06.2019 08:50 21,0 C 65 % 1016,6 hPa 0,0 l/m 11,3 km/h (2 Bft) O-SO 109 14,2 C 19,4 C
18.06.2019 08:49 20,9 C 65 % 1016,6 hPa 0,0 l/m 6,5 km/h (2 Bft) O-SO 109 14,1 C 20,9 C
18.06.2019 08:48 20,9 C 66 % 1016,5 hPa 0,0 l/m 13,0 km/h (3 Bft) SO 129 14,3 C 18,8 C
18.06.2019 08:47 20,8 C 65 % 1016,6 hPa 0,0 l/m 11,3 km/h (2 Bft) O-SO 123 14,0 C 19,1 C
18.06.2019 08:46 20,8 C 65 % 1016,6 hPa 0,0 l/m 13,0 km/h (3 Bft) O 101 14,0 C 18,7 C
18.06.2019 08:45 20,8 C 65 % 1016,6 hPa 0,0 l/m 14,4 km/h (3 Bft) SO 126 14,0 C 18,4 C
18.06.2019 08:44 20,7 C 65 % 1016,5 hPa 0,0 l/m 13,0 km/h (3 Bft) O-NO 76 13,9 C 18,6 C
18.06.2019 08:43 20,8 C 65 % 1016,6 hPa 0,0 l/m 13,0 km/h (3 Bft) O 87 14,0 C 18,7 C
18.06.2019 08:42 20,8 C 65 % 1016,6 hPa 0,0 l/m 13,0 km/h (3 Bft) O 92 14,0 C 18,7 C
18.06.2019 08:41 20,8 C 65 % 1016,5 hPa 0,0 l/m 14,4 km/h (3 Bft) O-NO 78 14,0 C 18,4 C
18.06.2019 08:40 20,8 C 65 % 1016,5 hPa 0,0 l/m 14,4 km/h (3 Bft) O-NO 71 14,0 C 18,4 C
18.06.2019 08:39 20,8 C 65 % 1016,6 hPa 0,0 l/m 8,0 km/h (2 Bft) SO 144 14,0 C 20,2 C
18.06.2019 08:38 20,8 C 65 % 1016,5 hPa 0,0 l/m 3,1 km/h (1 Bft) O-SO 111 14,0 C 20,8 C
18.06.2019 08:37 20,7 C 65 % 1016,6 hPa 0,0 l/m 8,0 km/h (2 Bft) S-SO 153 13,9 C 20,1 C
18.06.2019 08:36 20,5 C 64 % 1016,5 hPa 0,0 l/m 16,1 km/h (3 Bft) O 99 13,5 C 17,6 C
18.06.2019 08:35 20,5 C 64 % 1016,5 hPa 0,0 l/m 13,0 km/h (3 Bft) O-SO 115 13,5 C 18,3 C
18.06.2019 08:25 20,9 C 65 % 1016,5 hPa 0,0 l/m 19,3 km/h (3 Bft) O-SO 120 14,1 C 17,5 C
18.06.2019 08:24 20,8 C 66 % 1016,5 hPa 0,0 l/m 8,0 km/h (2 Bft) O 98 14,2 C 20,2 C
18.06.2019 08:23 20,8 C 66 % 1016,4 hPa 0,0 l/m 14,4 km/h (3 Bft) O 80 14,2 C 18,4 C
18.06.2019 08:22 20,6 C 66 % 1016,5 hPa 0,0 l/m 8,0 km/h (2 Bft) O-SO 113 14,0 C 20,0 C
18.06.2019 08:21 20,6 C 67 % 1016,5 hPa 0,0 l/m 16,1 km/h (3 Bft) O 98 14,3 C 17,7 C
18.06.2019 08:20 20,5 C 66 % 1016,5 hPa 0,0 l/m 11,3 km/h (2 Bft) O 86 13,9 C 18,8 C
18.06.2019 08:19 20,5 C 66 % 1016,5 hPa 0,0 l/m 17,8 km/h (3 Bft) O-SO 116 13,9 C 17,3 C
18.06.2019 08:18 20,5 C 67 % 1016,6 hPa 0,0 l/m 14,4 km/h (3 Bft) O-SO 113 14,2 C 18,0 C
18.06.2019 08:17 20,5 C 67 % 1016,6 hPa 0,0 l/m 13,0 km/h (3 Bft) O-SO 111 14,2 C 18,3 C
18.06.2019 08:16 20,4 C 66 % 1016,7 hPa 0,0 l/m 14,4 km/h (3 Bft) O-SO 117 13,8 C 17,9 C
18.06.2019 08:15 20,4 C 67 % 1016,5 hPa 0,0 l/m 13,0 km/h (3 Bft) O-SO 115 14,1 C 18,2 C
18.06.2019 08:14 20,4 C 67 % 1016,6 hPa 0,0 l/m 17,8 km/h (3 Bft) O 85 14,1 C 17,1 C
18.06.2019 08:13 20,4 C 67 % 1016,6 hPa 0,0 l/m 8,0 km/h (2 Bft) O 96 14,1 C 19,8 C
18.06.2019 08:12 20,3 C 66 % 1016,6 hPa 0,0 l/m 8,0 km/h (2 Bft) NO 46 13,7 C 19,7 C
18.06.2019 08:11 20,4 C 66 % 1016,5 hPa 0,0 l/m 11,3 km/h (2 Bft) O-SO 103 13,8 C 18,7 C
18.06.2019 08:10 20,4 C 67 % 1016,6 hPa 0,0 l/m 11,3 km/h (2 Bft) O 84 14,1 C 18,7 C
18.06.2019 08:09 20,4 C 66 % 1016,6 hPa 0,0 l/m 8,0 km/h (2 Bft) S-SO 163 13,8 C 19,8 C
18.06.2019 08:08 20,4 C 66 % 1016,6 hPa 0,0 l/m 16,1 km/h (3 Bft) O-SO 115 13,8 C 17,5 C
18.06.2019 08:07 20,4 C 67 % 1016,6 hPa 0,0 l/m 16,1 km/h (3 Bft) O-SO 120 14,1 C 17,5 C
18.06.2019 08:06 20,3 C 67 % 1016,6 hPa 0,0 l/m 11,3 km/h (2 Bft) SO 140 14,0 C 18,6 C
18.06.2019 08:05 20,3 C 67 % 1016,5 hPa 0,0 l/m 4,8 km/h (1 Bft) S-SO 155 14,0 C 20,3 C
18.06.2019 08:04 20,3 C 67 % 1016,5 hPa 0,0 l/m 20,9 km/h (4 Bft) O-SO 117 14,0 C 16,4 C
18.06.2019 08:03 20,2 C 67 % 1016,6 hPa 0,0 l/m 16,1 km/h (3 Bft) O-SO 119 13,9 C 17,2 C
18.06.2019 08:02 20,2 C 67 % 1016,6 hPa 0,0 l/m 11,3 km/h (2 Bft) O 88 13,9 C 18,5 C
18.06.2019 08:01 20,2 C 67 % 1016,6 hPa 0,0 l/m 8,0 km/h (2 Bft) O-SO 107 13,9 C 19,6 C
18.06.2019 07:59 20,1 C 68 % 1016,6 hPa 0,0 l/m 9,6 km/h (2 Bft) O 81 14,0 C 18,9 C
18.06.2019 07:58 20,0 C 68 % 1016,6 hPa 0,0 l/m 13,0 km/h (3 Bft) O 82 13,9 C 17,8 C
18.06.2019 07:57 20,0 C 67 % 1016,5 hPa 0,0 l/m 11,3 km/h (2 Bft) SO 142 13,7 C 18,2 C
18.06.2019 07:56 20,0 C 67 % 1016,5 hPa 0,0 l/m 16,1 km/h (3 Bft) O-SO 123 13,7 C 17,0 C
18.06.2019 07:55 20,1 C 68 % 1016,5 hPa 0,0 l/m 17,8 km/h (3 Bft) O-SO 119 14,0 C 16,8 C
18.06.2019 07:54 20,0 C 68 % 1016,5 hPa 0,0 l/m 11,3 km/h (2 Bft) O-NO 78 13,9 C 18,2 C
18.06.2019 07:53 20,1 C 68 % 1016,6 hPa 0,0 l/m 16,1 km/h (3 Bft) O-SO 121 14,0 C 17,1 C
18.06.2019 07:52 20,0 C 68 % 1016,6 hPa 0,0 l/m 14,4 km/h (3 Bft) O-SO 122 13,9 C 17,4 C
18.06.2019 07:51 20,0 C 68 % 1016,6 hPa 0,0 l/m 13,0 km/h (3 Bft) O 85 13,9 C 17,8 C
18.06.2019 07:50 20,0 C 68 % 1016,6 hPa 0,0 l/m 8,0 km/h (2 Bft) O-NO 69 13,9 C 19,4 C
18.06.2019 07:49 20,0 C 68 % 1016,6 hPa 0,0 l/m 6,5 km/h (2 Bft) O-SO 107 13,9 C 20,0 C
18.06.2019 07:48 20,0 C 67 % 1016,6 hPa 0,0 l/m 13,0 km/h (3 Bft) O 91 13,7 C 17,8 C
18.06.2019 07:47 20,0 C 67 % 1016,6 hPa 0,0 l/m 11,3 km/h (2 Bft) SO 132 13,7 C 18,2 C
18.06.2019 07:46 20,0 C 68 % 1016,6 hPa 0,0 l/m 11,3 km/h (2 Bft) O 86 13,9 C 18,2 C
18.06.2019 07:45 20,0 C 67 % 1016,5 hPa 0,0 l/m 11,3 km/h (2 Bft) SO 136 13,7 C 18,2 C
18.06.2019 07:44 20,1 C 67 % 1016,6 hPa 0,0 l/m 14,4 km/h (3 Bft) O-SO 115 13,8 C 17,5 C
18.06.2019 07:43 20,1 C 68 % 1016,5 hPa 0,0 l/m 13,0 km/h (3 Bft) O 91 14,0 C 17,9 C
18.06.2019 07:42 20,1 C 67 % 1016,5 hPa 0,0 l/m 8,0 km/h (2 Bft) NO 52 13,8 C 19,5 C
18.06.2019 07:41 20,1 C 67 % 1016,6 hPa 0,0 l/m 9,6 km/h (2 Bft) SO 131 13,8 C 18,9 C
18.06.2019 07:40 20,2 C 67 % 1016,6 hPa 0,0 l/m 11,3 km/h (2 Bft) O-SO 118 13,9 C 18,5 C
18.06.2019 07:39 20,2 C 68 % 1016,6 hPa 0,0 l/m 14,4 km/h (3 Bft) O-SO 108 14,1 C 17,6 C
18.06.2019 07:38 20,2 C 68 % 1016,6 hPa 0,0 l/m 8,0 km/h (2 Bft) SO 127 14,1 C 19,6 C
18.06.2019 07:37 20,1 C 69 % 1016,6 hPa 0,0 l/m 11,3 km/h (2 Bft) O 91 14,2 C 18,3 C
18.06.2019 07:36 20,0 C 69 % 1016,6 hPa 0,0 l/m 3,1 km/h (1 Bft) O 98 14,1 C 20,0 C
18.06.2019 07:35 20,0 C 69 % 1016,6 hPa 0,0 l/m 8,0 km/h (2 Bft) O-SO 115 14,1 C 19,4 C
18.06.2019 07:34 19,9 C 69 % 1016,6 hPa 0,0 l/m 4,8 km/h (1 Bft) O 96 14,0 C 19,9 C
18.06.2019 07:33 19,9 C 68 % 1016,6 hPa 0,0 l/m 6,5 km/h (2 Bft) O-SO 103 13,8 C 19,9 C
18.06.2019 07:32 20,0 C 68 % 1016,6 hPa 0,0 l/m 9,6 km/h (2 Bft) O 96 13,9 C 18,8 C
18.06.2019 07:31 20,1 C 67 % 1016,6 hPa 0,0 l/m 11,3 km/h (2 Bft) O 88 13,8 C 18,3 C
18.06.2019 07:30 20,1 C 68 % 1016,6 hPa 0,0 l/m 14,4 km/h (3 Bft) O 81 14,0 C 17,5 C
18.06.2019 07:29 20,1 C 68 % 1016,6 hPa 0,0 l/m 9,6 km/h (2 Bft) S-SW 193 14,0 C 18,9 C
18.06.2019 07:28 20,0 C 69 % 1016,6 hPa 0,0 l/m 6,5 km/h (2 Bft) SO 128 14,1 C 20,0 C
18.06.2019 07:27 20,0 C 68 % 1016,5 hPa 0,0 l/m 13,0 km/h (3 Bft) O-SO 110 13,9 C 17,8 C
18.06.2019 07:26 20,0 C 68 % 1016,5 hPa 0,0 l/m 8,0 km/h (2 Bft) SO 140 13,9 C 19,4 C
18.06.2019 07:25 20,0 C 68 % 1016,6 hPa 0,0 l/m 8,0 km/h (2 Bft) SO 133 13,9 C 19,4 C
18.06.2019 07:24 20,0 C 69 % 1016,6 hPa 0,0 l/m 3,1 km/h (1 Bft) O-SO 103 14,1 C 20,0 C
18.06.2019 07:23 20,0 C 69 % 1016,6 hPa 0,0 l/m 6,5 km/h (2 Bft) O-SO 108 14,1 C 20,0 C
18.06.2019 07:22 19,9 C 70 % 1016,6 hPa 0,0 l/m 4,8 km/h (1 Bft) O 91 14,3 C 19,9 C
18.06.2019 07:21 19,9 C 69 % 1016,6 hPa 0,0 l/m 3,1 km/h (1 Bft) O-SO 109 14,0 C 19,9 C
18.06.2019 07:20 19,8 C 69 % 1016,6 hPa 0,0 l/m 4,8 km/h (1 Bft) O-SO 114 13,9 C 19,8 C
18.06.2019 07:19 19,8 C 69 % 1016,5 hPa 0,0 l/m 11,3 km/h (2 Bft) O 84 13,9 C 18,0 C
18.06.2019 07:18 19,8 C 69 % 1016,5 hPa 0,0 l/m 6,5 km/h (2 Bft) O-SO 119 13,9 C 19,8 C
18.06.2019 07:17 19,8 C 69 % 1016,5 hPa 0,0 l/m 6,5 km/h (2 Bft) SO 132 13,9 C 19,8 C
18.06.2019 07:16 19,8 C 69 % 1016,4 hPa 0,0 l/m 8,0 km/h (2 Bft) O-SO 104 13,9 C 19,1 C
18.06.2019 07:15 19,9 C 69 % 1016,5 hPa 0,0 l/m 3,1 km/h (1 Bft) O-SO 105 14,0 C 19,9 C
18.06.2019 07:14 19,9 C 69 % 1016,5 hPa 0,0 l/m 8,0 km/h (2 Bft) O-SO 110 14,0 C 19,2 C
18.06.2019 07:13 19,9 C 69 % 1016,4 hPa 0,0 l/m 9,6 km/h (2 Bft) O 80 14,0 C 18,7 C
18.06.2019 07:12 19,9 C 69 % 1016,5 hPa 0,0 l/m 0,0 km/h (0 Bft) O-SO 112 14,0 C 19,9 C
18.06.2019 07:11 19,8 C 70 % 1016,4 hPa 0,0 l/m 3,1 km/h (1 Bft) O 82 14,2 C 19,8 C
18.06.2019 07:10 19,8 C 69 % 1016,4 hPa 0,0 l/m 6,5 km/h (2 Bft) SO 132 13,9 C 19,8 C
18.06.2019 07:09 19,8 C 70 % 1016,4 hPa 0,0 l/m 4,8 km/h (1 Bft) O-SO 108 14,2 C 19,8 C
18.06.2019 07:08 19,8 C 69 % 1016,4 hPa 0,0 l/m 3,1 km/h (1 Bft) O-NO 78 13,9 C 19,8 C
18.06.2019 07:07 19,8 C 70 % 1016,4 hPa 0,0 l/m 6,5 km/h (2 Bft) O-SO 102 14,2 C 19,8 C
18.06.2019 07:06 19,8 C 69 % 1016,4 hPa 0,0 l/m 1,7 km/h (1 Bft) O-SO 108 13,9 C 19,8 C
18.06.2019 07:05 19,8 C 69 % 1016,5 hPa 0,0 l/m 6,5 km/h (2 Bft) O-SO 105 13,9 C 19,8 C
18.06.2019 07:04 19,8 C 70 % 1016,5 hPa 0,0 l/m 3,1 km/h (1 Bft) O 99 14,2 C 19,8 C
18.06.2019 07:03 19,7 C 70 % 1016,5 hPa 0,0 l/m 0,0 km/h (0 Bft) O-SO 114 14,1 C 19,7 C
18.06.2019 07:02 19,6 C 70 % 1016,5 hPa 0,0 l/m 4,8 km/h (1 Bft) S-SO 157 14,0 C 19,6 C
18.06.2019 07:01 19,6 C 70 % 1016,5 hPa 0,0 l/m 6,5 km/h (2 Bft) NO 56 14,0 C 19,6 C
18.06.2019 07:00 19,6 C 70 % 1016,5 hPa 0,0 l/m 6,5 km/h (2 Bft) O-SO 116 14,0 C 19,6 C
18.06.2019 06:59 19,5 C 70 % 1016,5 hPa 0,0 l/m 3,1 km/h (1 Bft) O 88 13,9 C 19,5 C
18.06.2019 06:58 19,5 C 71 % 1016,4 hPa 0,0 l/m 6,5 km/h (2 Bft) S-SO 159 14,1 C 19,5 C
18.06.2019 06:57 19,5 C 70 % 1016,4 hPa 0,0 l/m 1,7 km/h (1 Bft) S-SO 157 13,9 C 19,5 C
18.06.2019 06:56 19,5 C 71 % 1016,4 hPa 0,0 l/m 13,0 km/h (3 Bft) O 92 14,1 C 17,2 C
18.06.2019 06:55 19,4 C 71 % 1016,4 hPa 0,0 l/m 4,8 km/h (1 Bft) O 82 14,0 C 19,4 C
18.06.2019 06:54 19,4 C 71 % 1016,4 hPa 0,0 l/m 6,5 km/h (2 Bft) SO 126 14,0 C 19,4 C
18.06.2019 06:53 19,3 C 71 % 1016,3 hPa 0,0 l/m 4,8 km/h (1 Bft) O-SO 108 13,9 C 19,3 C
18.06.2019 06:52 19,3 C 71 % 1016,3 hPa 0,0 l/m 8,0 km/h (2 Bft) O-SO 120 13,9 C 18,6 C
18.06.2019 06:51 19,3 C 72 % 1016,3 hPa 0,0 l/m 4,8 km/h (1 Bft) O-SO 105 14,1 C 19,3 C
18.06.2019 06:50 19,2 C 72 % 1016,3 hPa 0,0 l/m 3,1 km/h (1 Bft) O 79 14,0 C 19,2 C
18.06.2019 06:49 19,1 C 72 % 1016,3 hPa 0,0 l/m 6,5 km/h (2 Bft) SO 133 13,9 C 19,1 C
18.06.2019 06:48 19,1 C 72 % 1016,3 hPa 0,0 l/m 4,8 km/h (1 Bft) O-SO 115 13,9 C 19,1 C
18.06.2019 06:47 19,1 C 72 % 1016,4 hPa 0,0 l/m 6,5 km/h (2 Bft) SO 124 13,9 C 19,1 C
18.06.2019 06:46 19,0 C 72 % 1016,4 hPa 0,0 l/m 8,0 km/h (2 Bft) SO 125 13,8 C 18,3 C
18.06.2019 06:45 19,0 C 72 % 1016,4 hPa 0,0 l/m 4,8 km/h (1 Bft) O-SO 107 13,8 C 19,0 C
18.06.2019 06:44 19,0 C 72 % 1016,4 hPa 0,0 l/m 4,8 km/h (1 Bft) S-SO 156 13,8 C 19,0 C
18.06.2019 06:43 19,0 C 72 % 1016,3 hPa 0,0 l/m 4,8 km/h (1 Bft) O-SO 107 13,8 C 19,0 C
18.06.2019 06:42 19,0 C 72 % 1016,3 hPa 0,0 l/m 6,5 km/h (2 Bft) O-SO 115 13,8 C 19,0 C
18.06.2019 06:41 19,0 C 72 % 1016,4 hPa 0,0 l/m 6,5 km/h (2 Bft) O-SO 109 13,8 C 19,0 C
18.06.2019 06:40 19,0 C 72 % 1016,4 hPa 0,0 l/m 11,3 km/h (2 Bft) O 88 13,8 C 17,1 C
18.06.2019 06:39 19,0 C 72 % 1016,4 hPa 0,0 l/m 4,8 km/h (1 Bft) O-SO 112 13,8 C 19,0 C
18.06.2019 06:38 19,0 C 72 % 1016,4 hPa 0,0 l/m 8,0 km/h (2 Bft) SO 130 13,8 C 18,3 C
18.06.2019 06:37 19,0 C 72 % 1016,5 hPa 0,0 l/m 4,8 km/h (1 Bft) SO 143 13,8 C 19,0 C
18.06.2019 06:36 18,9 C 72 % 1016,4 hPa 0,0 l/m 3,1 km/h (1 Bft) SO 144 13,7 C 18,9 C
18.06.2019 06:35 18,9 C 73 % 1016,4 hPa 0,0 l/m 1,7 km/h (1 Bft) SO 137 13,9 C 18,9 C
18.06.2019 06:34 18,8 C 73 % 1016,4 hPa 0,0 l/m 3,1 km/h (1 Bft) O-SO 104 13,9 C 18,8 C
18.06.2019 06:33 18,8 C 73 % 1016,4 hPa 0,0 l/m 4,8 km/h (1 Bft) O-SO 118 13,9 C 18,8 C
18.06.2019 06:32 18,7 C 73 % 1016,3 hPa 0,0 l/m 4,8 km/h (1 Bft) SO 142 13,8 C 18,7 C
18.06.2019 06:31 18,6 C 73 % 1016,3 hPa 0,0 l/m 0,0 km/h (0 Bft) O-SO 115 13,7 C 18,6 C
18.06.2019 06:30 18,6 C 73 % 1016,3 hPa 0,0 l/m 3,1 km/h (1 Bft) O 90 13,7 C 18,6 C
18.06.2019 06:29 18,6 C 74 % 1016,3 hPa 0,0 l/m 3,1 km/h (1 Bft) S-SO 155 13,9 C 18,6 C
18.06.2019 06:28 18,5 C 74 % 1016,2 hPa 0,0 l/m 4,8 km/h (1 Bft) O-SO 119 13,8 C 18,5 C
18.06.2019 06:27 18,5 C 74 % 1016,2 hPa 0,0 l/m 6,5 km/h (2 Bft) O-SO 120 13,8 C 18,5 C
18.06.2019 06:26 18,5 C 74 % 1016,1 hPa 0,0 l/m 3,1 km/h (1 Bft) SO 146 13,8 C 18,5 C
18.06.2019 06:25 18,4 C 74 % 1016,1 hPa 0,0 l/m 6,5 km/h (2 Bft) SO 127 13,7 C 18,4 C
18.06.2019 06:24 18,4 C 74 % 1016,1 hPa 0,0 l/m 4,8 km/h (1 Bft) SO 124 13,7 C 18,4 C
18.06.2019 06:23 18,4 C 74 % 1016,2 hPa 0,0 l/m 6,5 km/h (2 Bft) O-SO 105 13,7 C 18,4 C
18.06.2019 06:22 18,4 C 74 % 1016,1 hPa 0,0 l/m 4,8 km/h (1 Bft) O 96 13,7 C 18,4 C
18.06.2019 06:21 18,4 C 74 % 1016,1 hPa 0,0 l/m 8,0 km/h (2 Bft) O-SO 117 13,7 C 17,7 C
18.06.2019 06:20 18,4 C 74 % 1016,1 hPa 0,0 l/m 11,3 km/h (2 Bft) O-SO 107 13,7 C 16,4 C
18.06.2019 06:19 18,4 C 74 % 1016,1 hPa 0,0 l/m 4,8 km/h (1 Bft) O-SO 118 13,7 C 18,4 C
18.06.2019 06:18 18,4 C 74 % 1016,1 hPa 0,0 l/m 6,5 km/h (2 Bft) SO 128 13,7 C 18,4 C
18.06.2019 06:17 18,4 C 74 % 1016,1 hPa 0,0 l/m 8,0 km/h (2 Bft) O-SO 114 13,7 C 17,7 C
18.06.2019 06:16 18,4 C 74 % 1016,1 hPa 0,0 l/m 8,0 km/h (2 Bft) O-SO 119 13,7 C 17,7 C
18.06.2019 06:15 18,4 C 74 % 1016,1 hPa 0,0 l/m 8,0 km/h (2 Bft) O 87 13,7 C 17,7 C
18.06.2019 06:14 18,4 C 74 % 1016,1 hPa 0,0 l/m 6,5 km/h (2 Bft) SO 125 13,7 C 18,4 C
18.06.2019 06:13 18,4 C 74 % 1016,1 hPa 0,0 l/m 13,0 km/h (3 Bft) O-SO 118 13,7 C 15,9 C
18.06.2019 06:12 18,4 C 74 % 1016,1 hPa 0,0 l/m 9,6 km/h (2 Bft) SO 132 13,7 C 17,0 C
18.06.2019 06:11 18,3 C 74 % 1016,1 hPa 0,0 l/m 11,3 km/h (2 Bft) O-SO 115 13,6 C 16,3 C
18.06.2019 06:10 18,3 C 74 % 1016,1 hPa 0,0 l/m 11,3 km/h (2 Bft) O-SO 102 13,6 C 16,3 C
18.06.2019 06:09 18,3 C 74 % 1016,1 hPa 0,0 l/m 13,0 km/h (3 Bft) O-SO 105 13,6 C 15,8 C
18.06.2019 06:08 18,3 C 74 % 1016,1 hPa 0,0 l/m 8,0 km/h (2 Bft) O-SO 110 13,6 C 17,6 C
18.06.2019 06:07 18,3 C 74 % 1016,1 hPa 0,0 l/m 9,6 km/h (2 Bft) SO 145 13,6 C 16,9 C
18.06.2019 06:06 18,3 C 74 % 1016,0 hPa 0,0 l/m 11,3 km/h (2 Bft) O-SO 119 13,6 C 16,3 C
18.06.2019 06:05 18,3 C 74 % 1016,1 hPa 0,0 l/m 11,3 km/h (2 Bft) O 96 13,6 C 16,3 C
18.06.2019 06:04 18,3 C 74 % 1016,1 hPa 0,0 l/m 14,4 km/h (3 Bft) O-SO 123 13,6 C 15,4 C
18.06.2019 06:03 18,3 C 74 % 1016,1 hPa 0,0 l/m 9,6 km/h (2 Bft) SO 124 13,6 C 16,9 C
18.06.2019 06:02 18,2 C 74 % 1016,1 hPa 0,0 l/m 8,0 km/h (2 Bft) S-SO 157 13,5 C 17,5 C
18.06.2019 06:01 18,2 C 74 % 1016,1 hPa 0,0 l/m 11,3 km/h (2 Bft) O-SO 117 13,5 C 16,2 C
18.06.2019 06:00 18,2 C 74 % 1016,1 hPa 0,0 l/m 6,5 km/h (2 Bft) O-SO 103 13,5 C 18,2 C
18.06.2019 05:59 18,2 C 74 % 1016,1 hPa 0,0 l/m 11,3 km/h (2 Bft) O-SO 121 13,5 C 16,2 C
18.06.2019 05:58 18,1 C 74 % 1016,1 hPa 0,0 l/m 8,0 km/h (2 Bft) O-SO 105 13,4 C 17,4 C
18.06.2019 05:57 18,1 C 74 % 1016,1 hPa 0,0 l/m 9,6 km/h (2 Bft) O 100 13,4 C 16,7 C
18.06.2019 05:56 18,1 C 74 % 1016,2 hPa 0,0 l/m 9,6 km/h (2 Bft) SO 132 13,4 C 16,7 C
18.06.2019 05:55 18,1 C 74 % 1016,1 hPa 0,0 l/m 8,0 km/h (2 Bft) O-SO 114 13,4 C 17,4 C
18.06.2019 05:54 18,1 C 74 % 1016,1 hPa 0,0 l/m 6,5 km/h (2 Bft) O-SO 111 13,4 C 18,1 C
18.06.2019 05:53 18,1 C 74 % 1016,1 hPa 0,0 l/m 8,0 km/h (2 Bft) O 88 13,4 C 17,4 C
18.06.2019 05:52 18,1 C 74 % 1016,2 hPa 0,0 l/m 6,5 km/h (2 Bft) O-SO 105 13,4 C 18,1 C
18.06.2019 05:51 18,1 C 74 % 1016,2 hPa 0,0 l/m 8,0 km/h (2 Bft) O-SO 103 13,4 C 17,4 C
18.06.2019 05:50 18,1 C 74 % 1016,2 hPa 0,0 l/m 9,6 km/h (2 Bft) O 97 13,4 C 16,7 C
18.06.2019 05:49 18,1 C 74 % 1016,2 hPa 0,0 l/m 6,5 km/h (2 Bft) SO 132 13,4 C 18,1 C
18.06.2019 05:48 18,1 C 74 % 1016,2 hPa 0,0 l/m 6,5 km/h (2 Bft) SO 130 13,4 C 18,1 C
18.06.2019 05:47 18,1 C 74 % 1016,2 hPa 0,0 l/m 6,5 km/h (2 Bft) SO 128 13,4 C 18,1 C
18.06.2019 05:46 18,1 C 74 % 1016,2 hPa 0,0 l/m 8,0 km/h (2 Bft) SO 135 13,4 C 17,4 C
18.06.2019 05:45 18,1 C 74 % 1016,2 hPa 0,0 l/m 4,8 km/h (1 Bft) O-SO 121 13,4 C 18,1 C
18.06.2019 05:44 18,1 C 74 % 1016,2 hPa 0,0 l/m 8,0 km/h (2 Bft) O 92 13,4 C 17,4 C
18.06.2019 05:43 18,1 C 74 % 1016,2 hPa 0,0 l/m 11,3 km/h (2 Bft) O-SO 115 13,4 C 16,1 C
18.06.2019 05:42 18,1 C 74 % 1016,1 hPa 0,0 l/m 6,5 km/h (2 Bft) O-SO 117 13,4 C 18,1 C
18.06.2019 05:41 18,1 C 74 % 1016,2 hPa 0,0 l/m 8,0 km/h (2 Bft) O-SO 107 13,4 C 17,4 C
18.06.2019 05:40 18,1 C 74 % 1016,2 hPa 0,0 l/m 4,8 km/h (1 Bft) O-SO 111 13,4 C 18,1 C
18.06.2019 05:39 18,1 C 74 % 1016,2 hPa 0,0 l/m 11,3 km/h (2 Bft) O-SO 121 13,4 C 16,1 C
18.06.2019 05:38 18,0 C 74 % 1016,2 hPa 0,0 l/m 4,8 km/h (1 Bft) O-SO 119 13,3 C 18,0 C
18.06.2019 05:37 18,0 C 74 % 1016,2 hPa 0,0 l/m 8,0 km/h (2 Bft) O 90 13,3 C 17,3 C
18.06.2019 05:36 18,0 C 74 % 1016,2 hPa 0,0 l/m 6,5 km/h (2 Bft) O-SO 123 13,3 C 18,0 C
18.06.2019 05:35 18,0 C 74 % 1016,2 hPa 0,0 l/m 6,5 km/h (2 Bft) O-SO 117 13,3 C 18,0 C
18.06.2019 05:34 18,0 C 74 % 1016,1 hPa 0,0 l/m 9,6 km/h (2 Bft) O 101 13,3 C 16,6 C
18.06.2019 05:33 18,0 C 74 % 1016,2 hPa 0,0 l/m 6,5 km/h (2 Bft) O-SO 104 13,3 C 18,0 C
18.06.2019 05:32 18,0 C 74 % 1016,2 hPa 0,0 l/m 4,8 km/h (1 Bft) O-SO 114 13,3 C 18,0 C
18.06.2019 05:31 18,0 C 74 % 1016,2 hPa 0,0 l/m 4,8 km/h (1 Bft) O-SO 121 13,3 C 18,0 C
18.06.2019 05:30 18,0 C 74 % 1016,2 hPa 0,0 l/m 3,1 km/h (1 Bft) SO 131 13,3 C 18,0 C
18.06.2019 05:29 18,0 C 74 % 1016,2 hPa 0,0 l/m 4,8 km/h (1 Bft) O-SO 106 13,3 C 18,0 C
18.06.2019 05:28 18,0 C 74 % 1016,2 hPa 0,0 l/m 3,1 km/h (1 Bft) SO 126 13,3 C 18,0 C
18.06.2019 05:27 18,0 C 74 % 1016,2 hPa 0,0 l/m 4,8 km/h (1 Bft) O-SO 123 13,3 C 18,0 C
18.06.2019 05:26 18,0 C 74 % 1016,2 hPa 0,0 l/m 6,5 km/h (2 Bft) O-SO 105 13,3 C 18,0 C
18.06.2019 05:25 18,0 C 74 % 1016,2 hPa 0,0 l/m 1,7 km/h (1 Bft) O-SO 109 13,3 C 18,0 C
18.06.2019 05:24 18,0 C 74 % 1016,2 hPa 0,0 l/m 1,7 km/h (1 Bft) O-SO 105 13,3 C 18,0 C
18.06.2019 05:23 18,0 C 74 % 1016,1 hPa 0,0 l/m 6,5 km/h (2 Bft) O-SO 110 13,3 C 18,0 C
18.06.2019 05:22 18,0 C 74 % 1016,1 hPa 0,0 l/m 4,8 km/h (1 Bft) O 100 13,3 C 18,0 C
18.06.2019 05:21 18,0 C 74 % 1016,2 hPa 0,0 l/m 3,1 km/h (1 Bft) O 85 13,3 C 18,0 C
18.06.2019 05:20 18,0 C 74 % 1016,1 hPa 0,0 l/m 1,7 km/h (1 Bft) O-SO 116 13,3 C 18,0 C
18.06.2019 05:19 18,0 C 74 % 1016,1 hPa 0,0 l/m 9,6 km/h (2 Bft) SO 138 13,3 C 16,6 C
18.06.2019 05:18 18,0 C 74 % 1016,1 hPa 0,0 l/m 4,8 km/h (1 Bft) O-SO 121 13,3 C 18,0 C
18.06.2019 05:17 18,0 C 74 % 1016,2 hPa 0,0 l/m 4,8 km/h (1 Bft) O 84 13,3 C 18,0 C
18.06.2019 05:16 18,0 C 74 % 1016,1 hPa 0,0 l/m 6,5 km/h (2 Bft) SO 130 13,3 C 18,0 C
18.06.2019 05:15 18,0 C 74 % 1016,2 hPa 0,0 l/m 4,8 km/h (1 Bft) O-SO 109 13,3 C 18,0 C
18.06.2019 05:14 18,0 C 74 % 1016,1 hPa 0,0 l/m 6,5 km/h (2 Bft) SO 129 13,3 C 18,0 C
18.06.2019 05:13 18,0 C 74 % 1016,1 hPa 0,0 l/m 3,1 km/h (1 Bft) O-SO 103 13,3 C 18,0 C
18.06.2019 05:12 17,9 C 74 % 1016,1 hPa 0,0 l/m 4,8 km/h (1 Bft) SO 136 13,2 C 17,9 C
18.06.2019 05:11 18,0 C 74 % 1016,1 hPa 0,0 l/m 4,8 km/h (1 Bft) SO 130 13,3 C 18,0 C
18.06.2019 05:10 17,9 C 74 % 1016,0 hPa 0,0 l/m 6,5 km/h (2 Bft) O-SO 111 13,2 C 17,9 C
18.06.2019 05:09 17,9 C 74 % 1016,1 hPa 0,0 l/m 4,8 km/h (1 Bft) O-SO 111 13,2 C 17,9 C
18.06.2019 05:08 17,9 C 74 % 1016,1 hPa 0,0 l/m 8,0 km/h (2 Bft) O 99 13,2 C 17,1 C
18.06.2019 05:07 17,9 C 74 % 1016,0 hPa 0,0 l/m 4,8 km/h (1 Bft) O-SO 115 13,2 C 17,9 C
18.06.2019 05:06 17,9 C 74 % 1016,1 hPa 0,0 l/m 3,1 km/h (1 Bft) SO 127 13,2 C 17,9 C
18.06.2019 05:05 17,9 C 74 % 1016,0 hPa 0,0 l/m 6,5 km/h (2 Bft) O-SO 117 13,2 C 17,9 C
18.06.2019 05:04 17,9 C 74 % 1016,1 hPa 0,0 l/m 6,5 km/h (2 Bft) O-SO 116 13,2 C 17,9 C
18.06.2019 05:03 17,9 C 74 % 1016,0 hPa 0,0 l/m 4,8 km/h (1 Bft) O-SO 123 13,2 C 17,9 C
18.06.2019 05:02 17,9 C 74 % 1016,0 hPa 0,0 l/m 3,1 km/h (1 Bft) O-SO 111 13,2 C 17,9 C
18.06.2019 05:01 17,9 C 74 % 1016,0 hPa 0,0 l/m 4,8 km/h (1 Bft) O 88 13,2 C 17,9 C
18.06.2019 05:00 17,9 C 74 % 1016,1 hPa 0,0 l/m 3,1 km/h (1 Bft) O-SO 106 13,2 C 17,9 C
18.06.2019 04:59 17,9 C 74 % 1016,1 hPa 0,0 l/m 4,8 km/h (1 Bft) O 100 13,2 C 17,9 C
18.06.2019 04:58 17,9 C 74 % 1016,1 hPa 0,0 l/m 6,5 km/h (2 Bft) O-SO 106 13,2 C 17,9 C
18.06.2019 04:57 18,0 C 74 % 1016,0 hPa 0,0 l/m 3,1 km/h (1 Bft) O 94 13,3 C 18,0 C
18.06.2019 04:56 18,0 C 74 % 1016,0 hPa 0,0 l/m 4,8 km/h (1 Bft) O 98 13,3 C 18,0 C
18.06.2019 04:55 18,0 C 74 % 1016,0 hPa 0,0 l/m 6,5 km/h (2 Bft) O-SO 107 13,3 C 18,0 C
18.06.2019 04:54 18,0 C 74 % 1016,2 hPa 0,0 l/m 4,8 km/h (1 Bft) O 96 13,3 C 18,0 C
18.06.2019 04:53 18,0 C 74 % 1016,1 hPa 0,0 l/m 3,1 km/h (1 Bft) O 87 13,3 C 18,0 C
18.06.2019 04:52 18,0 C 74 % 1016,2 hPa 0,0 l/m 3,1 km/h (1 Bft) O-NO 77 13,3 C 18,0 C
18.06.2019 04:50 18,0 C 74 % 1016,2 hPa 0,0 l/m 3,1 km/h (1 Bft) O-SO 111 13,3 C 18,0 C
18.06.2019 04:49 18,1 C 74 % 1016,1 hPa 0,0 l/m 3,1 km/h (1 Bft) O-SO 105 13,4 C 18,1 C
18.06.2019 04:48 18,1 C 74 % 1016,1 hPa 0,0 l/m 3,1 km/h (1 Bft) O 88 13,4 C 18,1 C
18.06.2019 04:47 18,1 C 74 % 1016,1 hPa 0,0 l/m 4,8 km/h (1 Bft) O 98 13,4 C 18,1 C
18.06.2019 04:46 18,1 C 74 % 1016,0 hPa 0,0 l/m 8,0 km/h (2 Bft) O 98 13,4 C 17,4 C
18.06.2019 04:45 18,1 C 74 % 1016,1 hPa 0,0 l/m 4,8 km/h (1 Bft) O-SO 109 13,4 C 18,1 C
18.06.2019 04:43 18,1 C 73 % 1016,1 hPa 0,0 l/m 3,1 km/h (1 Bft) O-SO 107 13,2 C 18,1 C
18.06.2019 04:42 18,2 C 73 % 1016,1 hPa 0,0 l/m 3,1 km/h (1 Bft) SO 130 13,3 C 18,2 C
18.06.2019 04:41 18,2 C 73 % 1016,2 hPa 0,0 l/m 4,8 km/h (1 Bft) O 88 13,3 C 18,2 C
18.06.2019 04:40 18,2 C 73 % 1016,2 hPa 0,0 l/m 4,8 km/h (1 Bft) O-SO 110 13,3 C 18,2 C
18.06.2019 04:38 18,2 C 73 % 1016,2 hPa 0,0 l/m 4,8 km/h (1 Bft) O-SO 113 13,3 C 18,2 C
18.06.2019 04:37 18,2 C 73 % 1016,2 hPa 0,0 l/m 3,1 km/h (1 Bft) O-SO 116 13,3 C 18,2 C
18.06.2019 04:35 18,2 C 73 % 1016,2 hPa 0,0 l/m 4,8 km/h (1 Bft) SO 131 13,3 C 18,2 C
18.06.2019 04:34 18,3 C 73 % 1016,1 hPa 0,0 l/m 3,1 km/h (1 Bft) O-SO 102 13,4 C 18,3 C
18.06.2019 04:33 18,3 C 73 % 1016,2 hPa 0,0 l/m 1,7 km/h (1 Bft) O-SO 110 13,4 C 18,3 C
18.06.2019 04:32 18,3 C 73 % 1016,1 hPa 0,0 l/m 1,7 km/h (1 Bft) O-SO 108 13,4 C 18,3 C
18.06.2019 04:31 18,3 C 73 % 1016,1 hPa 0,0 l/m 1,7 km/h (1 Bft) SO 132 13,4 C 18,3 C
18.06.2019 04:30 18,3 C 73 % 1016,1 hPa 0,0 l/m 3,1 km/h (1 Bft) O 94 13,4 C 18,3 C
18.06.2019 04:29 18,3 C 73 % 1016,1 hPa 0,0 l/m 3,1 km/h (1 Bft) O-SO 122 13,4 C 18,3 C
18.06.2019 04:28 18,3 C 73 % 1016,1 hPa 0,0 l/m 1,7 km/h (1 Bft) SO 129 13,4 C 18,3 C
18.06.2019 04:27 18,3 C 73 % 1016,1 hPa 0,0 l/m 3,1 km/h (1 Bft) O-SO 109 13,4 C 18,3 C
18.06.2019 04:26 18,3 C 73 % 1016,0 hPa 0,0 l/m 3,1 km/h (1 Bft) O-SO 120 13,4 C 18,3 C
18.06.2019 04:25 18,3 C 73 % 1016,2 hPa 0,0 l/m 4,8 km/h (1 Bft) O-SO 120 13,4 C 18,3 C
18.06.2019 04:24 18,3 C 73 % 1016,2 hPa 0,0 l/m 4,8 km/h (1 Bft) O-SO 112 13,4 C 18,3 C
18.06.2019 04:23 18,3 C 73 % 1016,1 hPa 0,0 l/m 1,7 km/h (1 Bft) SO 126 13,4 C 18,3 C
18.06.2019 04:22 18,3 C 73 % 1016,1 hPa 0,0 l/m 3,1 km/h (1 Bft) SO 127 13,4 C 18,3 C
18.06.2019 04:21 18,3 C 73 % 1016,1 hPa 0,0 l/m 3,1 km/h (1 Bft) SO 142 13,4 C 18,3 C
18.06.2019 04:20 18,3 C 73 % 1016,2 hPa 0,0 l/m 4,8 km/h (1 Bft) O-SO 104 13,4 C 18,3 C
18.06.2019 04:19 18,3 C 73 % 1016,0 hPa 0,0 l/m 3,1 km/h (1 Bft) O-SO 113 13,4 C 18,3 C
18.06.2019 04:18 18,3 C 73 % 1016,2 hPa 0,0 l/m 4,8 km/h (1 Bft) O 86 13,4 C 18,3 C
18.06.2019 04:17 18,3 C 73 % 1016,1 hPa 0,0 l/m 3,1 km/h (1 Bft) O-SO 112 13,4 C 18,3 C
18.06.2019 04:16 18,3 C 73 % 1016,1 hPa 0,0 l/m 4,8 km/h (1 Bft) O-SO 116 13,4 C 18,3 C
18.06.2019 04:15 18,3 C 73 % 1016,2 hPa 0,0 l/m 1,7 km/h (1 Bft) SO 138 13,4 C 18,3 C
18.06.2019 04:14 18,3 C 73 % 1016,2 hPa 0,0 l/m 4,8 km/h (1 Bft) O-SO 121 13,4 C 18,3 C
18.06.2019 04:13 18,3 C 73 % 1016,2 hPa 0,0 l/m 4,8 km/h (1 Bft) SO 134 13,4 C 18,3 C
18.06.2019 04:12 18,3 C 73 % 1016,2 hPa 0,0 l/m 3,1 km/h (1 Bft) O-SO 122 13,4 C 18,3 C
18.06.2019 04:11 18,3 C 73 % 1016,2 hPa 0,0 l/m 3,1 km/h (1 Bft) S-SO 147 13,4 C 18,3 C
18.06.2019 04:10 18,3 C 73 % 1016,2 hPa 0,0 l/m 3,1 km/h (1 Bft) SO 143 13,4 C 18,3 C
18.06.2019 04:09 18,3 C 73 % 1016,2 hPa 0,0 l/m 4,8 km/h (1 Bft) SO 142 13,4 C 18,3 C
18.06.2019 04:08 18,3 C 73 % 1016,2 hPa 0,0 l/m 6,5 km/h (2 Bft) SO 134 13,4 C 18,3 C
18.06.2019 04:07 18,4 C 73 % 1016,2 hPa 0,0 l/m 4,8 km/h (1 Bft) S-SO 149 13,5 C 18,4 C
18.06.2019 04:06 18,4 C 72 % 1016,1 hPa 0,0 l/m 6,5 km/h (2 Bft) SO 133 13,3 C 18,4 C
18.06.2019 04:05 18,5 C 72 % 1016,2 hPa 0,0 l/m 3,1 km/h (1 Bft) S-SO 167 13,4 C 18,5 C
18.06.2019 04:04 18,5 C 72 % 1016,2 hPa 0,0 l/m 1,7 km/h (1 Bft) SO 140 13,4 C 18,5 C
18.06.2019 04:03 18,6 C 72 % 1016,1 hPa 0,0 l/m 3,1 km/h (1 Bft) S 173 13,4 C 18,6 C
18.06.2019 04:02 18,6 C 71 % 1016,1 hPa 0,0 l/m 3,1 km/h (1 Bft) S-SO 159 13,2 C 18,6 C
18.06.2019 04:01 18,7 C 71 % 1016,1 hPa 0,0 l/m 3,1 km/h (1 Bft) S-SO 153 13,3 C 18,7 C
18.06.2019 04:00 18,8 C 71 % 1016,2 hPa 0,0 l/m 1,7 km/h (1 Bft) SO 137 13,4 C 18,8 C
18.06.2019 03:59 18,8 C 71 % 1016,2 hPa 0,0 l/m 3,1 km/h (1 Bft) SO 132 13,4 C 18,8 C
18.06.2019 03:58 18,9 C 71 % 1016,2 hPa 0,0 l/m 3,1 km/h (1 Bft) SO 127 13,5 C 18,9 C
18.06.2019 03:57 18,9 C 70 % 1016,1 hPa 0,0 l/m 1,7 km/h (1 Bft) SO 140 13,3 C 18,9 C
18.06.2019 03:56 19,0 C 70 % 1016,2 hPa 0,0 l/m 4,8 km/h (1 Bft) SO 130 13,4 C 19,0 C
18.06.2019 03:55 19,0 C 70 % 1016,2 hPa 0,0 l/m 0,0 km/h (0 Bft) SO 134 13,4 C 19,0 C
18.06.2019 03:54 19,0 C 70 % 1016,1 hPa 0,0 l/m 3,1 km/h (1 Bft) SO 145 13,4 C 19,0 C
18.06.2019 03:53 19,0 C 70 % 1016,1 hPa 0,0 l/m 8,0 km/h (2 Bft) O-SO 115 13,4 C 18,3 C
18.06.2019 03:52 19,0 C 69 % 1016,2 hPa 0,0 l/m 4,8 km/h (1 Bft) O-SO 119 13,2 C 19,0 C
18.06.2019 03:51 19,0 C 69 % 1016,1 hPa 0,0 l/m 3,1 km/h (1 Bft) SO 128 13,2 C 19,0 C
18.06.2019 03:50 19,0 C 69 % 1016,1 hPa 0,0 l/m 8,0 km/h (2 Bft) O 93 13,2 C 18,3 C
18.06.2019 03:49 19,1 C 70 % 1016,1 hPa 0,0 l/m 11,3 km/h (2 Bft) O 92 13,5 C 17,2 C
18.06.2019 03:48 19,1 C 70 % 1016,1 hPa 0,0 l/m 4,8 km/h (1 Bft) O-SO 109 13,5 C 19,1 C
18.06.2019 03:47 19,1 C 69 % 1016,2 hPa 0,0 l/m 1,7 km/h (1 Bft) O-SO 115 13,3 C 19,1 C
18.06.2019 03:46 19,1 C 69 % 1016,1 hPa 0,0 l/m 6,5 km/h (2 Bft) SO 132 13,3 C 19,1 C
18.06.2019 03:45 19,1 C 69 % 1016,2 hPa 0,0 l/m 6,5 km/h (2 Bft) O-SO 113 13,3 C 19,1 C
18.06.2019 03:44 19,1 C 69 % 1016,2 hPa 0,0 l/m 3,1 km/h (1 Bft) SO 126 13,3 C 19,1 C
18.06.2019 03:43 19,1 C 69 % 1016,1 hPa 0,0 l/m 6,5 km/h (2 Bft) O-SO 102 13,3 C 19,1 C
18.06.2019 03:42 19,1 C 69 % 1016,2 hPa 0,0 l/m 8,0 km/h (2 Bft) O 86 13,3 C 18,4 C
18.06.2019 03:41 19,1 C 69 % 1016,2 hPa 0,0 l/m 3,1 km/h (1 Bft) SO 138 13,3 C 19,1 C
18.06.2019 03:40 19,1 C 69 % 1016,2 hPa 0,0 l/m 11,3 km/h (2 Bft) O-SO 119 13,3 C 17,2 C
18.06.2019 03:39 19,1 C 69 % 1016,2 hPa 0,0 l/m 8,0 km/h (2 Bft) O-SO 118 13,3 C 18,4 C
18.06.2019 03:38 19,1 C 69 % 1016,2 hPa 0,0 l/m 6,5 km/h (2 Bft) O-SO 117 13,3 C 19,1 C
18.06.2019 03:37 19,1 C 69 % 1016,1 hPa 0,0 l/m 3,1 km/h (1 Bft) O-SO 109 13,3 C 19,1 C
18.06.2019 03:36 19,1 C 69 % 1016,1 hPa 0,0 l/m 8,0 km/h (2 Bft) O-SO 107 13,3 C 18,4 C
18.06.2019 03:35 19,2 C 69 % 1016,1 hPa 0,0 l/m 4,8 km/h (1 Bft) SO 127 13,4 C 19,2 C
18.06.2019 03:34 19,2 C 69 % 1016,2 hPa 0,0 l/m 4,8 km/h (1 Bft) O 83 13,4 C 19,2 C
18.06.2019 03:33 19,2 C 69 % 1016,1 hPa 0,0 l/m 4,8 km/h (1 Bft) O-SO 112 13,4 C 19,2 C
18.06.2019 03:32 19,2 C 69 % 1016,2 hPa 0,0 l/m 4,8 km/h (1 Bft) O-SO 121 13,4 C 19,2 C
18.06.2019 03:31 19,2 C 69 % 1016,2 hPa 0,0 l/m 11,3 km/h (2 Bft) O 91 13,4 C 17,3 C
18.06.2019 03:30 19,2 C 69 % 1016,2 hPa 0,0 l/m 4,8 km/h (1 Bft) O 88 13,4 C 19,2 C
18.06.2019 03:29 19,1 C 69 % 1016,1 hPa 0,0 l/m 11,3 km/h (2 Bft) O 90 13,3 C 17,2 C
18.06.2019 03:28 19,2 C 69 % 1016,2 hPa 0,0 l/m 9,6 km/h (2 Bft) O 96 13,4 C 17,9 C
18.06.2019 03:27 19,2 C 69 % 1016,2 hPa 0,0 l/m 6,5 km/h (2 Bft) O-SO 110 13,4 C 19,2 C
18.06.2019 03:26 19,2 C 69 % 1016,2 hPa 0,0 l/m 9,6 km/h (2 Bft) O 91 13,4 C 17,9 C
18.06.2019 03:25 19,2 C 69 % 1016,2 hPa 0,0 l/m 6,5 km/h (2 Bft) O-SO 114 13,4 C 19,2 C
18.06.2019 03:24 19,2 C 69 % 1016,1 hPa 0,0 l/m 4,8 km/h (1 Bft) O 97 13,4 C 19,2 C
18.06.2019 03:23 19,2 C 69 % 1016,2 hPa 0,0 l/m 8,0 km/h (2 Bft) O 99 13,4 C 18,5 C
18.06.2019 03:22 19,3 C 69 % 1016,3 hPa 0,0 l/m 3,1 km/h (1 Bft) O 87 13,5 C 19,3 C
18.06.2019 03:21 19,3 C 69 % 1016,3 hPa 0,0 l/m 4,8 km/h (1 Bft) O-SO 116 13,5 C 19,3 C
18.06.2019 03:20 19,3 C 69 % 1016,4 hPa 0,0 l/m 4,8 km/h (1 Bft) O-NO 75 13,5 C 19,3 C
18.06.2019 03:19 19,3 C 69 % 1016,4 hPa 0,0 l/m 4,8 km/h (1 Bft) O-SO 121 13,5 C 19,3 C
18.06.2019 03:18 19,3 C 69 % 1016,3 hPa 0,0 l/m 4,8 km/h (1 Bft) O 82 13,5 C 19,3 C
18.06.2019 03:17 19,3 C 69 % 1016,4 hPa 0,0 l/m 8,0 km/h (2 Bft) O 101 13,5 C 18,6 C
18.06.2019 03:16 19,3 C 69 % 1016,5 hPa 0,0 l/m 4,8 km/h (1 Bft) O-SO 115 13,5 C 19,3 C
18.06.2019 03:15 19,3 C 69 % 1016,4 hPa 0,0 l/m 4,8 km/h (1 Bft) O-SO 111 13,5 C 19,3 C
18.06.2019 03:14 19,3 C 69 % 1016,4 hPa 0,0 l/m 6,5 km/h (2 Bft) O-SO 110 13,5 C 19,3 C
18.06.2019 03:13 19,4 C 69 % 1016,5 hPa 0,0 l/m 4,8 km/h (1 Bft) O 81 13,6 C 19,4 C
18.06.2019 03:12 19,4 C 69 % 1016,4 hPa 0,0 l/m 4,8 km/h (1 Bft) O-NO 73 13,6 C 19,4 C
18.06.2019 03:11 19,4 C 69 % 1016,5 hPa 0,0 l/m 4,8 km/h (1 Bft) O 86 13,6 C 19,4 C
18.06.2019 03:10 19,4 C 69 % 1016,4 hPa 0,0 l/m 8,0 km/h (2 Bft) O 89 13,6 C 18,7 C
18.06.2019 03:09 19,4 C 69 % 1016,4 hPa 0,0 l/m 9,6 km/h (2 Bft) O 92 13,6 C 18,1 C
18.06.2019 03:08 19,4 C 69 % 1016,4 hPa 0,0 l/m 4,8 km/h (1 Bft) O 82 13,6 C 19,4 C
18.06.2019 03:07 19,5 C 69 % 1016,5 hPa 0,0 l/m 9,6 km/h (2 Bft) O 82 13,7 C 18,2 C
18.06.2019 03:06 19,5 C 69 % 1016,4 hPa 0,0 l/m 8,0 km/h (2 Bft) O 85 13,7 C 18,8 C
18.06.2019 03:05 19,5 C 69 % 1016,5 hPa 0,0 l/m 4,8 km/h (1 Bft) O-SO 103 13,7 C 19,5 C
18.06.2019 03:04 19,5 C 69 % 1016,5 hPa 0,0 l/m 9,6 km/h (2 Bft) O 95 13,7 C 18,2 C
18.06.2019 03:03 19,5 C 68 % 1016,5 hPa 0,0 l/m 6,5 km/h (2 Bft) O-SO 106 13,4 C 19,5 C
18.06.2019 03:02 19,5 C 68 % 1016,6 hPa 0,0 l/m 8,0 km/h (2 Bft) O-NO 68 13,4 C 18,8 C
18.06.2019 03:01 19,5 C 68 % 1016,6 hPa 0,0 l/m 8,0 km/h (2 Bft) O 90 13,4 C 18,8 C
18.06.2019 03:00 19,6 C 68 % 1016,5 hPa 0,0 l/m 8,0 km/h (2 Bft) O-SO 107 13,5 C 18,9 C
18.06.2019 02:59 19,6 C 68 % 1016,5 hPa 0,0 l/m 3,1 km/h (1 Bft) SO 128 13,5 C 19,6 C
18.06.2019 02:58 19,6 C 68 % 1016,5 hPa 0,0 l/m 6,5 km/h (2 Bft) O-SO 110 13,5 C 19,6 C
18.06.2019 02:57 19,6 C 68 % 1016,6 hPa 0,0 l/m 8,0 km/h (2 Bft) O-NO 72 13,5 C 18,9 C
18.06.2019 02:56 19,6 C 68 % 1016,6 hPa 0,0 l/m 11,3 km/h (2 Bft) O 92 13,5 C 17,8 C
18.06.2019 02:55 19,6 C 68 % 1016,6 hPa 0,0 l/m 4,8 km/h (1 Bft) O-NO 74 13,5 C 19,6 C
18.06.2019 02:54 19,6 C 68 % 1016,6 hPa 0,0 l/m 6,5 km/h (2 Bft) O-SO 109 13,5 C 19,6 C
18.06.2019 02:53 19,7 C 68 % 1016,6 hPa 0,0 l/m 6,5 km/h (2 Bft) O-NO 74 13,6 C 19,7 C
18.06.2019 02:52 19,7 C 68 % 1016,6 hPa 0,0 l/m 8,0 km/h (2 Bft) O 101 13,6 C 19,0 C
18.06.2019 02:51 19,7 C 68 % 1016,6 hPa 0,0 l/m 13,0 km/h (3 Bft) O 96 13,6 C 17,4 C
18.06.2019 02:50 19,7 C 68 % 1016,5 hPa 0,0 l/m 9,6 km/h (2 Bft) O 95 13,6 C 18,4 C
18.06.2019 02:49 19,8 C 68 % 1016,6 hPa 0,0 l/m 8,0 km/h (2 Bft) O 94 13,7 C 19,1 C
18.06.2019 02:48 19,8 C 68 % 1016,6 hPa 0,0 l/m 6,5 km/h (2 Bft) O-SO 103 13,7 C 19,8 C
18.06.2019 02:47 19,8 C 67 % 1016,6 hPa 0,0 l/m 9,6 km/h (2 Bft) O 92 13,5 C 18,6 C
18.06.2019 02:46 19,8 C 67 % 1016,6 hPa 0,0 l/m 13,0 km/h (3 Bft) O 94 13,5 C 17,5 C
18.06.2019 02:45 19,8 C 67 % 1016,6 hPa 0,0 l/m 9,6 km/h (2 Bft) O 90 13,5 C 18,6 C
18.06.2019 02:44 19,8 C 67 % 1016,6 hPa 0,0 l/m 14,4 km/h (3 Bft) O 92 13,5 C 17,2 C
18.06.2019 02:43 19,8 C 67 % 1016,6 hPa 0,0 l/m 8,0 km/h (2 Bft) O-NO 70 13,5 C 19,1 C
18.06.2019 02:42 19,8 C 67 % 1016,7 hPa 0,0 l/m 8,0 km/h (2 Bft) O 101 13,5 C 19,1 C
18.06.2019 02:41 19,9 C 67 % 1016,6 hPa 0,0 l/m 6,5 km/h (2 Bft) O-NO 73 13,6 C 19,9 C
18.06.2019 02:40 19,9 C 67 % 1016,6 hPa 0,0 l/m 9,6 km/h (2 Bft) O 98 13,6 C 18,7 C
18.06.2019 02:39 19,9 C 67 % 1016,7 hPa 0,0 l/m 8,0 km/h (2 Bft) O 96 13,6 C 19,2 C
18.06.2019 02:38 19,9 C 67 % 1016,6 hPa 0,0 l/m 8,0 km/h (2 Bft) O-NO 72 13,6 C 19,2 C
18.06.2019 02:37 19,9 C 67 % 1016,7 hPa 0,0 l/m 14,4 km/h (3 Bft) O 94 13,6 C 17,3 C
18.06.2019 02:36 19,9 C 67 % 1016,7 hPa 0,0 l/m 9,6 km/h (2 Bft) O 101 13,6 C 18,7 C
18.06.2019 02:35 19,9 C 67 % 1016,7 hPa 0,0 l/m 11,3 km/h (2 Bft) O-SO 109 13,6 C 18,1 C
18.06.2019 02:34 19,9 C 67 % 1016,7 hPa 0,0 l/m 8,0 km/h (2 Bft) O-NO 77 13,6 C 19,2 C
18.06.2019 02:33 19,9 C 67 % 1016,7 hPa 0,0 l/m 8,0 km/h (2 Bft) O-NO 76 13,6 C 19,2 C
18.06.2019 02:32 20,0 C 67 % 1016,7 hPa 0,0 l/m 11,3 km/h (2 Bft) O 85 13,7 C 18,2 C
18.06.2019 02:31 20,0 C 67 % 1016,7 hPa 0,0 l/m 8,0 km/h (2 Bft) O-NO 63 13,7 C 19,4 C
18.06.2019 02:30 20,0 C 67 % 1016,7 hPa 0,0 l/m 4,8 km/h (1 Bft) O 84 13,7 C 20,0 C
18.06.2019 02:29 20,0 C 67 % 1016,7 hPa 0,0 l/m 8,0 km/h (2 Bft) O-NO 78 13,7 C 19,4 C
18.06.2019 02:28 20,0 C 67 % 1016,8 hPa 0,0 l/m 11,3 km/h (2 Bft) O 79 13,7 C 18,2 C
18.06.2019 02:27 20,0 C 67 % 1016,8 hPa 0,0 l/m 9,6 km/h (2 Bft) O 94 13,7 C 18,8 C
18.06.2019 02:26 20,0 C 67 % 1016,7 hPa 0,0 l/m 9,6 km/h (2 Bft) O 95 13,7 C 18,8 C
18.06.2019 02:25 20,1 C 67 % 1016,7 hPa 0,0 l/m 8,0 km/h (2 Bft) O-SO 107 13,8 C 19,5 C
18.06.2019 02:24 20,1 C 66 % 1016,7 hPa 0,0 l/m 13,0 km/h (3 Bft) O 94 13,5 C 17,9 C
18.06.2019 02:23 20,1 C 66 % 1016,7 hPa 0,0 l/m 13,0 km/h (3 Bft) O-NO 76 13,5 C 17,9 C
18.06.2019 02:22 20,1 C 66 % 1016,7 hPa 0,0 l/m 11,3 km/h (2 Bft) O 97 13,5 C 18,3 C
18.06.2019 02:21 20,1 C 66 % 1016,7 hPa 0,0 l/m 11,3 km/h (2 Bft) O 96 13,5 C 18,3 C
18.06.2019 02:20 20,1 C 66 % 1016,7 hPa 0,0 l/m 17,8 km/h (3 Bft) O-SO 105 13,5 C 16,8 C
18.06.2019 02:19 20,1 C 67 % 1016,7 hPa 0,0 l/m 11,3 km/h (2 Bft) O 79 13,8 C 18,3 C
18.06.2019 02:18 20,1 C 67 % 1016,7 hPa 0,0 l/m 11,3 km/h (2 Bft) O 101 13,8 C 18,3 C
18.06.2019 02:17 20,1 C 67 % 1016,8 hPa 0,0 l/m 13,0 km/h (3 Bft) O-SO 109 13,8 C 17,9 C
18.06.2019 02:16 20,1 C 67 % 1016,8 hPa 0,0 l/m 3,1 km/h (1 Bft) NO 41 13,8 C 20,1 C
18.06.2019 02:15 20,1 C 66 % 1016,8 hPa 0,0 l/m 13,0 km/h (3 Bft) O 94 13,5 C 17,9 C
18.06.2019 02:14 20,1 C 67 % 1016,7 hPa 0,0 l/m 13,0 km/h (3 Bft) O-NO 66 13,8 C 17,9 C
18.06.2019 02:13 20,1 C 67 % 1016,8 hPa 0,0 l/m 11,3 km/h (2 Bft) O-SO 103 13,8 C 18,3 C
18.06.2019 02:12 20,1 C 67 % 1016,8 hPa 0,0 l/m 11,3 km/h (2 Bft) O-NO 73 13,8 C 18,3 C
18.06.2019 02:11 20,1 C 67 % 1016,8 hPa 0,0 l/m 11,3 km/h (2 Bft) O 84 13,8 C 18,3 C
18.06.2019 02:10 20,1 C 67 % 1016,8 hPa 0,0 l/m 11,3 km/h (2 Bft) O-NO 78 13,8 C 18,3 C
18.06.2019 02:09 20,1 C 67 % 1016,8 hPa 0,0 l/m 13,0 km/h (3 Bft) O 90 13,8 C 17,9 C
18.06.2019 02:08 20,1 C 67 % 1016,8 hPa 0,0 l/m 9,6 km/h (2 Bft) O 82 13,8 C 18,9 C
18.06.2019 02:07 20,0 C 67 % 1016,9 hPa 0,0 l/m 13,0 km/h (3 Bft) O-NO 69 13,7 C 17,8 C
18.06.2019 02:06 20,0 C 67 % 1016,8 hPa 0,0 l/m 11,3 km/h (2 Bft) O-NO 57 13,7 C 18,2 C
18.06.2019 02:05 20,0 C 67 % 1016,8 hPa 0,0 l/m 11,3 km/h (2 Bft) NO 49 13,7 C 18,2 C
18.06.2019 02:04 20,0 C 68 % 1016,8 hPa 0,0 l/m 13,0 km/h (3 Bft) O-NO 65 13,9 C 17,8 C
18.06.2019 02:03 20,0 C 68 % 1016,8 hPa 0,0 l/m 4,8 km/h (1 Bft) O 89 13,9 C 20,0 C
18.06.2019 02:02 20,0 C 68 % 1016,8 hPa 0,0 l/m 11,3 km/h (2 Bft) O 81 13,9 C 18,2 C
18.06.2019 02:01 20,0 C 68 % 1016,8 hPa 0,0 l/m 14,4 km/h (3 Bft) O-NO 68 13,9 C 17,4 C
18.06.2019 02:00 20,0 C 68 % 1016,8 hPa 0,0 l/m 6,5 km/h (2 Bft) O-NO 72 13,9 C 20,0 C
18.06.2019 01:59 20,0 C 68 % 1016,9 hPa 0,0 l/m 9,6 km/h (2 Bft) O 82 13,9 C 18,8 C
18.06.2019 01:58 20,0 C 68 % 1016,9 hPa 0,0 l/m 11,3 km/h (2 Bft) O 94 13,9 C 18,2 C
18.06.2019 01:57 20,0 C 68 % 1016,9 hPa 0,0 l/m 14,4 km/h (3 Bft) O-SO 105 13,9 C 17,4 C
18.06.2019 01:55 20,0 C 68 % 1016,9 hPa 0,0 l/m 14,4 km/h (3 Bft) O 81 13,9 C 17,4 C
18.06.2019 01:54 20,0 C 68 % 1016,9 hPa 0,0 l/m 11,3 km/h (2 Bft) O 88 13,9 C 18,2 C
18.06.2019 01:53 20,0 C 68 % 1016,9 hPa 0,0 l/m 11,3 km/h (2 Bft) O 98 13,9 C 18,2 C
18.06.2019 01:52 20,0 C 68 % 1016,9 hPa 0,0 l/m 13,0 km/h (3 Bft) O 90 13,9 C 17,8 C
18.06.2019 01:51 20,0 C 68 % 1016,9 hPa 0,0 l/m 4,8 km/h (1 Bft) O-NO 77 13,9 C 20,0 C
18.06.2019 01:50 20,0 C 68 % 1016,9 hPa 0,0 l/m 14,4 km/h (3 Bft) O 80 13,9 C 17,4 C
18.06.2019 01:49 20,0 C 68 % 1017,0 hPa 0,0 l/m 16,1 km/h (3 Bft) O-NO 59 13,9 C 17,0 C
18.06.2019 01:48 20,0 C 68 % 1017,0 hPa 0,0 l/m 8,0 km/h (2 Bft) O-NO 65 13,9 C 19,4 C
18.06.2019 01:47 20,0 C 68 % 1017,0 hPa 0,0 l/m 8,0 km/h (2 Bft) O-NO 78 13,9 C 19,4 C
18.06.2019 01:46 20,0 C 68 % 1017,0 hPa 0,0 l/m 13,0 km/h (3 Bft) O-SO 110 13,9 C 17,8 C
18.06.2019 01:45 20,0 C 68 % 1017,0 hPa 0,0 l/m 16,1 km/h (3 Bft) O 93 13,9 C 17,0 C
18.06.2019 01:44 20,0 C 68 % 1017,1 hPa 0,0 l/m 16,1 km/h (3 Bft) O 86 13,9 C 17,0 C
18.06.2019 01:43 20,0 C 68 % 1017,1 hPa 0,0 l/m 11,3 km/h (2 Bft) O-NO 70 13,9 C 18,2 C
18.06.2019 01:42 20,0 C 68 % 1017,1 hPa 0,0 l/m 11,3 km/h (2 Bft) O 93 13,9 C 18,2 C
18.06.2019 01:41 20,0 C 68 % 1017,1 hPa 0,0 l/m 9,6 km/h (2 Bft) O 81 13,9 C 18,8 C
18.06.2019 01:40 20,1 C 68 % 1017,1 hPa 0,0 l/m 14,4 km/h (3 Bft) O 82 14,0 C 17,5 C
18.06.2019 01:39 20,1 C 68 % 1017,1 hPa 0,0 l/m 11,3 km/h (2 Bft) O 82 14,0 C 18,3 C
18.06.2019 01:38 20,1 C 68 % 1017,1 hPa 0,0 l/m 11,3 km/h (2 Bft) O 87 14,0 C 18,3 C
18.06.2019 01:37 20,1 C 68 % 1017,1 hPa 0,0 l/m 14,4 km/h (3 Bft) O 91 14,0 C 17,5 C
18.06.2019 01:36 20,1 C 68 % 1017,1 hPa 0,0 l/m 8,0 km/h (2 Bft) O 99 14,0 C 19,5 C
18.06.2019 01:35 20,1 C 68 % 1017,1 hPa 0,0 l/m 13,0 km/h (3 Bft) O-SO 116 14,0 C 17,9 C
18.06.2019 01:34 20,1 C 68 % 1017,1 hPa 0,0 l/m 14,4 km/h (3 Bft) O 87 14,0 C 17,5 C
18.06.2019 01:33 20,1 C 68 % 1017,1 hPa 0,0 l/m 13,0 km/h (3 Bft) O 92 14,0 C 17,9 C
18.06.2019 01:32 20,1 C 68 % 1017,1 hPa 0,0 l/m 13,0 km/h (3 Bft) O 82 14,0 C 17,9 C
18.06.2019 01:31 20,1 C 68 % 1017,1 hPa 0,0 l/m 11,3 km/h (2 Bft) O 80 14,0 C 18,3 C
18.06.2019 01:30 20,1 C 68 % 1017,1 hPa 0,0 l/m 6,5 km/h (2 Bft) SO 126 14,0 C 20,1 C
18.06.2019 01:29 20,1 C 68 % 1017,1 hPa 0,0 l/m 13,0 km/h (3 Bft) O 93 14,0 C 17,9 C
18.06.2019 01:28 20,1 C 68 % 1017,1 hPa 0,0 l/m 14,4 km/h (3 Bft) O 84 14,0 C 17,5 C
18.06.2019 01:27 20,2 C 68 % 1017,1 hPa 0,0 l/m 11,3 km/h (2 Bft) O 82 14,1 C 18,5 C
18.06.2019 01:26 20,2 C 69 % 1017,2 hPa 0,0 l/m 9,6 km/h (2 Bft) O 99 14,3 C 19,0 C
18.06.2019 01:25 20,2 C 69 % 1017,1 hPa 0,0 l/m 4,8 km/h (1 Bft) O 88 14,3 C 20,2 C
18.06.2019 01:24 20,2 C 68 % 1017,2 hPa 0,0 l/m 9,6 km/h (2 Bft) O 100 14,1 C 19,0 C
18.06.2019 01:23 20,2 C 68 % 1017,2 hPa 0,0 l/m 11,3 km/h (2 Bft) O-NO 63 14,1 C 18,5 C
18.06.2019 01:22 20,2 C 68 % 1017,2 hPa 0,0 l/m 11,3 km/h (2 Bft) O-NO 63 14,1 C 18,5 C
18.06.2019 01:21 20,3 C 68 % 1017,2 hPa 0,0 l/m 13,0 km/h (3 Bft) O-NO 72 14,2 C 18,1 C
18.06.2019 01:19 20,3 C 68 % 1017,2 hPa 0,0 l/m 8,0 km/h (2 Bft) O-NO 66 14,2 C 19,7 C
18.06.2019 01:18 20,3 C 68 % 1017,2 hPa 0,0 l/m 14,4 km/h (3 Bft) O-NO 67 14,2 C 17,8 C
18.06.2019 01:17 20,3 C 68 % 1017,2 hPa 0,0 l/m 8,0 km/h (2 Bft) O-NO 63 14,2 C 19,7 C
18.06.2019 01:16 20,3 C 69 % 1017,3 hPa 0,0 l/m 11,3 km/h (2 Bft) O 88 14,4 C 18,6 C
18.06.2019 01:15 20,3 C 69 % 1017,3 hPa 0,0 l/m 14,4 km/h (3 Bft) O 95 14,4 C 17,8 C
18.06.2019 01:14 20,3 C 69 % 1017,2 hPa 0,0 l/m 9,6 km/h (2 Bft) O 92 14,4 C 19,1 C
18.06.2019 01:13 20,3 C 69 % 1017,3 hPa 0,0 l/m 8,0 km/h (2 Bft) O 81 14,4 C 19,7 C
18.06.2019 01:12 20,3 C 69 % 1017,3 hPa 0,0 l/m 11,3 km/h (2 Bft) O 94 14,4 C 18,6 C
18.06.2019 01:11 20,3 C 69 % 1017,2 hPa 0,0 l/m 9,6 km/h (2 Bft) O 84 14,4 C 19,1 C
18.06.2019 01:10 20,3 C 69 % 1017,2 hPa 0,0 l/m 11,3 km/h (2 Bft) O-NO 71 14,4 C 18,6 C
18.06.2019 01:09 20,3 C 69 % 1017,3 hPa 0,0 l/m 11,3 km/h (2 Bft) O 88 14,4 C 18,6 C
18.06.2019 01:08 20,3 C 68 % 1017,2 hPa 0,0 l/m 6,5 km/h (2 Bft) O-NO 69 14,2 C 20,3 C
18.06.2019 01:07 20,3 C 69 % 1017,2 hPa 0,0 l/m 14,4 km/h (3 Bft) O-NO 78 14,4 C 17,8 C
18.06.2019 01:06 20,3 C 69 % 1017,3 hPa 0,0 l/m 4,8 km/h (1 Bft) O 86 14,4 C 20,3 C
18.06.2019 01:05 20,3 C 69 % 1017,2 hPa 0,0 l/m 6,5 km/h (2 Bft) O-SO 103 14,4 C 20,3 C
18.06.2019 01:04 20,4 C 69 % 1017,2 hPa 0,0 l/m 8,0 km/h (2 Bft) O-SO 102 14,5 C 19,8 C
18.06.2019 01:03 20,4 C 68 % 1017,3 hPa 0,0 l/m 9,6 km/h (2 Bft) O 98 14,3 C 19,2 C
18.06.2019 01:02 20,4 C 68 % 1017,3 hPa 0,0 l/m 13,0 km/h (3 Bft) O 87 14,3 C 18,2 C
18.06.2019 01:01 20,4 C 68 % 1017,3 hPa 0,0 l/m 9,6 km/h (2 Bft) O 99 14,3 C 19,2 C
18.06.2019 01:00 20,4 C 68 % 1017,3 hPa 0,0 l/m 8,0 km/h (2 Bft) O-SO 107 14,3 C 19,8 C
18.06.2019 00:59 20,4 C 68 % 1017,2 hPa 0,0 l/m 11,3 km/h (2 Bft) O 95 14,3 C 18,7 C
18.06.2019 00:58 20,4 C 68 % 1017,2 hPa 0,0 l/m 11,3 km/h (2 Bft) O 92 14,3 C 18,7 C
18.06.2019 00:57 20,4 C 68 % 1017,2 hPa 0,0 l/m 9,6 km/h (2 Bft) O 81 14,3 C 19,2 C
18.06.2019 00:56 20,4 C 68 % 1017,3 hPa 0,0 l/m 11,3 km/h (2 Bft) O-NO 59 14,3 C 18,7 C
18.06.2019 00:55 20,4 C 68 % 1017,2 hPa 0,0 l/m 13,0 km/h (3 Bft) O-NO 75 14,3 C 18,2 C
18.06.2019 00:54 20,4 C 68 % 1017,2 hPa 0,0 l/m 9,6 km/h (2 Bft) O 90 14,3 C 19,2 C
18.06.2019 00:53 20,4 C 68 % 1017,2 hPa 0,0 l/m 13,0 km/h (3 Bft) O-SO 104 14,3 C 18,2 C
18.06.2019 00:52 20,4 C 68 % 1017,3 hPa 0,0 l/m 6,5 km/h (2 Bft) O-NO 72 14,3 C 20,4 C
18.06.2019 00:51 20,4 C 68 % 1017,3 hPa 0,0 l/m 13,0 km/h (3 Bft) O 85 14,3 C 18,2 C
18.06.2019 00:50 20,4 C 68 % 1017,2 hPa 0,0 l/m 8,0 km/h (2 Bft) O-NO 78 14,3 C 19,8 C
18.06.2019 00:49 20,5 C 68 % 1017,2 hPa 0,0 l/m 9,6 km/h (2 Bft) O 88 14,4 C 19,3 C
18.06.2019 00:48 20,4 C 68 % 1017,3 hPa 0,0 l/m 11,3 km/h (2 Bft) O-NO 75 14,3 C 18,7 C
18.06.2019 00:47 20,5 C 68 % 1017,3 hPa 0,0 l/m 17,8 km/h (3 Bft) O 100 14,4 C 17,3 C
18.06.2019 00:46 20,5 C 68 % 1017,3 hPa 0,0 l/m 8,0 km/h (2 Bft) O-NO 65 14,4 C 19,9 C
18.06.2019 00:45 20,5 C 68 % 1017,3 hPa 0,0 l/m 13,0 km/h (3 Bft) O 86 14,4 C 18,3 C
18.06.2019 00:44 20,5 C 68 % 1017,2 hPa 0,0 l/m 4,8 km/h (1 Bft) O-NO 78 14,4 C 20,5 C
18.06.2019 00:43 20,5 C 68 % 1017,3 hPa 0,0 l/m 13,0 km/h (3 Bft) O 83 14,4 C 18,3 C
18.06.2019 00:42 20,5 C 68 % 1017,3 hPa 0,0 l/m 9,6 km/h (2 Bft) O 94 14,4 C 19,3 C
18.06.2019 00:41 20,5 C 68 % 1017,2 hPa 0,0 l/m 11,3 km/h (2 Bft) O-NO 67 14,4 C 18,8 C
18.06.2019 00:40 20,5 C 68 % 1017,2 hPa 0,0 l/m 13,0 km/h (3 Bft) O-SO 121 14,4 C 18,3 C
18.06.2019 00:39 20,5 C 68 % 1017,3 hPa 0,0 l/m 13,0 km/h (3 Bft) O 89 14,4 C 18,3 C
18.06.2019 00:38 20,6 C 68 % 1017,2 hPa 0,0 l/m 8,0 km/h (2 Bft) O 82 14,5 C 20,0 C
18.06.2019 00:37 20,6 C 68 % 1017,3 hPa 0,0 l/m 16,1 km/h (3 Bft) O-SO 114 14,5 C 17,7 C
18.06.2019 00:36 20,6 C 68 % 1017,3 hPa 0,0 l/m 8,0 km/h (2 Bft) O-SO 115 14,5 C 20,0 C
18.06.2019 00:35 20,6 C 68 % 1017,3 hPa 0,0 l/m 4,8 km/h (1 Bft) O 88 14,5 C 20,6 C
18.06.2019 00:34 20,6 C 68 % 1017,3 hPa 0,0 l/m 13,0 km/h (3 Bft) O 93 14,5 C 18,5 C
18.06.2019 00:33 20,6 C 68 % 1017,2 hPa 0,0 l/m 13,0 km/h (3 Bft) O 96 14,5 C 18,5 C
18.06.2019 00:32 20,6 C 67 % 1017,3 hPa 0,0 l/m 4,8 km/h (1 Bft) SO 127 14,3 C 20,6 C
18.06.2019 00:31 20,6 C 67 % 1017,2 hPa 0,0 l/m 11,3 km/h (2 Bft) O 84 14,3 C 18,9 C
18.06.2019 00:30 20,6 C 67 % 1017,3 hPa 0,0 l/m 9,6 km/h (2 Bft) O 94 14,3 C 19,4 C
18.06.2019 00:29 20,7 C 67 % 1017,1 hPa 0,0 l/m 11,3 km/h (2 Bft) O-NO 76 14,3 C 19,0 C
18.06.2019 00:28 20,7 C 67 % 1017,2 hPa 0,0 l/m 16,1 km/h (3 Bft) O-NO 65 14,3 C 17,9 C
18.06.2019 00:27 20,6 C 67 % 1017,2 hPa 0,0 l/m 19,3 km/h (3 Bft) O-NO 74 14,3 C 17,1 C
18.06.2019 00:26 20,6 C 67 % 1017,1 hPa 0,0 l/m 6,5 km/h (2 Bft) O-SO 107 14,3 C 20,6 C
18.06.2019 00:25 20,6 C 67 % 1017,2 hPa 0,0 l/m 14,4 km/h (3 Bft) O 85 14,3 C 18,1 C
18.06.2019 00:24 20,6 C 67 % 1017,2 hPa 0,0 l/m 11,3 km/h (2 Bft) O 80 14,3 C 18,9 C
18.06.2019 00:23 20,6 C 67 % 1017,1 hPa 0,0 l/m 13,0 km/h (3 Bft) O 84 14,3 C 18,5 C
18.06.2019 00:22 20,7 C 67 % 1017,2 hPa 0,0 l/m 14,4 km/h (3 Bft) O-NO 76 14,3 C 18,2 C
18.06.2019 00:21 20,7 C 67 % 1017,3 hPa 0,0 l/m 11,3 km/h (2 Bft) O-NO 72 14,3 C 19,0 C
18.06.2019 00:20 20,7 C 67 % 1017,2 hPa 0,0 l/m 8,0 km/h (2 Bft) O 86 14,3 C 20,1 C
18.06.2019 00:19 20,7 C 67 % 1017,2 hPa 0,0 l/m 4,8 km/h (1 Bft) NO 56 14,3 C 20,7 C
18.06.2019 00:18 20,7 C 67 % 1017,2 hPa 0,0 l/m 11,3 km/h (2 Bft) O-NO 74 14,3 C 19,0 C
18.06.2019 00:17 20,7 C 67 % 1017,3 hPa 0,0 l/m 8,0 km/h (2 Bft) O-NO 59 14,3 C 20,1 C
18.06.2019 00:16 20,7 C 67 % 1017,3 hPa 0,0 l/m 11,3 km/h (2 Bft) O-NO 67 14,3 C 19,0 C
18.06.2019 00:15 20,7 C 67 % 1017,3 hPa 0,0 l/m 8,0 km/h (2 Bft) O-NO 62 14,3 C 20,1 C
18.06.2019 00:14 20,7 C 67 % 1017,3 hPa 0,0 l/m 9,6 km/h (2 Bft) O 88 14,3 C 19,5 C
18.06.2019 00:13 20,7 C 67 % 1017,4 hPa 0,0 l/m 11,3 km/h (2 Bft) O 94 14,3 C 19,0 C
18.06.2019 00:12 20,7 C 67 % 1017,3 hPa 0,0 l/m 9,6 km/h (2 Bft) O 80 14,3 C 19,5 C
18.06.2019 00:11 20,8 C 67 % 1017,3 hPa 0,0 l/m 8,0 km/h (2 Bft) O 82 14,4 C 20,2 C
18.06.2019 00:10 20,7 C 67 % 1017,3 hPa 0,0 l/m 4,8 km/h (1 Bft) O-NO 70 14,3 C 20,7 C
18.06.2019 00:09 20,8 C 67 % 1017,2 hPa 0,0 l/m 11,3 km/h (2 Bft) O 94 14,4 C 19,1 C
18.06.2019 00:08 20,8 C 67 % 1017,3 hPa 0,0 l/m 11,3 km/h (2 Bft) O 84 14,4 C 19,1 C
18.06.2019 00:07 20,8 C 67 % 1017,3 hPa 0,0 l/m 13,0 km/h (3 Bft) O 83 14,4 C 18,7 C
18.06.2019 00:06 20,8 C 67 % 1017,3 hPa 0,0 l/m 8,0 km/h (2 Bft) O-NO 67 14,4 C 20,2 C
18.06.2019 00:05 20,8 C 67 % 1017,3 hPa 0,0 l/m 6,5 km/h (2 Bft) NO 53 14,4 C 20,8 C
18.06.2019 00:04 20,8 C 67 % 1017,3 hPa 0,0 l/m 13,0 km/h (3 Bft) O 86 14,4 C 18,7 C
18.06.2019 00:03 20,8 C 67 % 1017,3 hPa 0,0 l/m 11,3 km/h (2 Bft) O-SO 115 14,4 C 19,1 C
18.06.2019 00:02 20,8 C 67 % 1017,3 hPa 0,0 l/m 8,0 km/h (2 Bft) O 83 14,4 C 20,2 C
18.06.2019 00:01 20,8 C 67 % 1017,2 hPa 0,0 l/m 16,1 km/h (3 Bft) O 91 14,4 C 18,0 C
18.06.2019 00:00 20,8 C 67 % 1017,3 hPa 0,0 l/m 8,0 km/h (2 Bft) O-SO 119 14,4 C 20,2 C
_ Min-Zeit 04:58 16:14 17:44 - 03:55 - - 03:50 06:04
Minimum _ 17,9 C 39 % 1012,4 hPa - 0,0 km/h (0 Bft) - - 13,2 C 15,4 C
_ Max-Zeit 16:11 04:45 00:13 00:00 10:26 - - 18:40 16:12
Maximum _ 29,9 C 74 % 1017,4 hPa 0,0 l/m 30,6 km/h
O (5 Bft)
- - 17,3 C 29,9 C
Durchschnitt _ 23,5 C 59 % 1015,2 hPa #0,0 l/m 11,0 km/h (2 Bft) O - 14,6 C 22,5 C